<?xml version='1.0' encoding='UTF-8'?><gpx version="1.1" creator="JPX - https://github.com/jenetics/jpx" xmlns="http://www.topografix.com/GPX/1/1"><trk><trkseg><trkpt lat="44.8340002" lon="9.3081517"><ele>814.0000000000001</ele><time>2026-05-03T08:35:15.763Z</time></trkpt><trkpt lat="44.8340199" lon="9.3080642"><ele>814.0</ele><time>2026-05-03T08:35:19.819Z</time></trkpt><trkpt lat="44.8340383" lon="9.3079726"><ele>814.0</ele><time>2026-05-03T08:35:27.716Z</time></trkpt><trkpt lat="44.8340295" lon="9.30788"><ele>814.0</ele><time>2026-05-03T08:35:33.859Z</time></trkpt><trkpt lat="44.8340319" lon="9.3077902"><ele>814.0</ele><time>2026-05-03T08:35:40.816Z</time></trkpt><trkpt lat="44.8340054" lon="9.3077034"><ele>814.0000000000001</ele><time>2026-05-03T08:35:46.755Z</time></trkpt><trkpt lat="44.8339729" lon="9.3076209"><ele>814.0</ele><time>2026-05-03T08:35:51.831Z</time></trkpt><trkpt lat="44.8339644" lon="9.3075272"><ele>814.0000000000001</ele><time>2026-05-03T08:35:56.74Z</time></trkpt><trkpt lat="44.8339279" lon="9.3074215"><ele>814.0</ele><time>2026-05-03T08:36:01.05Z</time></trkpt><trkpt lat="44.8338975" lon="9.3073251"><ele>814.0</ele><time>2026-05-03T08:36:05.214Z</time></trkpt><trkpt lat="44.8338688" lon="9.3072442"><ele>814.0</ele><time>2026-05-03T08:36:09.715Z</time></trkpt><trkpt lat="44.8338276" lon="9.3071733"><ele>814.0</ele><time>2026-05-03T08:36:15.772Z</time></trkpt><trkpt lat="44.8337716" lon="9.307111"><ele>814.0000000000001</ele><time>2026-05-03T08:36:21.803Z</time></trkpt><trkpt lat="44.8337389" lon="9.3070272"><ele>814.0</ele><time>2026-05-03T08:36:26.795Z</time></trkpt><trkpt lat="44.8337329" lon="9.3069347"><ele>814.4285714285714</ele><time>2026-05-03T08:36:31.788Z</time></trkpt><trkpt lat="44.8337551" lon="9.3068304"><ele>814.8571428571429</ele><time>2026-05-03T08:36:37.716Z</time></trkpt><trkpt lat="44.8337668" lon="9.3067395"><ele>815.2857142857142</ele><time>2026-05-03T08:36:42.712Z</time></trkpt><trkpt lat="44.83377" lon="9.3066401"><ele>815.7142857142858</ele><time>2026-05-03T08:36:49.78Z</time></trkpt><trkpt lat="44.8337767" lon="9.3065485"><ele>816.1428571428571</ele><time>2026-05-03T08:36:56.819Z</time></trkpt><trkpt lat="44.8337957" lon="9.3064596"><ele>816.5714285714286</ele><time>2026-05-03T08:37:03.81Z</time></trkpt><trkpt lat="44.8338062" lon="9.3063675"><ele>817.0</ele><time>2026-05-03T08:37:11.716Z</time></trkpt><trkpt lat="44.8338122" lon="9.3062636"><ele>817.5714285714286</ele><time>2026-05-03T08:37:18.82Z</time></trkpt><trkpt lat="44.833832" lon="9.3061702"><ele>818.1428571428571</ele><time>2026-05-03T08:37:24.828Z</time></trkpt><trkpt lat="44.8338302" lon="9.3060805"><ele>818.7142857142858</ele><time>2026-05-03T08:37:30.819Z</time></trkpt><trkpt lat="44.8338124" lon="9.3059945"><ele>819.2857142857142</ele><time>2026-05-03T08:37:38.82Z</time></trkpt><trkpt lat="44.8338017" lon="9.3058945"><ele>819.8571428571429</ele><time>2026-05-03T08:37:45.835Z</time></trkpt><trkpt lat="44.8338067" lon="9.3058024"><ele>820.4285714285714</ele><time>2026-05-03T08:37:51.733Z</time></trkpt><trkpt lat="44.8338081" lon="9.3057016"><ele>821.0</ele><time>2026-05-03T08:37:56.82Z</time></trkpt><trkpt lat="44.8338068" lon="9.3056075"><ele>822.2857142857143</ele><time>2026-05-03T08:38:02.82Z</time></trkpt><trkpt lat="44.8338021" lon="9.3055094"><ele>823.5714285714286</ele><time>2026-05-03T08:38:07.73Z</time></trkpt><trkpt lat="44.8337998" lon="9.3054115"><ele>824.8571428571429</ele><time>2026-05-03T08:38:15.819Z</time></trkpt><trkpt lat="44.8338328" lon="9.3053201"><ele>826.1428571428571</ele><time>2026-05-03T08:38:23.819Z</time></trkpt><trkpt lat="44.8338673" lon="9.3052373"><ele>827.4285714285714</ele><time>2026-05-03T08:38:30.819Z</time></trkpt><trkpt lat="44.8339084" lon="9.3051591"><ele>828.7142857142858</ele><time>2026-05-03T08:38:37.835Z</time></trkpt><trkpt lat="44.833946" lon="9.3050751"><ele>830.0</ele><time>2026-05-03T08:38:43.835Z</time></trkpt><trkpt lat="44.8339786" lon="9.3049893"><ele>830.0</ele><time>2026-05-03T08:38:50.836Z</time></trkpt><trkpt lat="44.8340207" lon="9.3049179"><ele>830.0</ele><time>2026-05-03T08:38:55.828Z</time></trkpt><trkpt lat="44.8340449" lon="9.3048354"><ele>830.0</ele><time>2026-05-03T08:39:02.855Z</time></trkpt><trkpt lat="44.8340238" lon="9.3047427"><ele>830.0</ele><time>2026-05-03T08:39:12.82Z</time></trkpt><trkpt lat="44.8339761" lon="9.3046695"><ele>830.0</ele><time>2026-05-03T08:39:20.819Z</time></trkpt><trkpt lat="44.8339311" lon="9.3045957"><ele>830.0</ele><time>2026-05-03T08:39:26.819Z</time></trkpt><trkpt lat="44.8338921" lon="9.3045181"><ele>830.0</ele><time>2026-05-03T08:39:33.819Z</time></trkpt><trkpt lat="44.8338622" lon="9.3044234"><ele>830.7142857142858</ele><time>2026-05-03T08:39:40.819Z</time></trkpt><trkpt lat="44.8338316" lon="9.3043313"><ele>831.4285714285714</ele><time>2026-05-03T08:39:47.827Z</time></trkpt><trkpt lat="44.8338082" lon="9.3042484"><ele>832.1428571428571</ele><time>2026-05-03T08:39:53.819Z</time></trkpt><trkpt lat="44.8337958" lon="9.304161"><ele>832.8571428571429</ele><time>2026-05-03T08:40:00.828Z</time></trkpt><trkpt lat="44.8337575" lon="9.3040831"><ele>833.5714285714286</ele><time>2026-05-03T08:40:09.819Z</time></trkpt><trkpt lat="44.8336658" lon="9.3040688"><ele>834.2857142857143</ele><time>2026-05-03T08:40:28.757Z</time></trkpt><trkpt lat="44.833598" lon="9.3040735"><ele>835.0</ele><time>2026-05-03T08:40:36.812Z</time></trkpt><trkpt lat="44.8335288" lon="9.3040569"><ele>837.7142857142858</ele><time>2026-05-03T08:40:43.871Z</time></trkpt><trkpt lat="44.8334654" lon="9.304071"><ele>840.4285714285714</ele><time>2026-05-03T08:40:51.857Z</time></trkpt><trkpt lat="44.8334023" lon="9.3040377"><ele>843.1428571428571</ele><time>2026-05-03T08:40:59.82Z</time></trkpt><trkpt lat="44.8333321" lon="9.3040131"><ele>845.8571428571429</ele><time>2026-05-03T08:41:05.724Z</time></trkpt><trkpt lat="44.8332697" lon="9.3039914"><ele>848.5714285714286</ele><time>2026-05-03T08:41:11.655Z</time></trkpt><trkpt lat="44.833205" lon="9.3039825"><ele>851.2857142857143</ele><time>2026-05-03T08:41:17.819Z</time></trkpt><trkpt lat="44.833139" lon="9.3039871"><ele>854.0</ele><time>2026-05-03T08:41:24.755Z</time></trkpt><trkpt lat="44.8330726" lon="9.3039637"><ele>854.0</ele><time>2026-05-03T08:41:32.79Z</time></trkpt><trkpt lat="44.8330091" lon="9.3039256"><ele>854.0</ele><time>2026-05-03T08:41:42.75Z</time></trkpt><trkpt lat="44.8329392" lon="9.3039007"><ele>854.0</ele><time>2026-05-03T08:41:48.819Z</time></trkpt><trkpt lat="44.8328723" lon="9.3038668"><ele>854.0</ele><time>2026-05-03T08:41:54.811Z</time></trkpt><trkpt lat="44.8328181" lon="9.3038"><ele>854.0</ele><time>2026-05-03T08:42:02.82Z</time></trkpt><trkpt lat="44.8327669" lon="9.3037321"><ele>854.0</ele><time>2026-05-03T08:42:08.82Z</time></trkpt><trkpt lat="44.8327178" lon="9.3036755"><ele>854.0</ele><time>2026-05-03T08:42:13.819Z</time></trkpt><trkpt lat="44.8326549" lon="9.3036241"><ele>856.8571428571429</ele><time>2026-05-03T08:42:19.82Z</time></trkpt><trkpt lat="44.8325979" lon="9.3035826"><ele>859.7142857142858</ele><time>2026-05-03T08:42:25.82Z</time></trkpt><trkpt lat="44.83256" lon="9.3035095"><ele>862.5714285714286</ele><time>2026-05-03T08:42:31.777Z</time></trkpt><trkpt lat="44.8325104" lon="9.3034515"><ele>865.4285714285714</ele><time>2026-05-03T08:42:37.819Z</time></trkpt><trkpt lat="44.8324707" lon="9.3033711"><ele>868.2857142857143</ele><time>2026-05-03T08:42:45.82Z</time></trkpt><trkpt lat="44.832435" lon="9.3032866"><ele>871.1428571428571</ele><time>2026-05-03T08:42:52.735Z</time></trkpt><trkpt lat="44.8324199" lon="9.3031942"><ele>874.0</ele><time>2026-05-03T08:42:59.776Z</time></trkpt><trkpt lat="44.8323889" lon="9.3031103"><ele>875.0</ele><time>2026-05-03T08:43:08.819Z</time></trkpt><trkpt lat="44.8323615" lon="9.3030286"><ele>876.0</ele><time>2026-05-03T08:43:17.82Z</time></trkpt><trkpt lat="44.8323355" lon="9.3029448"><ele>877.0</ele><time>2026-05-03T08:43:26.819Z</time></trkpt><trkpt lat="44.8322928" lon="9.302875"><ele>878.0</ele><time>2026-05-03T08:43:35.75Z</time></trkpt><trkpt lat="44.8322758" lon="9.3027885"><ele>879.0</ele><time>2026-05-03T08:43:41.827Z</time></trkpt><trkpt lat="44.8322527" lon="9.3026914"><ele>880.0</ele><time>2026-05-03T08:43:49.837Z</time></trkpt><trkpt lat="44.8322219" lon="9.3026076"><ele>881.0</ele><time>2026-05-03T08:43:56.816Z</time></trkpt><trkpt lat="44.8321856" lon="9.3025336"><ele>881.0</ele><time>2026-05-03T08:44:02.836Z</time></trkpt><trkpt lat="44.8321351" lon="9.3024715"><ele>881.0</ele><time>2026-05-03T08:44:10.835Z</time></trkpt><trkpt lat="44.8320863" lon="9.3024074"><ele>881.0</ele><time>2026-05-03T08:44:17.82Z</time></trkpt><trkpt lat="44.8320376" lon="9.3023344"><ele>881.0</ele><time>2026-05-03T08:44:23.844Z</time></trkpt><trkpt lat="44.8319744" lon="9.3022942"><ele>881.0</ele><time>2026-05-03T08:44:29.82Z</time></trkpt><trkpt lat="44.8319378" lon="9.3022209"><ele>881.0</ele><time>2026-05-03T08:44:34.735Z</time></trkpt><trkpt lat="44.8319106" lon="9.3021336"><ele>881.0</ele><time>2026-05-03T08:44:40.819Z</time></trkpt><trkpt lat="44.8318559" lon="9.30206"><ele>881.0</ele><time>2026-05-03T08:44:45.796Z</time></trkpt><trkpt lat="44.83182" lon="9.3019853"><ele>881.0</ele><time>2026-05-03T08:44:50.837Z</time></trkpt><trkpt lat="44.8317811" lon="9.3019023"><ele>881.0</ele><time>2026-05-03T08:44:56.82Z</time></trkpt><trkpt lat="44.8317398" lon="9.3018322"><ele>881.0</ele><time>2026-05-03T08:45:05.19Z</time></trkpt><trkpt lat="44.8316864" lon="9.301775"><ele>881.0</ele><time>2026-05-03T08:45:13.819Z</time></trkpt><trkpt lat="44.8316327" lon="9.3017054"><ele>881.0</ele><time>2026-05-03T08:45:20.835Z</time></trkpt><trkpt lat="44.831586" lon="9.3016433"><ele>881.0</ele><time>2026-05-03T08:45:30.82Z</time></trkpt><trkpt lat="44.8315525" lon="9.3015664"><ele>883.7142857142857</ele><time>2026-05-03T08:46:06.819Z</time></trkpt><trkpt lat="44.8314958" lon="9.3014925"><ele>886.4285714285716</ele><time>2026-05-03T08:47:42.819Z</time></trkpt><trkpt lat="44.8314676" lon="9.3014083"><ele>889.1428571428572</ele><time>2026-05-03T08:47:46.82Z</time></trkpt><trkpt lat="44.8314301" lon="9.3013184"><ele>891.8571428571429</ele><time>2026-05-03T08:47:51.844Z</time></trkpt><trkpt lat="44.8313996" lon="9.3012337"><ele>894.5714285714287</ele><time>2026-05-03T08:47:57.819Z</time></trkpt><trkpt lat="44.8313645" lon="9.3011469"><ele>897.2857142857144</ele><time>2026-05-03T08:48:03.756Z</time></trkpt><trkpt lat="44.8313168" lon="9.3010659"><ele>900.0000000000001</ele><time>2026-05-03T08:48:08.82Z</time></trkpt><trkpt lat="44.8312686" lon="9.300988"><ele>900.1428571428573</ele><time>2026-05-03T08:48:14.828Z</time></trkpt><trkpt lat="44.8312323" lon="9.300912"><ele>900.2857142857143</ele><time>2026-05-03T08:48:20.736Z</time></trkpt><trkpt lat="44.8311853" lon="9.300833"><ele>900.4285714285716</ele><time>2026-05-03T08:48:26.788Z</time></trkpt><trkpt lat="44.8311359" lon="9.3007596"><ele>900.5714285714287</ele><time>2026-05-03T08:48:33.819Z</time></trkpt><trkpt lat="44.8310912" lon="9.3006908"><ele>900.7142857142858</ele><time>2026-05-03T08:48:39.735Z</time></trkpt><trkpt lat="44.8310511" lon="9.3006156"><ele>900.8571428571429</ele><time>2026-05-03T08:48:44.82Z</time></trkpt><trkpt lat="44.8310302" lon="9.3005306"><ele>901.0</ele><time>2026-05-03T08:48:49.772Z</time></trkpt><trkpt lat="44.8309981" lon="9.3004311"><ele>903.0</ele><time>2026-05-03T08:48:55.756Z</time></trkpt><trkpt lat="44.8309726" lon="9.300342"><ele>905.0000000000001</ele><time>2026-05-03T08:49:01.836Z</time></trkpt><trkpt lat="44.830946" lon="9.3002434"><ele>907.0</ele><time>2026-05-03T08:49:08.795Z</time></trkpt><trkpt lat="44.8309189" lon="9.3001486"><ele>909.0</ele><time>2026-05-03T08:49:14.836Z</time></trkpt><trkpt lat="44.8309084" lon="9.3000578"><ele>911.0000000000001</ele><time>2026-05-03T08:49:19.724Z</time></trkpt><trkpt lat="44.8309027" lon="9.2999677"><ele>913.0</ele><time>2026-05-03T08:49:24.835Z</time></trkpt><trkpt lat="44.8309168" lon="9.2998689"><ele>915.0</ele><time>2026-05-03T08:49:30.796Z</time></trkpt><trkpt lat="44.830933" lon="9.2997746"><ele>915.5714285714287</ele><time>2026-05-03T08:49:36.82Z</time></trkpt><trkpt lat="44.8309506" lon="9.2996756"><ele>916.1428571428572</ele><time>2026-05-03T08:49:41.82Z</time></trkpt><trkpt lat="44.8309491" lon="9.2995814"><ele>916.7142857142858</ele><time>2026-05-03T08:49:46.718Z</time></trkpt><trkpt lat="44.8309573" lon="9.2994782"><ele>917.2857142857142</ele><time>2026-05-03T08:49:52.82Z</time></trkpt><trkpt lat="44.830951" lon="9.2993764"><ele>917.8571428571428</ele><time>2026-05-03T08:49:58.827Z</time></trkpt><trkpt lat="44.830925" lon="9.2992812"><ele>918.4285714285713</ele><time>2026-05-03T08:50:04.775Z</time></trkpt><trkpt lat="44.8308944" lon="9.2991871"><ele>919.0</ele><time>2026-05-03T08:50:10.819Z</time></trkpt><trkpt lat="44.8308553" lon="9.2991122"><ele>919.0</ele><time>2026-05-03T08:50:15.756Z</time></trkpt><trkpt lat="44.8308022" lon="9.2990477"><ele>918.9999999999999</ele><time>2026-05-03T08:50:22.82Z</time></trkpt><trkpt lat="44.8307424" lon="9.2990065"><ele>919.0</ele><time>2026-05-03T08:50:30.819Z</time></trkpt><trkpt lat="44.8307055" lon="9.2989314"><ele>919.0</ele><time>2026-05-03T08:50:39.819Z</time></trkpt><trkpt lat="44.8306779" lon="9.2988442"><ele>918.9999999999999</ele><time>2026-05-03T08:50:47.819Z</time></trkpt><trkpt lat="44.8306362" lon="9.2987576"><ele>919.0</ele><time>2026-05-03T08:50:53.82Z</time></trkpt><trkpt lat="44.8305998" lon="9.2986764"><ele>919.0</ele><time>2026-05-03T08:50:59.839Z</time></trkpt><trkpt lat="44.8305773" lon="9.2985876"><ele>919.5714285714286</ele><time>2026-05-03T08:51:05.819Z</time></trkpt><trkpt lat="44.830548" lon="9.2985072"><ele>920.1428571428571</ele><time>2026-05-03T08:51:11.819Z</time></trkpt><trkpt lat="44.8305171" lon="9.2984187"><ele>920.7142857142857</ele><time>2026-05-03T08:51:18.819Z</time></trkpt><trkpt lat="44.8304932" lon="9.2983361"><ele>921.2857142857142</ele><time>2026-05-03T08:51:23.819Z</time></trkpt><trkpt lat="44.830472" lon="9.2982409"><ele>921.8571428571429</ele><time>2026-05-03T08:51:29.815Z</time></trkpt><trkpt lat="44.8304513" lon="9.298148"><ele>922.4285714285713</ele><time>2026-05-03T08:51:36.796Z</time></trkpt><trkpt lat="44.8304374" lon="9.2980574"><ele>923.0</ele><time>2026-05-03T08:51:42.827Z</time></trkpt><trkpt lat="44.8304104" lon="9.2979652"><ele>924.7142857142857</ele><time>2026-05-03T08:51:48.82Z</time></trkpt><trkpt lat="44.8303492" lon="9.2979131"><ele>926.4285714285716</ele><time>2026-05-03T08:51:54.82Z</time></trkpt><trkpt lat="44.8303002" lon="9.2978497"><ele>928.1428571428572</ele><time>2026-05-03T08:52:01.756Z</time></trkpt><trkpt lat="44.8302434" lon="9.2978068"><ele>929.8571428571429</ele><time>2026-05-03T08:52:08.838Z</time></trkpt><trkpt lat="44.8301823" lon="9.2977648"><ele>931.5714285714287</ele><time>2026-05-03T08:52:16.736Z</time></trkpt><trkpt lat="44.8301208" lon="9.2977421"><ele>933.2857142857144</ele><time>2026-05-03T08:52:25.82Z</time></trkpt><trkpt lat="44.8300615" lon="9.2976884"><ele>935.0000000000001</ele><time>2026-05-03T08:52:34.827Z</time></trkpt><trkpt lat="44.8300152" lon="9.2976223"><ele>936.857142857143</ele><time>2026-05-03T08:52:45.852Z</time></trkpt><trkpt lat="44.8299774" lon="9.297544"><ele>938.7142857142858</ele><time>2026-05-03T08:52:56.819Z</time></trkpt><trkpt lat="44.8299426" lon="9.2974685"><ele>940.5714285714286</ele><time>2026-05-03T08:53:04.819Z</time></trkpt><trkpt lat="44.829914" lon="9.2973864"><ele>942.4285714285714</ele><time>2026-05-03T08:53:11.819Z</time></trkpt><trkpt lat="44.8298971" lon="9.2972994"><ele>944.2857142857142</ele><time>2026-05-03T08:53:16.844Z</time></trkpt><trkpt lat="44.8298903" lon="9.2972058"><ele>946.142857142857</ele><time>2026-05-03T08:53:22.819Z</time></trkpt><trkpt lat="44.8298659" lon="9.29712"><ele>947.9999999999999</ele><time>2026-05-03T08:53:28.819Z</time></trkpt><trkpt lat="44.8298397" lon="9.2970288"><ele>948.8571428571427</ele><time>2026-05-03T08:53:35.819Z</time></trkpt><trkpt lat="44.8298064" lon="9.2969447"><ele>949.7142857142857</ele><time>2026-05-03T08:53:41.82Z</time></trkpt><trkpt lat="44.8297702" lon="9.2968572"><ele>950.5714285714284</ele><time>2026-05-03T08:53:47.819Z</time></trkpt><trkpt lat="44.829735" lon="9.2967829"><ele>951.4285714285713</ele><time>2026-05-03T08:53:52.82Z</time></trkpt><trkpt lat="44.8297005" lon="9.2966905"><ele>952.2857142857142</ele><time>2026-05-03T08:53:59.736Z</time></trkpt><trkpt lat="44.8296914" lon="9.2965945"><ele>953.1428571428571</ele><time>2026-05-03T08:54:06.819Z</time></trkpt><trkpt lat="44.8296721" lon="9.2965055"><ele>954.0</ele><time>2026-05-03T08:54:12.774Z</time></trkpt><trkpt lat="44.8296616" lon="9.2964175"><ele>954.8571428571428</ele><time>2026-05-03T08:54:17.819Z</time></trkpt><trkpt lat="44.8296677" lon="9.2963278"><ele>955.7142857142856</ele><time>2026-05-03T08:54:22.779Z</time></trkpt><trkpt lat="44.8296645" lon="9.2962296"><ele>956.5714285714286</ele><time>2026-05-03T08:54:28.82Z</time></trkpt><trkpt lat="44.829668" lon="9.2961323"><ele>957.4285714285713</ele><time>2026-05-03T08:54:33.819Z</time></trkpt><trkpt lat="44.829646" lon="9.2960481"><ele>958.2857142857142</ele><time>2026-05-03T08:54:39.836Z</time></trkpt><trkpt lat="44.8296552" lon="9.2959601"><ele>959.1428571428571</ele><time>2026-05-03T08:54:45.835Z</time></trkpt><trkpt lat="44.8296352" lon="9.2958594"><ele>960.0</ele><time>2026-05-03T08:54:51.776Z</time></trkpt><trkpt lat="44.8296112" lon="9.2957589"><ele>960.0</ele><time>2026-05-03T08:54:57.827Z</time></trkpt><trkpt lat="44.829594" lon="9.2956681"><ele>960.0</ele><time>2026-05-03T08:55:04.82Z</time></trkpt><trkpt lat="44.829567" lon="9.2955858"><ele>960.0</ele><time>2026-05-03T08:55:10.827Z</time></trkpt><trkpt lat="44.8295255" lon="9.2955118"><ele>960.0</ele><time>2026-05-03T08:55:17.819Z</time></trkpt><trkpt lat="44.8294802" lon="9.2954446"><ele>960.0</ele><time>2026-05-03T08:55:24.764Z</time></trkpt><trkpt lat="44.829431" lon="9.2953806"><ele>960.0</ele><time>2026-05-03T08:55:32.772Z</time></trkpt><trkpt lat="44.8293878" lon="9.2953052"><ele>960.0</ele><time>2026-05-03T08:55:39.867Z</time></trkpt><trkpt lat="44.8293531" lon="9.2952239"><ele>961.1428571428571</ele><time>2026-05-03T08:55:48.796Z</time></trkpt><trkpt lat="44.8293366" lon="9.2951337"><ele>962.2857142857142</ele><time>2026-05-03T08:55:55.756Z</time></trkpt><trkpt lat="44.8292938" lon="9.2950461"><ele>963.4285714285713</ele><time>2026-05-03T08:56:03.82Z</time></trkpt><trkpt lat="44.8292779" lon="9.294956"><ele>964.5714285714286</ele><time>2026-05-03T08:56:11.82Z</time></trkpt><trkpt lat="44.8292411" lon="9.2948694"><ele>965.7142857142856</ele><time>2026-05-03T08:56:19.819Z</time></trkpt><trkpt lat="44.8291907" lon="9.2947997"><ele>966.8571428571428</ele><time>2026-05-03T08:56:25.819Z</time></trkpt><trkpt lat="44.8291379" lon="9.2947362"><ele>968.0</ele><time>2026-05-03T08:56:31.843Z</time></trkpt><trkpt lat="44.8290809" lon="9.2946877"><ele>971.2857142857142</ele><time>2026-05-03T08:56:40.819Z</time></trkpt><trkpt lat="44.8290212" lon="9.2946591"><ele>974.5714285714284</ele><time>2026-05-03T08:56:48.776Z</time></trkpt><trkpt lat="44.8289576" lon="9.2946222"><ele>977.8571428571429</ele><time>2026-05-03T08:56:58.82Z</time></trkpt><trkpt lat="44.8289003" lon="9.2945742"><ele>981.1428571428571</ele><time>2026-05-03T08:57:06.819Z</time></trkpt><trkpt lat="44.8288398" lon="9.2945195"><ele>984.4285714285714</ele><time>2026-05-03T08:57:13.82Z</time></trkpt><trkpt lat="44.8287832" lon="9.2944638"><ele>987.7142857142858</ele><time>2026-05-03T08:57:22.82Z</time></trkpt><trkpt lat="44.8287404" lon="9.2943922"><ele>991.0000000000001</ele><time>2026-05-03T08:57:30.819Z</time></trkpt><trkpt lat="44.8286798" lon="9.2943411"><ele>991.0000000000001</ele><time>2026-05-03T08:57:38.82Z</time></trkpt><trkpt lat="44.8286326" lon="9.2942787"><ele>991.0</ele><time>2026-05-03T08:57:45.776Z</time></trkpt><trkpt lat="44.8285874" lon="9.2942131"><ele>991.0000000000001</ele><time>2026-05-03T08:57:51.82Z</time></trkpt><trkpt lat="44.828548" lon="9.2941352"><ele>991.0000000000001</ele><time>2026-05-03T08:57:58.819Z</time></trkpt><trkpt lat="44.8285308" lon="9.294045"><ele>991.0</ele><time>2026-05-03T08:58:08.771Z</time></trkpt><trkpt lat="44.8284882" lon="9.2939047"><ele>991.0000000000001</ele><time>2026-05-03T09:01:09.867Z</time></trkpt><trkpt lat="44.8284392" lon="9.293823"><ele>991.0000000000001</ele><time>2026-05-03T09:01:14.835Z</time></trkpt><trkpt lat="44.8283943" lon="9.2937467"><ele>994.4285714285716</ele><time>2026-05-03T09:01:20.82Z</time></trkpt><trkpt lat="44.8283576" lon="9.2936727"><ele>997.8571428571429</ele><time>2026-05-03T09:01:26.819Z</time></trkpt><trkpt lat="44.8283127" lon="9.2936049"><ele>1001.2857142857143</ele><time>2026-05-03T09:01:33.819Z</time></trkpt><trkpt lat="44.8282617" lon="9.2935423"><ele>1004.7142857142858</ele><time>2026-05-03T09:01:40.835Z</time></trkpt><trkpt lat="44.8282195" lon="9.2934712"><ele>1008.1428571428571</ele><time>2026-05-03T09:01:49.819Z</time></trkpt><trkpt lat="44.8281807" lon="9.2933935"><ele>1011.5714285714286</ele><time>2026-05-03T09:01:55.82Z</time></trkpt><trkpt lat="44.8281451" lon="9.2933014"><ele>1015.0</ele><time>2026-05-03T09:02:02.798Z</time></trkpt><trkpt lat="44.8281122" lon="9.293217"><ele>1015.0</ele><time>2026-05-03T09:02:10.756Z</time></trkpt><trkpt lat="44.8280583" lon="9.2931608"><ele>1015.0</ele><time>2026-05-03T09:02:17.82Z</time></trkpt><trkpt lat="44.828014" lon="9.2930948"><ele>1015.0</ele><time>2026-05-03T09:02:24.827Z</time></trkpt><trkpt lat="44.8279703" lon="9.2930301"><ele>1015.0</ele><time>2026-05-03T09:02:31.819Z</time></trkpt><trkpt lat="44.827905" lon="9.2930004"><ele>1015.0</ele><time>2026-05-03T09:02:38.82Z</time></trkpt><trkpt lat="44.8278335" lon="9.2929735"><ele>1015.0</ele><time>2026-05-03T09:02:44.819Z</time></trkpt><trkpt lat="44.8277665" lon="9.2929622"><ele>1015.0</ele><time>2026-05-03T09:02:51.865Z</time></trkpt><trkpt lat="44.8277076" lon="9.2929286"><ele>1016.0</ele><time>2026-05-03T09:02:58.835Z</time></trkpt><trkpt lat="44.827653" lon="9.2928841"><ele>1017.0</ele><time>2026-05-03T09:03:03.826Z</time></trkpt><trkpt lat="44.8276024" lon="9.2928224"><ele>1018.0</ele><time>2026-05-03T09:03:11.757Z</time></trkpt><trkpt lat="44.8275669" lon="9.2927434"><ele>1019.0</ele><time>2026-05-03T09:03:18.819Z</time></trkpt><trkpt lat="44.8275291" lon="9.2926642"><ele>1020.0</ele><time>2026-05-03T09:03:26.82Z</time></trkpt><trkpt lat="44.8274988" lon="9.292578"><ele>1021.0</ele><time>2026-05-03T09:03:33.819Z</time></trkpt><trkpt lat="44.8274525" lon="9.2925046"><ele>1022.0</ele><time>2026-05-03T09:03:41.819Z</time></trkpt><trkpt lat="44.8274082" lon="9.2924335"><ele>1024.0</ele><time>2026-05-03T09:03:49.82Z</time></trkpt><trkpt lat="44.8273663" lon="9.2923646"><ele>1026.0</ele><time>2026-05-03T09:03:55.826Z</time></trkpt><trkpt lat="44.8273339" lon="9.2922868"><ele>1028.0</ele><time>2026-05-03T09:04:01.819Z</time></trkpt><trkpt lat="44.8273092" lon="9.2922025"><ele>1030.0</ele><time>2026-05-03T09:04:08.827Z</time></trkpt><trkpt lat="44.8272905" lon="9.2921145"><ele>1032.0</ele><time>2026-05-03T09:04:17.819Z</time></trkpt><trkpt lat="44.8272807" lon="9.2920215"><ele>1034.0</ele><time>2026-05-03T09:04:23.837Z</time></trkpt><trkpt lat="44.8272759" lon="9.2919222"><ele>1036.0</ele><time>2026-05-03T09:04:30.777Z</time></trkpt><trkpt lat="44.8272807" lon="9.2918305"><ele>1037.4285714285713</ele><time>2026-05-03T09:04:37.842Z</time></trkpt><trkpt lat="44.8272922" lon="9.291741"><ele>1038.857142857143</ele><time>2026-05-03T09:04:43.82Z</time></trkpt><trkpt lat="44.8272724" lon="9.2916497"><ele>1040.2857142857142</ele><time>2026-05-03T09:04:48.819Z</time></trkpt><trkpt lat="44.8272551" lon="9.2915532"><ele>1041.7142857142858</ele><time>2026-05-03T09:04:56.82Z</time></trkpt><trkpt lat="44.8272488" lon="9.2914609"><ele>1043.142857142857</ele><time>2026-05-03T09:05:02.82Z</time></trkpt><trkpt lat="44.8272563" lon="9.2913644"><ele>1044.5714285714284</ele><time>2026-05-03T09:05:08.834Z</time></trkpt><trkpt lat="44.8272268" lon="9.2912833"><ele>1046.0</ele><time>2026-05-03T09:05:14.756Z</time></trkpt><trkpt lat="44.82719" lon="9.2912075"><ele>1047.2857142857142</ele><time>2026-05-03T09:05:20.757Z</time></trkpt><trkpt lat="44.8271343" lon="9.2911468"><ele>1048.5714285714284</ele><time>2026-05-03T09:05:26.827Z</time></trkpt><trkpt lat="44.8270871" lon="9.2910655"><ele>1049.857142857143</ele><time>2026-05-03T09:05:33.756Z</time></trkpt><trkpt lat="44.8270572" lon="9.2909794"><ele>1051.142857142857</ele><time>2026-05-03T09:05:39.817Z</time></trkpt><trkpt lat="44.8270068" lon="9.2909006"><ele>1052.4285714285716</ele><time>2026-05-03T09:05:50.776Z</time></trkpt><trkpt lat="44.8269532" lon="9.2908428"><ele>1053.7142857142858</ele><time>2026-05-03T09:05:57.82Z</time></trkpt><trkpt lat="44.8268985" lon="9.2907899"><ele>1055.0</ele><time>2026-05-03T09:06:07.803Z</time></trkpt><trkpt lat="44.8268541" lon="9.2907128"><ele>1055.0</ele><time>2026-05-03T09:06:21.837Z</time></trkpt><trkpt lat="44.8268303" lon="9.2906198"><ele>1055.0</ele><time>2026-05-03T09:06:29.746Z</time></trkpt><trkpt lat="44.8268037" lon="9.290526"><ele>1055.0</ele><time>2026-05-03T09:06:36.818Z</time></trkpt><trkpt lat="44.8267956" lon="9.2904367"><ele>1055.0</ele><time>2026-05-03T09:06:42.82Z</time></trkpt><trkpt lat="44.8267412" lon="9.2903778"><ele>1055.0</ele><time>2026-05-03T09:06:51.805Z</time></trkpt><trkpt lat="44.8266749" lon="9.2903625"><ele>1055.0</ele><time>2026-05-03T09:06:57.705Z</time></trkpt><trkpt lat="44.8266084" lon="9.290361"><ele>1055.0</ele><time>2026-05-03T09:07:04.794Z</time></trkpt><trkpt lat="44.8265481" lon="9.2903141"><ele>1059.7142857142858</ele><time>2026-05-03T09:07:12.82Z</time></trkpt><trkpt lat="44.8265532" lon="9.2902238"><ele>1064.4285714285716</ele><time>2026-05-03T09:07:21.82Z</time></trkpt><trkpt lat="44.8265841" lon="9.2901463"><ele>1069.142857142857</ele><time>2026-05-03T09:07:30.819Z</time></trkpt><trkpt lat="44.8266045" lon="9.2900565"><ele>1073.857142857143</ele><time>2026-05-03T09:07:42.819Z</time></trkpt><trkpt lat="44.8266178" lon="9.2899653"><ele>1078.5714285714284</ele><time>2026-05-03T09:07:51.82Z</time></trkpt><trkpt lat="44.8265898" lon="9.2898757"><ele>1083.2857142857142</ele><time>2026-05-03T09:08:03.819Z</time></trkpt><trkpt lat="44.8265886" lon="9.2897854"><ele>1088.0</ele><time>2026-05-03T09:08:09.82Z</time></trkpt><trkpt lat="44.8265672" lon="9.2896968"><ele>1089.9999999999998</ele><time>2026-05-03T09:08:16.763Z</time></trkpt><trkpt lat="44.8265203" lon="9.2896209"><ele>1092.0</ele><time>2026-05-03T09:08:21.819Z</time></trkpt><trkpt lat="44.826464" lon="9.2895703"><ele>1094.0</ele><time>2026-05-03T09:08:26.82Z</time></trkpt><trkpt lat="44.8264071" lon="9.2895305"><ele>1096.0</ele><time>2026-05-03T09:08:33.824Z</time></trkpt><trkpt lat="44.8263459" lon="9.2894846"><ele>1098.0</ele><time>2026-05-03T09:08:41.762Z</time></trkpt><trkpt lat="44.8263101" lon="9.2894033"><ele>1099.9999999999998</ele><time>2026-05-03T09:08:49.865Z</time></trkpt><trkpt lat="44.8262937" lon="9.2892982"><ele>1102.0</ele><time>2026-05-03T09:08:56.819Z</time></trkpt><trkpt lat="44.8262595" lon="9.2892219"><ele>1101.9999999999998</ele><time>2026-05-03T09:09:04.722Z</time></trkpt><trkpt lat="44.8261969" lon="9.2891727"><ele>1102.0</ele><time>2026-05-03T09:09:11.842Z</time></trkpt><trkpt lat="44.8261457" lon="9.2891043"><ele>1102.0</ele><time>2026-05-03T09:09:20.827Z</time></trkpt><trkpt lat="44.8260966" lon="9.2890423"><ele>1102.0</ele><time>2026-05-03T09:09:27.82Z</time></trkpt><trkpt lat="44.8260814" lon="9.2889523"><ele>1102.0</ele><time>2026-05-03T09:09:36.819Z</time></trkpt><trkpt lat="44.8260599" lon="9.288838"><ele>1101.9999999999998</ele><time>2026-05-03T09:09:51.818Z</time></trkpt><trkpt lat="44.8260407" lon="9.2887503"><ele>1102.0</ele><time>2026-05-03T09:10:01.685Z</time></trkpt><trkpt lat="44.8260661" lon="9.2886667"><ele>1105.142857142857</ele><time>2026-05-03T09:10:11.786Z</time></trkpt><trkpt lat="44.8260859" lon="9.2885805"><ele>1108.2857142857142</ele><time>2026-05-03T09:10:20.731Z</time></trkpt><trkpt lat="44.8261218" lon="9.2884903"><ele>1111.4285714285716</ele><time>2026-05-03T09:10:29.82Z</time></trkpt><trkpt lat="44.8261457" lon="9.2884052"><ele>1114.5714285714284</ele><time>2026-05-03T09:10:36.744Z</time></trkpt><trkpt lat="44.8261786" lon="9.2883095"><ele>1117.7142857142858</ele><time>2026-05-03T09:10:43.82Z</time></trkpt><trkpt lat="44.8262101" lon="9.2882199"><ele>1120.857142857143</ele><time>2026-05-03T09:10:50.82Z</time></trkpt><trkpt lat="44.8262194" lon="9.2881226"><ele>1124.0</ele><time>2026-05-03T09:10:57.754Z</time></trkpt><trkpt lat="44.8262157" lon="9.2880242"><ele>1128.1666666666667</ele><time>2026-05-03T09:11:05.819Z</time></trkpt><trkpt lat="44.8262155" lon="9.287928"><ele>1132.3333333333335</ele><time>2026-05-03T09:11:15.819Z</time></trkpt><trkpt lat="44.8262039" lon="9.2878386"><ele>1136.5</ele><time>2026-05-03T09:11:24.82Z</time></trkpt><trkpt lat="44.8261925" lon="9.2877459"><ele>1140.6666666666667</ele><time>2026-05-03T09:11:34.785Z</time></trkpt><trkpt lat="44.8261961" lon="9.2875757"><ele>1144.8333333333333</ele><time>2026-05-03T09:11:54.746Z</time></trkpt><trkpt lat="44.8261705" lon="9.287493"><ele>1149.0</ele><time>2026-05-03T09:12:04.835Z</time></trkpt><trkpt lat="44.8261522" lon="9.287404"><ele>1149.0</ele><time>2026-05-03T09:12:13.779Z</time></trkpt><trkpt lat="44.8261605" lon="9.2873154"><ele>1149.0</ele><time>2026-05-03T09:12:23.82Z</time></trkpt><trkpt lat="44.8261727" lon="9.2872277"><ele>1149.0</ele><time>2026-05-03T09:12:35.827Z</time></trkpt><trkpt lat="44.8261939" lon="9.2871393"><ele>1149.0</ele><time>2026-05-03T09:12:44.819Z</time></trkpt><trkpt lat="44.8262348" lon="9.2870622"><ele>1149.0</ele><time>2026-05-03T09:12:52.764Z</time></trkpt><trkpt lat="44.8262485" lon="9.2869726"><ele>1149.0</ele><time>2026-05-03T09:12:59.85Z</time></trkpt><trkpt lat="44.8262355" lon="9.2868836"><ele>1149.0</ele><time>2026-05-03T09:13:05.819Z</time></trkpt><trkpt lat="44.8262084" lon="9.2867955"><ele>1151.2857142857142</ele><time>2026-05-03T09:13:11.82Z</time></trkpt><trkpt lat="44.8261536" lon="9.286733"><ele>1153.5714285714284</ele><time>2026-05-03T09:13:16.82Z</time></trkpt><trkpt lat="44.8260969" lon="9.2866831"><ele>1155.8571428571427</ele><time>2026-05-03T09:13:23.77Z</time></trkpt><trkpt lat="44.8260304" lon="9.286697"><ele>1158.142857142857</ele><time>2026-05-03T09:13:29.724Z</time></trkpt><trkpt lat="44.8259634" lon="9.2867103"><ele>1160.4285714285713</ele><time>2026-05-03T09:13:34.786Z</time></trkpt><trkpt lat="44.8259127" lon="9.2867806"><ele>1162.7142857142856</ele><time>2026-05-03T09:13:43.739Z</time></trkpt><trkpt lat="44.8258779" lon="9.2868599"><ele>1165.0</ele><time>2026-05-03T09:13:50.484Z</time></trkpt><trkpt lat="44.8258419" lon="9.2869428"><ele>1165.4285714285713</ele><time>2026-05-03T09:13:55.802Z</time></trkpt><trkpt lat="44.8257988" lon="9.2870239"><ele>1165.857142857143</ele><time>2026-05-03T09:14:00.741Z</time></trkpt><trkpt lat="44.8257633" lon="9.2871027"><ele>1166.2857142857142</ele><time>2026-05-03T09:14:05.82Z</time></trkpt><trkpt lat="44.8257313" lon="9.2871835"><ele>1166.7142857142858</ele><time>2026-05-03T09:14:10.82Z</time></trkpt><trkpt lat="44.8256848" lon="9.2872559"><ele>1167.142857142857</ele><time>2026-05-03T09:14:15.819Z</time></trkpt><trkpt lat="44.8256226" lon="9.2872932"><ele>1167.5714285714284</ele><time>2026-05-03T09:14:23.805Z</time></trkpt><trkpt lat="44.82556" lon="9.2873282"><ele>1168.0</ele><time>2026-05-03T09:14:29.82Z</time></trkpt><trkpt lat="44.8254955" lon="9.2873924"><ele>1166.4285714285713</ele><time>2026-05-03T09:14:34.762Z</time></trkpt><trkpt lat="44.8254557" lon="9.2874704"><ele>1164.857142857143</ele><time>2026-05-03T09:14:41.819Z</time></trkpt><trkpt lat="44.8254229" lon="9.2875478"><ele>1163.2857142857142</ele><time>2026-05-03T09:14:48.842Z</time></trkpt><trkpt lat="44.8253822" lon="9.2876345"><ele>1161.7142857142858</ele><time>2026-05-03T09:14:54.825Z</time></trkpt><trkpt lat="44.8253534" lon="9.2877261"><ele>1160.142857142857</ele><time>2026-05-03T09:15:01.843Z</time></trkpt><trkpt lat="44.8253209" lon="9.2878102"><ele>1158.5714285714284</ele><time>2026-05-03T09:15:06.834Z</time></trkpt><trkpt lat="44.8252777" lon="9.2878811"><ele>1157.0</ele><time>2026-05-03T09:15:11.827Z</time></trkpt><trkpt lat="44.8252341" lon="9.2879686"><ele>1157.0</ele><time>2026-05-03T09:15:16.805Z</time></trkpt><trkpt lat="44.8251976" lon="9.2880463"><ele>1157.0</ele><time>2026-05-03T09:15:21.82Z</time></trkpt><trkpt lat="44.8251645" lon="9.2881299"><ele>1157.0</ele><time>2026-05-03T09:15:26.803Z</time></trkpt><trkpt lat="44.8251243" lon="9.2882043"><ele>1157.0</ele><time>2026-05-03T09:15:32.802Z</time></trkpt><trkpt lat="44.8250715" lon="9.2882573"><ele>1157.0</ele><time>2026-05-03T09:15:40.82Z</time></trkpt><trkpt lat="44.825004" lon="9.2882899"><ele>1157.0</ele><time>2026-05-03T09:15:46.82Z</time></trkpt><trkpt lat="44.8249347" lon="9.28831"><ele>1157.0</ele><time>2026-05-03T09:15:51.82Z</time></trkpt><trkpt lat="44.8248713" lon="9.2883392"><ele>1158.5714285714284</ele><time>2026-05-03T09:15:59.82Z</time></trkpt><trkpt lat="44.8248225" lon="9.2883973"><ele>1160.142857142857</ele><time>2026-05-03T09:16:05.82Z</time></trkpt><trkpt lat="44.8247751" lon="9.2884615"><ele>1161.7142857142858</ele><time>2026-05-03T09:16:09.819Z</time></trkpt><trkpt lat="44.8247391" lon="9.2885344"><ele>1163.2857142857142</ele><time>2026-05-03T09:16:13.782Z</time></trkpt><trkpt lat="44.8246832" lon="9.2886118"><ele>1164.857142857143</ele><time>2026-05-03T09:16:18.82Z</time></trkpt><trkpt lat="44.8246453" lon="9.2886978"><ele>1166.4285714285713</ele><time>2026-05-03T09:16:23.819Z</time></trkpt><trkpt lat="44.8246129" lon="9.2887932"><ele>1168.0</ele><time>2026-05-03T09:16:28.819Z</time></trkpt><trkpt lat="44.8245915" lon="9.2888767"><ele>1165.0</ele><time>2026-05-03T09:16:33.785Z</time></trkpt><trkpt lat="44.8245635" lon="9.288958"><ele>1162.0</ele><time>2026-05-03T09:16:39.82Z</time></trkpt><trkpt lat="44.8245304" lon="9.2890339"><ele>1159.0</ele><time>2026-05-03T09:16:44.819Z</time></trkpt><trkpt lat="44.8244931" lon="9.289122"><ele>1156.0</ele><time>2026-05-03T09:16:49.794Z</time></trkpt><trkpt lat="44.8244775" lon="9.2892258"><ele>1153.0</ele><time>2026-05-03T09:16:55.826Z</time></trkpt><trkpt lat="44.8244926" lon="9.289325"><ele>1150.0</ele><time>2026-05-03T09:17:00.819Z</time></trkpt><trkpt lat="44.8244821" lon="9.2894134"><ele>1147.0</ele><time>2026-05-03T09:17:05.819Z</time></trkpt><trkpt lat="44.8244546" lon="9.2894984"><ele>1147.0</ele><time>2026-05-03T09:17:11.863Z</time></trkpt><trkpt lat="44.8244308" lon="9.2895921"><ele>1147.0</ele><time>2026-05-03T09:17:16.73Z</time></trkpt><trkpt lat="44.8244001" lon="9.2896899"><ele>1147.0</ele><time>2026-05-03T09:17:22.825Z</time></trkpt><trkpt lat="44.8243823" lon="9.2898069"><ele>1147.0</ele><time>2026-05-03T09:17:27.82Z</time></trkpt><trkpt lat="44.824356" lon="9.2899066"><ele>1147.0</ele><time>2026-05-03T09:17:32.82Z</time></trkpt><trkpt lat="44.8243193" lon="9.2899797"><ele>1147.0</ele><time>2026-05-03T09:17:36.819Z</time></trkpt><trkpt lat="44.8242905" lon="9.2900745"><ele>1147.0</ele><time>2026-05-03T09:17:43.782Z</time></trkpt><trkpt lat="44.8242786" lon="9.2901725"><ele>1147.0</ele><time>2026-05-03T09:17:48.819Z</time></trkpt><trkpt lat="44.8242585" lon="9.2902708"><ele>1147.0</ele><time>2026-05-03T09:17:53.82Z</time></trkpt><trkpt lat="44.8242235" lon="9.2903519"><ele>1147.0</ele><time>2026-05-03T09:17:59.786Z</time></trkpt><trkpt lat="44.8241651" lon="9.2904079"><ele>1147.0</ele><time>2026-05-03T09:18:05.685Z</time></trkpt><trkpt lat="44.8240968" lon="9.2904629"><ele>1147.0</ele><time>2026-05-03T09:18:10.705Z</time></trkpt><trkpt lat="44.8240553" lon="9.2905445"><ele>1147.0</ele><time>2026-05-03T09:18:15.705Z</time></trkpt><trkpt lat="44.8240429" lon="9.2906348"><ele>1147.0</ele><time>2026-05-03T09:18:19.665Z</time></trkpt><trkpt lat="44.8240092" lon="9.2907201"><ele>1147.0</ele><time>2026-05-03T09:18:24.744Z</time></trkpt><trkpt lat="44.8239635" lon="9.2908053"><ele>1147.0</ele><time>2026-05-03T09:18:28.704Z</time></trkpt><trkpt lat="44.8239348" lon="9.2908957"><ele>1147.0</ele><time>2026-05-03T09:18:32.684Z</time></trkpt><trkpt lat="44.8239086" lon="9.2909835"><ele>1147.0</ele><time>2026-05-03T09:18:36.684Z</time></trkpt><trkpt lat="44.8238719" lon="9.291061"><ele>1147.0</ele><time>2026-05-03T09:18:40.605Z</time></trkpt><trkpt lat="44.8238383" lon="9.2911496"><ele>1147.0</ele><time>2026-05-03T09:18:45.625Z</time></trkpt><trkpt lat="44.8238164" lon="9.2912372"><ele>1147.0</ele><time>2026-05-03T09:18:50.866Z</time></trkpt><trkpt lat="44.8238082" lon="9.2913435"><ele>1145.7142857142858</ele><time>2026-05-03T09:18:55.739Z</time></trkpt><trkpt lat="44.8237608" lon="9.2914254"><ele>1144.4285714285716</ele><time>2026-05-03T09:19:01.819Z</time></trkpt><trkpt lat="44.8237063" lon="9.2914986"><ele>1143.1428571428573</ele><time>2026-05-03T09:19:07.819Z</time></trkpt><trkpt lat="44.8236744" lon="9.2915856"><ele>1141.857142857143</ele><time>2026-05-03T09:19:12.868Z</time></trkpt><trkpt lat="44.8236676" lon="9.2916752"><ele>1140.5714285714287</ele><time>2026-05-03T09:19:17.787Z</time></trkpt><trkpt lat="44.8236807" lon="9.2917712"><ele>1139.2857142857144</ele><time>2026-05-03T09:19:22.778Z</time></trkpt><trkpt lat="44.8236828" lon="9.2918633"><ele>1138.0</ele><time>2026-05-03T09:19:33.686Z</time></trkpt><trkpt lat="44.8236824" lon="9.2919602"><ele>1138.0000000000002</ele><time>2026-05-03T09:19:41.82Z</time></trkpt><trkpt lat="44.8236985" lon="9.2920474"><ele>1138.0</ele><time>2026-05-03T09:19:48.819Z</time></trkpt><trkpt lat="44.8237107" lon="9.2921394"><ele>1138.0</ele><time>2026-05-03T09:19:56.624Z</time></trkpt><trkpt lat="44.8237086" lon="9.2922294"><ele>1138.0</ele><time>2026-05-03T09:20:04.82Z</time></trkpt><trkpt lat="44.8236956" lon="9.2923197"><ele>1138.0</ele><time>2026-05-03T09:20:12.765Z</time></trkpt><trkpt lat="44.8236975" lon="9.2924218"><ele>1138.0000000000002</ele><time>2026-05-03T09:20:17.82Z</time></trkpt><trkpt lat="44.8236778" lon="9.2925099"><ele>1138.0</ele><time>2026-05-03T09:20:25.82Z</time></trkpt><trkpt lat="44.8236642" lon="9.2926008"><ele>1135.1428571428573</ele><time>2026-05-03T09:20:32.77Z</time></trkpt><trkpt lat="44.8236839" lon="9.2927089"><ele>1132.2857142857142</ele><time>2026-05-03T09:20:51.819Z</time></trkpt><trkpt lat="44.8237176" lon="9.2927874"><ele>1129.4285714285716</ele><time>2026-05-03T09:20:58.743Z</time></trkpt><trkpt lat="44.8237656" lon="9.2928696"><ele>1126.5714285714287</ele><time>2026-05-03T09:21:05.843Z</time></trkpt><trkpt lat="44.8237925" lon="9.2929657"><ele>1123.7142857142858</ele><time>2026-05-03T09:21:09.819Z</time></trkpt><trkpt lat="44.8238106" lon="9.2930603"><ele>1120.857142857143</ele><time>2026-05-03T09:21:14.819Z</time></trkpt><trkpt lat="44.8238218" lon="9.2931521"><ele>1118.0</ele><time>2026-05-03T09:21:21.754Z</time></trkpt><trkpt lat="44.8238002" lon="9.2932359"><ele>1115.5714285714287</ele><time>2026-05-03T09:21:31.864Z</time></trkpt><trkpt lat="44.8237577" lon="9.2933043"><ele>1113.1428571428573</ele><time>2026-05-03T09:21:38.82Z</time></trkpt><trkpt lat="44.8237372" lon="9.2933894"><ele>1110.7142857142858</ele><time>2026-05-03T09:21:44.824Z</time></trkpt><trkpt lat="44.8237509" lon="9.2934813"><ele>1108.2857142857142</ele><time>2026-05-03T09:21:50.866Z</time></trkpt><trkpt lat="44.8237693" lon="9.2935671"><ele>1105.8571428571427</ele><time>2026-05-03T09:21:58.603Z</time></trkpt><trkpt lat="44.8238051" lon="9.2936491"><ele>1103.4285714285713</ele><time>2026-05-03T09:22:02.403Z</time></trkpt><trkpt lat="44.82383" lon="9.2937363"><ele>1101.0</ele><time>2026-05-03T09:22:05.325Z</time></trkpt><trkpt lat="44.823825" lon="9.2938288"><ele>1101.0</ele><time>2026-05-03T09:22:09.145Z</time></trkpt><trkpt lat="44.8238307" lon="9.2939211"><ele>1101.0</ele><time>2026-05-03T09:22:15.283Z</time></trkpt><trkpt lat="44.8238383" lon="9.2940233"><ele>1101.0</ele><time>2026-05-03T09:22:20.784Z</time></trkpt><trkpt lat="44.8238457" lon="9.2941155"><ele>1101.0</ele><time>2026-05-03T09:22:28.624Z</time></trkpt><trkpt lat="44.8238513" lon="9.294222"><ele>1101.0</ele><time>2026-05-03T09:22:33.505Z</time></trkpt><trkpt lat="44.8238726" lon="9.2943116"><ele>1101.0</ele><time>2026-05-03T09:22:38.565Z</time></trkpt><trkpt lat="44.8238652" lon="9.2944012"><ele>1101.0</ele><time>2026-05-03T09:22:44.546Z</time></trkpt><trkpt lat="44.8238748" lon="9.2945041"><ele>1099.2857142857142</ele><time>2026-05-03T09:22:49.245Z</time></trkpt><trkpt lat="44.8239217" lon="9.29458"><ele>1097.5714285714284</ele><time>2026-05-03T09:22:54.565Z</time></trkpt><trkpt lat="44.8239752" lon="9.2946458"><ele>1095.857142857143</ele><time>2026-05-03T09:23:00.664Z</time></trkpt><trkpt lat="44.8240354" lon="9.2947047"><ele>1094.142857142857</ele><time>2026-05-03T09:23:04.819Z</time></trkpt><trkpt lat="44.8240794" lon="9.294788"><ele>1092.4285714285716</ele><time>2026-05-03T09:23:09.722Z</time></trkpt><trkpt lat="44.8240764" lon="9.2948812"><ele>1090.7142857142858</ele><time>2026-05-03T09:23:14.665Z</time></trkpt><trkpt lat="44.8240511" lon="9.2949638"><ele>1089.0</ele><time>2026-05-03T09:23:20.834Z</time></trkpt><trkpt lat="44.8240175" lon="9.2950459"><ele>1087.1428571428573</ele><time>2026-05-03T09:23:26.819Z</time></trkpt><trkpt lat="44.8240261" lon="9.2951411"><ele>1085.2857142857142</ele><time>2026-05-03T09:23:31.819Z</time></trkpt><trkpt lat="44.8240499" lon="9.2952288"><ele>1083.4285714285716</ele><time>2026-05-03T09:23:38.665Z</time></trkpt><trkpt lat="44.8240911" lon="9.2953037"><ele>1081.5714285714287</ele><time>2026-05-03T09:23:45.545Z</time></trkpt><trkpt lat="44.8241364" lon="9.2953658"><ele>1079.7142857142858</ele><time>2026-05-03T09:23:50.525Z</time></trkpt><trkpt lat="44.8241925" lon="9.2954323"><ele>1077.857142857143</ele><time>2026-05-03T09:23:56.624Z</time></trkpt><trkpt lat="44.824206" lon="9.2955294"><ele>1076.0</ele><time>2026-05-03T09:24:27.811Z</time></trkpt><trkpt lat="44.8242045" lon="9.2956278"><ele>1073.857142857143</ele><time>2026-05-03T09:24:33.868Z</time></trkpt><trkpt lat="44.8242297" lon="9.2957229"><ele>1071.7142857142858</ele><time>2026-05-03T09:24:39.819Z</time></trkpt><trkpt lat="44.8242479" lon="9.2958267"><ele>1069.5714285714287</ele><time>2026-05-03T09:24:50.865Z</time></trkpt><trkpt lat="44.8242218" lon="9.2959147"><ele>1067.4285714285716</ele><time>2026-05-03T09:24:56.784Z</time></trkpt><trkpt lat="44.8242195" lon="9.2960072"><ele>1065.2857142857142</ele><time>2026-05-03T09:25:01.819Z</time></trkpt><trkpt lat="44.8242225" lon="9.296113"><ele>1063.1428571428573</ele><time>2026-05-03T09:25:06.819Z</time></trkpt><trkpt lat="44.8242056" lon="9.29621"><ele>1061.0</ele><time>2026-05-03T09:25:10.762Z</time></trkpt><trkpt lat="44.824214" lon="9.2963237"><ele>1060.1428571428573</ele><time>2026-05-03T09:25:15.819Z</time></trkpt><trkpt lat="44.8242184" lon="9.2964203"><ele>1059.2857142857142</ele><time>2026-05-03T09:25:20.746Z</time></trkpt><trkpt lat="44.8242305" lon="9.2965127"><ele>1058.4285714285716</ele><time>2026-05-03T09:25:24.819Z</time></trkpt><trkpt lat="44.8242439" lon="9.296608"><ele>1057.5714285714287</ele><time>2026-05-03T09:25:29.765Z</time></trkpt><trkpt lat="44.8242692" lon="9.2967077"><ele>1056.7142857142858</ele><time>2026-05-03T09:25:34.925Z</time></trkpt><trkpt lat="44.8242811" lon="9.2968069"><ele>1055.857142857143</ele><time>2026-05-03T09:25:42.82Z</time></trkpt><trkpt lat="44.8242855" lon="9.296896"><ele>1055.0</ele><time>2026-05-03T09:25:46.746Z</time></trkpt><trkpt lat="44.8243033" lon="9.2969878"><ele>1053.2857142857142</ele><time>2026-05-03T09:25:50.82Z</time></trkpt><trkpt lat="44.8243145" lon="9.2970869"><ele>1051.5714285714287</ele><time>2026-05-03T09:25:55.819Z</time></trkpt><trkpt lat="44.8243227" lon="9.2971784"><ele>1049.857142857143</ele><time>2026-05-03T09:26:00.82Z</time></trkpt><trkpt lat="44.8243482" lon="9.2972602"><ele>1048.142857142857</ele><time>2026-05-03T09:26:04.82Z</time></trkpt><trkpt lat="44.8243683" lon="9.297349"><ele>1046.4285714285716</ele><time>2026-05-03T09:26:08.819Z</time></trkpt><trkpt lat="44.8243826" lon="9.2974503"><ele>1044.7142857142858</ele><time>2026-05-03T09:26:14.827Z</time></trkpt><trkpt lat="44.8243897" lon="9.2975506"><ele>1043.0</ele><time>2026-05-03T09:26:20.663Z</time></trkpt><trkpt lat="44.8244142" lon="9.297646"><ele>1042.4285714285713</ele><time>2026-05-03T09:26:25.766Z</time></trkpt><trkpt lat="44.8244366" lon="9.2977472"><ele>1041.857142857143</ele><time>2026-05-03T09:26:31.778Z</time></trkpt><trkpt lat="44.8244534" lon="9.2978432"><ele>1041.2857142857142</ele><time>2026-05-03T09:26:38.704Z</time></trkpt><trkpt lat="44.8244825" lon="9.297942"><ele>1040.7142857142858</ele><time>2026-05-03T09:26:45.819Z</time></trkpt><trkpt lat="44.8244999" lon="9.2980337"><ele>1040.142857142857</ele><time>2026-05-03T09:26:50.819Z</time></trkpt><trkpt lat="44.8244978" lon="9.2981249"><ele>1039.5714285714284</ele><time>2026-05-03T09:26:55.825Z</time></trkpt><trkpt lat="44.8244951" lon="9.2982145"><ele>1039.0</ele><time>2026-05-03T09:27:00.794Z</time></trkpt><trkpt lat="44.8245086" lon="9.2983031"><ele>1038.5714285714284</ele><time>2026-05-03T09:27:08.82Z</time></trkpt><trkpt lat="44.8245146" lon="9.2983941"><ele>1038.142857142857</ele><time>2026-05-03T09:27:12.819Z</time></trkpt><trkpt lat="44.8245282" lon="9.2984867"><ele>1037.7142857142858</ele><time>2026-05-03T09:27:16.82Z</time></trkpt><trkpt lat="44.824528" lon="9.2985951"><ele>1037.2857142857142</ele><time>2026-05-03T09:27:21.819Z</time></trkpt><trkpt lat="44.8245311" lon="9.2986904"><ele>1036.857142857143</ele><time>2026-05-03T09:27:25.754Z</time></trkpt><trkpt lat="44.8245439" lon="9.2987819"><ele>1036.4285714285713</ele><time>2026-05-03T09:27:29.82Z</time></trkpt><trkpt lat="44.8245547" lon="9.2988752"><ele>1036.0</ele><time>2026-05-03T09:27:34.819Z</time></trkpt><trkpt lat="44.8245755" lon="9.2989608"><ele>1034.857142857143</ele><time>2026-05-03T09:27:41.865Z</time></trkpt><trkpt lat="44.8246041" lon="9.2990435"><ele>1033.7142857142858</ele><time>2026-05-03T09:27:48.842Z</time></trkpt><trkpt lat="44.8246363" lon="9.2991265"><ele>1032.5714285714284</ele><time>2026-05-03T09:27:53.834Z</time></trkpt><trkpt lat="44.8246676" lon="9.2992062"><ele>1031.4285714285716</ele><time>2026-05-03T09:27:57.819Z</time></trkpt><trkpt lat="44.8247044" lon="9.2992847"><ele>1030.2857142857142</ele><time>2026-05-03T09:28:03.819Z</time></trkpt><trkpt lat="44.8247222" lon="9.2993741"><ele>1029.142857142857</ele><time>2026-05-03T09:28:13.82Z</time></trkpt><trkpt lat="44.8247233" lon="9.299473"><ele>1028.0</ele><time>2026-05-03T09:28:22.744Z</time></trkpt><trkpt lat="44.8247028" lon="9.2995609"><ele>1028.0</ele><time>2026-05-03T09:28:29.819Z</time></trkpt><trkpt lat="44.8247052" lon="9.2997385"><ele>1028.0</ele><time>2026-05-03T09:29:19.738Z</time></trkpt><trkpt lat="44.8247187" lon="9.2998353"><ele>1028.0</ele><time>2026-05-03T09:29:35.684Z</time></trkpt><trkpt lat="44.8247224" lon="9.2999256"><ele>1028.0</ele><time>2026-05-03T09:29:41.819Z</time></trkpt><trkpt lat="44.8247461" lon="9.3000139"><ele>1028.0</ele><time>2026-05-03T09:29:48.82Z</time></trkpt><trkpt lat="44.82476" lon="9.3001066"><ele>1028.0</ele><time>2026-05-03T09:29:55.824Z</time></trkpt><trkpt lat="44.824759" lon="9.3002064"><ele>1026.142857142857</ele><time>2026-05-03T09:30:01.665Z</time></trkpt><trkpt lat="44.8247616" lon="9.3003025"><ele>1024.2857142857142</ele><time>2026-05-03T09:30:07.604Z</time></trkpt><trkpt lat="44.8248033" lon="9.300377"><ele>1022.4285714285714</ele><time>2026-05-03T09:30:13.485Z</time></trkpt><trkpt lat="44.8248443" lon="9.3004445"><ele>1020.5714285714286</ele><time>2026-05-03T09:30:18.264Z</time></trkpt><trkpt lat="44.8248857" lon="9.3005195"><ele>1018.7142857142858</ele><time>2026-05-03T09:30:22.504Z</time></trkpt><trkpt lat="44.8249125" lon="9.3006028"><ele>1016.8571428571429</ele><time>2026-05-03T09:30:26.424Z</time></trkpt><trkpt lat="44.8249602" lon="9.3006777"><ele>1015.0</ele><time>2026-05-03T09:30:31.811Z</time></trkpt><trkpt lat="44.8250255" lon="9.3007232"><ele>1013.2857142857142</ele><time>2026-05-03T09:30:36.802Z</time></trkpt><trkpt lat="44.8250883" lon="9.3007685"><ele>1011.5714285714286</ele><time>2026-05-03T09:30:41.825Z</time></trkpt><trkpt lat="44.8251523" lon="9.3008222"><ele>1009.8571428571429</ele><time>2026-05-03T09:30:48.82Z</time></trkpt><trkpt lat="44.8252029" lon="9.300876"><ele>1008.1428571428571</ele><time>2026-05-03T09:30:58.82Z</time></trkpt><trkpt lat="44.8252595" lon="9.3009422"><ele>1006.4285714285713</ele><time>2026-05-03T09:31:06.819Z</time></trkpt><trkpt lat="44.825319" lon="9.3010019"><ele>1004.7142857142857</ele><time>2026-05-03T09:31:12.82Z</time></trkpt><trkpt lat="44.8253659" lon="9.3010679"><ele>1003.0</ele><time>2026-05-03T09:31:17.82Z</time></trkpt><trkpt lat="44.8254524" lon="9.3010988"><ele>1000.7142857142857</ele><time>2026-05-03T09:31:38.71Z</time></trkpt><trkpt lat="44.825494" lon="9.3011783"><ele>998.4285714285713</ele><time>2026-05-03T09:31:45.82Z</time></trkpt><trkpt lat="44.8255451" lon="9.3012393"><ele>996.1428571428571</ele><time>2026-05-03T09:31:51.82Z</time></trkpt><trkpt lat="44.8255951" lon="9.3013195"><ele>993.8571428571429</ele><time>2026-05-03T09:31:56.82Z</time></trkpt><trkpt lat="44.8256321" lon="9.3013938"><ele>991.5714285714286</ele><time>2026-05-03T09:32:00.82Z</time></trkpt><trkpt lat="44.8256709" lon="9.3014779"><ele>989.2857142857142</ele><time>2026-05-03T09:32:05.826Z</time></trkpt><trkpt lat="44.8257199" lon="9.3015537"><ele>987.0</ele><time>2026-05-03T09:32:13.722Z</time></trkpt><trkpt lat="44.8257779" lon="9.3016202"><ele>986.7142857142858</ele><time>2026-05-03T09:32:18.826Z</time></trkpt><trkpt lat="44.8258289" lon="9.3016934"><ele>986.4285714285714</ele><time>2026-05-03T09:32:23.819Z</time></trkpt><trkpt lat="44.825884" lon="9.3017443"><ele>986.1428571428571</ele><time>2026-05-03T09:32:29.745Z</time></trkpt><trkpt lat="44.8259296" lon="9.3018149"><ele>985.8571428571429</ele><time>2026-05-03T09:32:35.645Z</time></trkpt><trkpt lat="44.8259846" lon="9.3018811"><ele>985.5714285714287</ele><time>2026-05-03T09:32:41.326Z</time></trkpt><trkpt lat="44.8260333" lon="9.3019618"><ele>985.2857142857143</ele><time>2026-05-03T09:32:46.745Z</time></trkpt><trkpt lat="44.8260891" lon="9.3020314"><ele>985.0</ele><time>2026-05-03T09:32:50.805Z</time></trkpt><trkpt lat="44.8261326" lon="9.3021067"><ele>985.0</ele><time>2026-05-03T09:32:54.819Z</time></trkpt><trkpt lat="44.8261772" lon="9.3021751"><ele>985.0000000000001</ele><time>2026-05-03T09:33:00.819Z</time></trkpt><trkpt lat="44.8261719" lon="9.3022642"><ele>985.0</ele><time>2026-05-03T09:33:10.826Z</time></trkpt><trkpt lat="44.8261042" lon="9.3022464"><ele>985.0</ele><time>2026-05-03T09:33:18.835Z</time></trkpt><trkpt lat="44.8260415" lon="9.3022265"><ele>985.0000000000001</ele><time>2026-05-03T09:33:26.82Z</time></trkpt><trkpt lat="44.8259747" lon="9.3022432"><ele>985.0</ele><time>2026-05-03T09:33:35.819Z</time></trkpt><trkpt lat="44.8259063" lon="9.3022475"><ele>985.0</ele><time>2026-05-03T09:33:41.82Z</time></trkpt><trkpt lat="44.8258384" lon="9.3022457"><ele>983.0</ele><time>2026-05-03T09:33:47.82Z</time></trkpt><trkpt lat="44.8257718" lon="9.3022946"><ele>981.0000000000001</ele><time>2026-05-03T09:33:54.82Z</time></trkpt><trkpt lat="44.8257011" lon="9.3023352"><ele>979.0</ele><time>2026-05-03T09:33:58.819Z</time></trkpt><trkpt lat="44.8256411" lon="9.3023673"><ele>977.0</ele><time>2026-05-03T09:34:02.826Z</time></trkpt><trkpt lat="44.8255734" lon="9.3023845"><ele>975.0000000000001</ele><time>2026-05-03T09:34:07.82Z</time></trkpt><trkpt lat="44.8255013" lon="9.3023871"><ele>973.0</ele><time>2026-05-03T09:34:12.825Z</time></trkpt><trkpt lat="44.8254334" lon="9.3023857"><ele>971.0</ele><time>2026-05-03T09:34:17.749Z</time></trkpt><trkpt lat="44.825369" lon="9.3024016"><ele>971.0</ele><time>2026-05-03T09:34:23.834Z</time></trkpt><trkpt lat="44.825289" lon="9.3024066"><ele>971.0000000000001</ele><time>2026-05-03T09:34:28.826Z</time></trkpt><trkpt lat="44.8252176" lon="9.3024123"><ele>971.0</ele><time>2026-05-03T09:34:32.82Z</time></trkpt><trkpt lat="44.825152" lon="9.3024237"><ele>971.0</ele><time>2026-05-03T09:34:38.82Z</time></trkpt><trkpt lat="44.8250829" lon="9.3024525"><ele>971.0000000000001</ele><time>2026-05-03T09:34:44.842Z</time></trkpt><trkpt lat="44.8250127" lon="9.3024608"><ele>971.0</ele><time>2026-05-03T09:34:49.835Z</time></trkpt><trkpt lat="44.8249466" lon="9.3024515"><ele>971.0</ele><time>2026-05-03T09:34:53.82Z</time></trkpt><trkpt lat="44.8248744" lon="9.3024164"><ele>970.8571428571429</ele><time>2026-05-03T09:35:01.794Z</time></trkpt><trkpt lat="44.8248105" lon="9.3023878"><ele>970.7142857142858</ele><time>2026-05-03T09:35:06.825Z</time></trkpt><trkpt lat="44.8247474" lon="9.3023287"><ele>970.5714285714287</ele><time>2026-05-03T09:35:13.819Z</time></trkpt><trkpt lat="44.8246755" lon="9.3022806"><ele>970.4285714285716</ele><time>2026-05-03T09:35:18.86Z</time></trkpt><trkpt lat="44.8246238" lon="9.3022273"><ele>970.2857142857143</ele><time>2026-05-03T09:35:24.819Z</time></trkpt><trkpt lat="44.8245596" lon="9.3021983"><ele>970.1428571428573</ele><time>2026-05-03T09:35:29.82Z</time></trkpt><trkpt lat="44.8245012" lon="9.3021631"><ele>970.0000000000001</ele><time>2026-05-03T09:35:33.827Z</time></trkpt><trkpt lat="44.824448" lon="9.3021114"><ele>970.4285714285716</ele><time>2026-05-03T09:35:37.82Z</time></trkpt><trkpt lat="44.8243886" lon="9.3020509"><ele>970.8571428571429</ele><time>2026-05-03T09:35:41.725Z</time></trkpt><trkpt lat="44.8243327" lon="9.3019879"><ele>971.2857142857143</ele><time>2026-05-03T09:35:46.723Z</time></trkpt><trkpt lat="44.8242956" lon="9.3019043"><ele>971.7142857142858</ele><time>2026-05-03T09:35:52.742Z</time></trkpt><trkpt lat="44.8242412" lon="9.3018478"><ele>972.1428571428571</ele><time>2026-05-03T09:35:58.82Z</time></trkpt><trkpt lat="44.8241947" lon="9.3017751"><ele>972.5714285714286</ele><time>2026-05-03T09:36:02.824Z</time></trkpt><trkpt lat="44.8241497" lon="9.3017002"><ele>973.0</ele><time>2026-05-03T09:36:07.82Z</time></trkpt><trkpt lat="44.8240915" lon="9.3016574"><ele>973.0</ele><time>2026-05-03T09:36:15.842Z</time></trkpt><trkpt lat="44.8240296" lon="9.3015943"><ele>973.0</ele><time>2026-05-03T09:36:20.73Z</time></trkpt><trkpt lat="44.8239596" lon="9.3015508"><ele>973.0</ele><time>2026-05-03T09:36:24.807Z</time></trkpt><trkpt lat="44.8239172" lon="9.3014716"><ele>973.0</ele><time>2026-05-03T09:36:29.82Z</time></trkpt><trkpt lat="44.8238643" lon="9.3013944"><ele>973.0</ele><time>2026-05-03T09:36:38.827Z</time></trkpt><trkpt lat="44.8238031" lon="9.3013476"><ele>973.0</ele><time>2026-05-03T09:36:42.819Z</time></trkpt><trkpt lat="44.823734" lon="9.3013115"><ele>973.0</ele><time>2026-05-03T09:36:47.82Z</time></trkpt><trkpt lat="44.8236914" lon="9.3012287"><ele>971.2857142857142</ele><time>2026-05-03T09:36:54.745Z</time></trkpt><trkpt lat="44.8236591" lon="9.3011501"><ele>969.5714285714286</ele><time>2026-05-03T09:37:01.82Z</time></trkpt><trkpt lat="44.8236101" lon="9.3010931"><ele>967.8571428571429</ele><time>2026-05-03T09:37:09.745Z</time></trkpt><trkpt lat="44.8235432" lon="9.3010888"><ele>966.1428571428571</ele><time>2026-05-03T09:37:13.744Z</time></trkpt><trkpt lat="44.8234807" lon="9.3010606"><ele>964.4285714285713</ele><time>2026-05-03T09:37:17.705Z</time></trkpt><trkpt lat="44.823416" lon="9.3010315"><ele>962.7142857142857</ele><time>2026-05-03T09:37:21.782Z</time></trkpt><trkpt lat="44.8233563" lon="9.3009847"><ele>961.0</ele><time>2026-05-03T09:37:28.819Z</time></trkpt><trkpt lat="44.8232921" lon="9.3009492"><ele>961.0</ele><time>2026-05-03T09:37:33.843Z</time></trkpt><trkpt lat="44.8232314" lon="9.300892"><ele>960.9999999999999</ele><time>2026-05-03T09:37:38.835Z</time></trkpt><trkpt lat="44.8231799" lon="9.3008345"><ele>961.0</ele><time>2026-05-03T09:37:42.819Z</time></trkpt><trkpt lat="44.8231349" lon="9.3007683"><ele>961.0</ele><time>2026-05-03T09:37:47.819Z</time></trkpt><trkpt lat="44.8230812" lon="9.3007038"><ele>960.9999999999999</ele><time>2026-05-03T09:37:52.819Z</time></trkpt><trkpt lat="44.8230164" lon="9.3006494"><ele>961.0</ele><time>2026-05-03T09:37:57.763Z</time></trkpt><trkpt lat="44.8229572" lon="9.3006079"><ele>961.0</ele><time>2026-05-03T09:38:03.819Z</time></trkpt><trkpt lat="44.8228952" lon="9.3005845"><ele>961.8571428571428</ele><time>2026-05-03T09:38:09.723Z</time></trkpt><trkpt lat="44.8228395" lon="9.3005363"><ele>962.7142857142856</ele><time>2026-05-03T09:38:14.82Z</time></trkpt><trkpt lat="44.8227789" lon="9.3004784"><ele>963.5714285714286</ele><time>2026-05-03T09:38:22.826Z</time></trkpt><trkpt lat="44.8227125" lon="9.3004521"><ele>964.4285714285713</ele><time>2026-05-03T09:38:27.845Z</time></trkpt><trkpt lat="44.8226538" lon="9.3004863"><ele>965.2857142857142</ele><time>2026-05-03T09:38:32.745Z</time></trkpt><trkpt lat="44.8225792" lon="9.3004926"><ele>966.1428571428571</ele><time>2026-05-03T09:38:39.82Z</time></trkpt><trkpt lat="44.8225051" lon="9.3004952"><ele>967.0</ele><time>2026-05-03T09:38:44.819Z</time></trkpt><trkpt lat="44.8224421" lon="9.3005206"><ele>967.0</ele><time>2026-05-03T09:38:48.826Z</time></trkpt><trkpt lat="44.8223758" lon="9.3005417"><ele>967.0</ele><time>2026-05-03T09:38:54.819Z</time></trkpt><trkpt lat="44.8223107" lon="9.3005865"><ele>967.0</ele><time>2026-05-03T09:39:01.827Z</time></trkpt><trkpt lat="44.8222542" lon="9.3006499"><ele>967.0</ele><time>2026-05-03T09:39:06.818Z</time></trkpt><trkpt lat="44.8222023" lon="9.3007221"><ele>967.0</ele><time>2026-05-03T09:39:13.819Z</time></trkpt><trkpt lat="44.8221341" lon="9.3007709"><ele>967.0</ele><time>2026-05-03T09:39:18.82Z</time></trkpt><trkpt lat="44.8220836" lon="9.3008285"><ele>967.0</ele><time>2026-05-03T09:39:24.82Z</time></trkpt><trkpt lat="44.8220479" lon="9.3009137"><ele>965.4285714285714</ele><time>2026-05-03T09:39:35.731Z</time></trkpt><trkpt lat="44.8220144" lon="9.3009919"><ele>963.8571428571429</ele><time>2026-05-03T09:39:39.819Z</time></trkpt><trkpt lat="44.8219644" lon="9.3010608"><ele>962.2857142857143</ele><time>2026-05-03T09:39:43.842Z</time></trkpt><trkpt lat="44.8219405" lon="9.3011478"><ele>960.7142857142858</ele><time>2026-05-03T09:39:49.724Z</time></trkpt><trkpt lat="44.8219137" lon="9.3012378"><ele>959.1428571428571</ele><time>2026-05-03T09:39:59.805Z</time></trkpt><trkpt lat="44.8218454" lon="9.3012736"><ele>957.5714285714287</ele><time>2026-05-03T09:40:04.824Z</time></trkpt><trkpt lat="44.8217739" lon="9.3012922"><ele>956.0000000000001</ele><time>2026-05-03T09:40:12.82Z</time></trkpt><trkpt lat="44.8217027" lon="9.3013075"><ele>960.0000000000001</ele><time>2026-05-03T09:40:20.765Z</time></trkpt><trkpt lat="44.8216375" lon="9.3013118"><ele>964.0</ele><time>2026-05-03T09:40:27.834Z</time></trkpt><trkpt lat="44.8215745" lon="9.3013108"><ele>968.0000000000001</ele><time>2026-05-03T09:40:38.819Z</time></trkpt><trkpt lat="44.8215086" lon="9.3013396"><ele>972.0000000000001</ele><time>2026-05-03T09:40:46.819Z</time></trkpt><trkpt lat="44.8214401" lon="9.301374"><ele>976.0</ele><time>2026-05-03T09:40:53.82Z</time></trkpt><trkpt lat="44.8213754" lon="9.3013855"><ele>980.0000000000001</ele><time>2026-05-03T09:41:01.82Z</time></trkpt><trkpt lat="44.8213096" lon="9.3013805"><ele>984.0000000000001</ele><time>2026-05-03T09:41:14.744Z</time></trkpt><trkpt lat="44.8212383" lon="9.3013912"><ele>984.0000000000001</ele><time>2026-05-03T09:41:21.819Z</time></trkpt><trkpt lat="44.8211718" lon="9.3013873"><ele>984.0</ele><time>2026-05-03T09:41:28.866Z</time></trkpt><trkpt lat="44.8211035" lon="9.3014076"><ele>984.0000000000001</ele><time>2026-05-03T09:41:37.805Z</time></trkpt><trkpt lat="44.821036" lon="9.3014384"><ele>984.0000000000001</ele><time>2026-05-03T09:41:48.851Z</time></trkpt><trkpt lat="44.820968" lon="9.3014435"><ele>984.0</ele><time>2026-05-03T09:41:55.819Z</time></trkpt><trkpt lat="44.8209086" lon="9.3014089"><ele>984.0000000000001</ele><time>2026-05-03T09:42:04.82Z</time></trkpt><trkpt lat="44.8208471" lon="9.3013726"><ele>984.0000000000001</ele><time>2026-05-03T09:42:16.705Z</time></trkpt><trkpt lat="44.8207804" lon="9.301342"><ele>986.2857142857144</ele><time>2026-05-03T09:42:23.794Z</time></trkpt><trkpt lat="44.8207116" lon="9.3013667"><ele>988.5714285714287</ele><time>2026-05-03T09:42:28.787Z</time></trkpt><trkpt lat="44.8206495" lon="9.3013846"><ele>990.8571428571429</ele><time>2026-05-03T09:42:33.819Z</time></trkpt><trkpt lat="44.8205699" lon="9.3013937"><ele>993.1428571428572</ele><time>2026-05-03T09:42:38.82Z</time></trkpt><trkpt lat="44.8204979" lon="9.3014126"><ele>995.4285714285716</ele><time>2026-05-03T09:42:45.643Z</time></trkpt><trkpt lat="44.8204395" lon="9.3014463"><ele>997.7142857142857</ele><time>2026-05-03T09:42:51.819Z</time></trkpt><trkpt lat="44.8203766" lon="9.3014651"><ele>1000.0</ele><time>2026-05-03T09:42:57.802Z</time></trkpt><trkpt lat="44.8203121" lon="9.3014607"><ele>1000.0</ele><time>2026-05-03T09:43:04.82Z</time></trkpt><trkpt lat="44.8202455" lon="9.3014584"><ele>1000.0</ele><time>2026-05-03T09:43:11.819Z</time></trkpt><trkpt lat="44.8201765" lon="9.3014815"><ele>1000.0</ele><time>2026-05-03T09:43:22.819Z</time></trkpt><trkpt lat="44.8201154" lon="9.3015069"><ele>1000.0</ele><time>2026-05-03T09:43:28.82Z</time></trkpt><trkpt lat="44.8200515" lon="9.3015469"><ele>1000.0</ele><time>2026-05-03T09:43:33.82Z</time></trkpt><trkpt lat="44.8199811" lon="9.3015661"><ele>1000.0</ele><time>2026-05-03T09:43:40.82Z</time></trkpt><trkpt lat="44.8199184" lon="9.3016064"><ele>1000.0</ele><time>2026-05-03T09:43:49.82Z</time></trkpt><trkpt lat="44.819856" lon="9.3016401"><ele>1002.7142857142857</ele><time>2026-05-03T09:43:58.744Z</time></trkpt><trkpt lat="44.8197863" lon="9.3016567"><ele>1005.4285714285716</ele><time>2026-05-03T09:44:07.82Z</time></trkpt><trkpt lat="44.8197192" lon="9.3016735"><ele>1008.1428571428572</ele><time>2026-05-03T09:44:15.802Z</time></trkpt><trkpt lat="44.8196641" lon="9.3016296"><ele>1010.8571428571429</ele><time>2026-05-03T09:44:23.82Z</time></trkpt><trkpt lat="44.819603" lon="9.3015893"><ele>1013.5714285714287</ele><time>2026-05-03T09:44:31.819Z</time></trkpt><trkpt lat="44.8195401" lon="9.3016211"><ele>1016.2857142857144</ele><time>2026-05-03T09:44:36.364Z</time></trkpt><trkpt lat="44.8194792" lon="9.3016504"><ele>1019.0000000000001</ele><time>2026-05-03T09:44:41.805Z</time></trkpt><trkpt lat="44.8194279" lon="9.3017171"><ele>1019.0000000000001</ele><time>2026-05-03T09:44:46.82Z</time></trkpt><trkpt lat="44.8193919" lon="9.3018017"><ele>1019.0</ele><time>2026-05-03T09:44:52.827Z</time></trkpt><trkpt lat="44.8193399" lon="9.3018651"><ele>1019.0000000000001</ele><time>2026-05-03T09:44:58.754Z</time></trkpt><trkpt lat="44.8192829" lon="9.3019163"><ele>1019.0000000000001</ele><time>2026-05-03T09:45:03.803Z</time></trkpt><trkpt lat="44.8192353" lon="9.3019878"><ele>1019.0</ele><time>2026-05-03T09:45:10.819Z</time></trkpt><trkpt lat="44.8191875" lon="9.3020587"><ele>1019.0000000000001</ele><time>2026-05-03T09:45:15.82Z</time></trkpt><trkpt lat="44.8191326" lon="9.3021058"><ele>1019.0000000000001</ele><time>2026-05-03T09:45:22.665Z</time></trkpt><trkpt lat="44.8190725" lon="9.3021443"><ele>1021.0000000000001</ele><time>2026-05-03T09:45:29.851Z</time></trkpt><trkpt lat="44.8190178" lon="9.3022072"><ele>1023.0</ele><time>2026-05-03T09:45:36.819Z</time></trkpt><trkpt lat="44.8189646" lon="9.3022594"><ele>1025.0</ele><time>2026-05-03T09:45:45.819Z</time></trkpt><trkpt lat="44.8189194" lon="9.3023286"><ele>1027.0</ele><time>2026-05-03T09:45:52.834Z</time></trkpt><trkpt lat="44.8188667" lon="9.3023914"><ele>1029.0</ele><time>2026-05-03T09:46:03.82Z</time></trkpt><trkpt lat="44.8187993" lon="9.3024342"><ele>1031.0000000000002</ele><time>2026-05-03T09:46:11.819Z</time></trkpt><trkpt lat="44.8187251" lon="9.302446"><ele>1033.0</ele><time>2026-05-03T09:46:18.785Z</time></trkpt><trkpt lat="44.8186674" lon="9.3024834"><ele>1033.0000000000002</ele><time>2026-05-03T09:46:26.867Z</time></trkpt><trkpt lat="44.8186017" lon="9.3024857"><ele>1033.0</ele><time>2026-05-03T09:46:35.82Z</time></trkpt><trkpt lat="44.8185423" lon="9.3025294"><ele>1033.0</ele><time>2026-05-03T09:46:40.819Z</time></trkpt><trkpt lat="44.8184789" lon="9.3025697"><ele>1033.0</ele><time>2026-05-03T09:46:46.824Z</time></trkpt><trkpt lat="44.8184198" lon="9.302616"><ele>1033.0</ele><time>2026-05-03T09:46:54.819Z</time></trkpt><trkpt lat="44.8183573" lon="9.3026564"><ele>1033.0000000000002</ele><time>2026-05-03T09:47:01.82Z</time></trkpt><trkpt lat="44.8182964" lon="9.3026825"><ele>1033.0</ele><time>2026-05-03T09:47:10.804Z</time></trkpt><trkpt lat="44.8182354" lon="9.3026394"><ele>1036.2857142857144</ele><time>2026-05-03T09:47:21.819Z</time></trkpt><trkpt lat="44.81817" lon="9.3026287"><ele>1039.5714285714287</ele><time>2026-05-03T09:47:34.82Z</time></trkpt><trkpt lat="44.8181102" lon="9.3026567"><ele>1042.857142857143</ele><time>2026-05-03T09:47:39.851Z</time></trkpt><trkpt lat="44.8180572" lon="9.3027172"><ele>1046.1428571428573</ele><time>2026-05-03T09:47:44.843Z</time></trkpt><trkpt lat="44.8180299" lon="9.3028125"><ele>1049.4285714285716</ele><time>2026-05-03T09:47:50.82Z</time></trkpt><trkpt lat="44.8180575" lon="9.3029106"><ele>1052.7142857142858</ele><time>2026-05-03T09:47:57.842Z</time></trkpt><trkpt lat="44.818099" lon="9.3029879"><ele>1056.0</ele><time>2026-05-03T09:48:03.819Z</time></trkpt><trkpt lat="44.8180839" lon="9.3030851"><ele>1056.0</ele><time>2026-05-03T09:48:30.712Z</time></trkpt><trkpt lat="44.8180218" lon="9.3031071"><ele>1056.0</ele><time>2026-05-03T09:48:53.819Z</time></trkpt><trkpt lat="44.8179466" lon="9.3030914"><ele>1056.0</ele><time>2026-05-03T09:48:58.819Z</time></trkpt><trkpt lat="44.8178793" lon="9.3030623"><ele>1056.0</ele><time>2026-05-03T09:49:04.82Z</time></trkpt><trkpt lat="44.8178137" lon="9.3030454"><ele>1056.0</ele><time>2026-05-03T09:49:10.82Z</time></trkpt><trkpt lat="44.817744" lon="9.3030531"><ele>1056.0</ele><time>2026-05-03T09:49:19.819Z</time></trkpt><trkpt lat="44.8176887" lon="9.3031029"><ele>1056.0</ele><time>2026-05-03T09:49:27.819Z</time></trkpt><trkpt lat="44.8176658" lon="9.3031895"><ele>1056.0</ele><time>2026-05-03T09:49:35.819Z</time></trkpt><trkpt lat="44.8176611" lon="9.30329"><ele>1056.0</ele><time>2026-05-03T09:49:42.819Z</time></trkpt><trkpt lat="44.8176755" lon="9.3033845"><ele>1056.0</ele><time>2026-05-03T09:49:48.825Z</time></trkpt><trkpt lat="44.8176308" lon="9.3034545"><ele>1056.0</ele><time>2026-05-03T09:49:55.778Z</time></trkpt><trkpt lat="44.8175698" lon="9.3034817"><ele>1056.0</ele><time>2026-05-03T09:50:03.82Z</time></trkpt><trkpt lat="44.8175098" lon="9.3034499"><ele>1056.0</ele><time>2026-05-03T09:50:09.764Z</time></trkpt><trkpt lat="44.8174777" lon="9.3033725"><ele>1056.0</ele><time>2026-05-03T09:50:17.825Z</time></trkpt><trkpt lat="44.8174089" lon="9.3033302"><ele>1058.5714285714284</ele><time>2026-05-03T09:50:24.819Z</time></trkpt><trkpt lat="44.8173553" lon="9.3032799"><ele>1061.142857142857</ele><time>2026-05-03T09:50:30.827Z</time></trkpt><trkpt lat="44.8172911" lon="9.3032479"><ele>1063.7142857142858</ele><time>2026-05-03T09:50:37.854Z</time></trkpt><trkpt lat="44.817223" lon="9.3032408"><ele>1066.2857142857142</ele><time>2026-05-03T09:50:43.826Z</time></trkpt><trkpt lat="44.8171606" lon="9.3032289"><ele>1068.857142857143</ele><time>2026-05-03T09:50:50.819Z</time></trkpt><trkpt lat="44.8170867" lon="9.3032137"><ele>1071.4285714285713</ele><time>2026-05-03T09:50:56.819Z</time></trkpt><trkpt lat="44.8170243" lon="9.3031772"><ele>1074.0</ele><time>2026-05-03T09:51:03.86Z</time></trkpt><trkpt lat="44.8170325" lon="9.3030805"><ele>1074.142857142857</ele><time>2026-05-03T09:51:12.82Z</time></trkpt><trkpt lat="44.8170453" lon="9.3029789"><ele>1074.2857142857142</ele><time>2026-05-03T09:51:18.864Z</time></trkpt><trkpt lat="44.8170409" lon="9.3028887"><ele>1074.4285714285716</ele><time>2026-05-03T09:51:25.835Z</time></trkpt><trkpt lat="44.8170472" lon="9.302797"><ele>1074.5714285714284</ele><time>2026-05-03T09:51:30.785Z</time></trkpt><trkpt lat="44.8170432" lon="9.3026977"><ele>1074.7142857142858</ele><time>2026-05-03T09:51:36.819Z</time></trkpt><trkpt lat="44.8170371" lon="9.3026052"><ele>1074.857142857143</ele><time>2026-05-03T09:51:42.806Z</time></trkpt><trkpt lat="44.8170127" lon="9.3025137"><ele>1075.0</ele><time>2026-05-03T09:51:49.82Z</time></trkpt><trkpt lat="44.8170055" lon="9.3024141"><ele>1075.0000000000002</ele><time>2026-05-03T09:51:57.819Z</time></trkpt><trkpt lat="44.8169913" lon="9.3023202"><ele>1075.0</ele><time>2026-05-03T09:52:04.834Z</time></trkpt><trkpt lat="44.8169472" lon="9.3022531"><ele>1075.0</ele><time>2026-05-03T09:52:10.82Z</time></trkpt><trkpt lat="44.8169206" lon="9.3021583"><ele>1075.0</ele><time>2026-05-03T09:52:17.834Z</time></trkpt><trkpt lat="44.8169174" lon="9.3020541"><ele>1075.0</ele><time>2026-05-03T09:52:24.805Z</time></trkpt><trkpt lat="44.8169104" lon="9.3019649"><ele>1075.0000000000002</ele><time>2026-05-03T09:52:29.819Z</time></trkpt><trkpt lat="44.8169006" lon="9.3018688"><ele>1075.0</ele><time>2026-05-03T09:52:34.82Z</time></trkpt><trkpt lat="44.8168913" lon="9.3017793"><ele>1075.857142857143</ele><time>2026-05-03T09:52:40.819Z</time></trkpt><trkpt lat="44.8168787" lon="9.3016897"><ele>1076.7142857142858</ele><time>2026-05-03T09:52:45.819Z</time></trkpt><trkpt lat="44.8168583" lon="9.3016019"><ele>1077.5714285714284</ele><time>2026-05-03T09:52:51.819Z</time></trkpt><trkpt lat="44.8168425" lon="9.3015116"><ele>1078.4285714285716</ele><time>2026-05-03T09:52:56.834Z</time></trkpt><trkpt lat="44.8168325" lon="9.3014168"><ele>1079.2857142857142</ele><time>2026-05-03T09:53:02.82Z</time></trkpt><trkpt lat="44.8168485" lon="9.3013135"><ele>1080.142857142857</ele><time>2026-05-03T09:53:07.804Z</time></trkpt><trkpt lat="44.8168479" lon="9.3012187"><ele>1081.0</ele><time>2026-05-03T09:53:13.787Z</time></trkpt><trkpt lat="44.8168326" lon="9.3011275"><ele>1082.9999999999998</ele><time>2026-05-03T09:53:23.77Z</time></trkpt><trkpt lat="44.8168841" lon="9.3010736"><ele>1085.0</ele><time>2026-05-03T09:53:29.804Z</time></trkpt><trkpt lat="44.8169475" lon="9.3010494"><ele>1087.0</ele><time>2026-05-03T09:53:33.845Z</time></trkpt><trkpt lat="44.8170145" lon="9.3010288"><ele>1089.0</ele><time>2026-05-03T09:53:38.82Z</time></trkpt><trkpt lat="44.8170798" lon="9.3009924"><ele>1091.0</ele><time>2026-05-03T09:53:45.82Z</time></trkpt><trkpt lat="44.8171408" lon="9.3009453"><ele>1092.9999999999998</ele><time>2026-05-03T09:53:52.787Z</time></trkpt><trkpt lat="44.8171997" lon="9.3008876"><ele>1095.0</ele><time>2026-05-03T09:53:59.819Z</time></trkpt><trkpt lat="44.817242" lon="9.3008195"><ele>1094.9999999999998</ele><time>2026-05-03T09:54:04.85Z</time></trkpt><trkpt lat="44.817284" lon="9.300742"><ele>1095.0</ele><time>2026-05-03T09:54:09.843Z</time></trkpt><trkpt lat="44.817267" lon="9.3006454"><ele>1095.0</ele><time>2026-05-03T09:54:14.82Z</time></trkpt><trkpt lat="44.8172354" lon="9.3005503"><ele>1095.0</ele><time>2026-05-03T09:54:19.745Z</time></trkpt><trkpt lat="44.8171942" lon="9.3004591"><ele>1095.0</ele><time>2026-05-03T09:54:25.819Z</time></trkpt><trkpt lat="44.8171803" lon="9.3003626"><ele>1094.9999999999998</ele><time>2026-05-03T09:54:34.802Z</time></trkpt><trkpt lat="44.8171679" lon="9.3002604"><ele>1095.0</ele><time>2026-05-03T09:54:40.82Z</time></trkpt><trkpt lat="44.8171447" lon="9.3001605"><ele>1096.5714285714284</ele><time>2026-05-03T09:54:46.819Z</time></trkpt><trkpt lat="44.8171209" lon="9.3000542"><ele>1098.142857142857</ele><time>2026-05-03T09:54:53.805Z</time></trkpt><trkpt lat="44.8170996" lon="9.299961"><ele>1099.7142857142858</ele><time>2026-05-03T09:54:59.82Z</time></trkpt><trkpt lat="44.8170546" lon="9.2998914"><ele>1101.2857142857142</ele><time>2026-05-03T09:55:05.819Z</time></trkpt><trkpt lat="44.8170455" lon="9.2997877"><ele>1102.857142857143</ele><time>2026-05-03T09:55:11.826Z</time></trkpt><trkpt lat="44.8170397" lon="9.2996943"><ele>1104.4285714285713</ele><time>2026-05-03T09:55:17.82Z</time></trkpt><trkpt lat="44.8170726" lon="9.2996017"><ele>1106.0</ele><time>2026-05-03T09:55:22.746Z</time></trkpt><trkpt lat="44.8171213" lon="9.2995416"><ele>1106.2857142857142</ele><time>2026-05-03T09:55:28.819Z</time></trkpt><trkpt lat="44.8171614" lon="9.2994712"><ele>1106.5714285714284</ele><time>2026-05-03T09:55:34.82Z</time></trkpt><trkpt lat="44.8172045" lon="9.2993921"><ele>1106.857142857143</ele><time>2026-05-03T09:55:39.819Z</time></trkpt><trkpt lat="44.8172493" lon="9.2993224"><ele>1107.142857142857</ele><time>2026-05-03T09:55:45.841Z</time></trkpt><trkpt lat="44.8172835" lon="9.2992281"><ele>1107.4285714285713</ele><time>2026-05-03T09:55:51.819Z</time></trkpt><trkpt lat="44.8173075" lon="9.2991279"><ele>1107.7142857142858</ele><time>2026-05-03T09:55:56.803Z</time></trkpt><trkpt lat="44.8173192" lon="9.2990301"><ele>1108.0</ele><time>2026-05-03T09:56:02.782Z</time></trkpt><trkpt lat="44.8173083" lon="9.2989371"><ele>1108.857142857143</ele><time>2026-05-03T09:56:07.819Z</time></trkpt><trkpt lat="44.8173011" lon="9.2988396"><ele>1109.7142857142856</ele><time>2026-05-03T09:56:12.82Z</time></trkpt><trkpt lat="44.8172899" lon="9.2987369"><ele>1110.5714285714284</ele><time>2026-05-03T09:56:16.841Z</time></trkpt><trkpt lat="44.8173117" lon="9.2986515"><ele>1111.4285714285713</ele><time>2026-05-03T09:56:21.82Z</time></trkpt><trkpt lat="44.8173636" lon="9.2986008"><ele>1112.2857142857142</ele><time>2026-05-03T09:56:29.826Z</time></trkpt><trkpt lat="44.8174213" lon="9.2985493"><ele>1113.142857142857</ele><time>2026-05-03T09:56:36.82Z</time></trkpt><trkpt lat="44.8174834" lon="9.2985196"><ele>1114.0</ele><time>2026-05-03T09:56:40.803Z</time></trkpt><trkpt lat="44.8175416" lon="9.2984711"><ele>1114.0</ele><time>2026-05-03T09:56:45.842Z</time></trkpt><trkpt lat="44.8176015" lon="9.2984035"><ele>1114.0</ele><time>2026-05-03T09:56:54.82Z</time></trkpt><trkpt lat="44.8176615" lon="9.2983326"><ele>1114.0</ele><time>2026-05-03T09:56:59.82Z</time></trkpt><trkpt lat="44.8177094" lon="9.2982568"><ele>1114.0</ele><time>2026-05-03T09:57:03.723Z</time></trkpt><trkpt lat="44.8177657" lon="9.29819"><ele>1114.0</ele><time>2026-05-03T09:57:07.819Z</time></trkpt><trkpt lat="44.8178029" lon="9.2981155"><ele>1114.0</ele><time>2026-05-03T09:57:13.82Z</time></trkpt><trkpt lat="44.8178255" lon="9.2980235"><ele>1114.0</ele><time>2026-05-03T09:57:17.864Z</time></trkpt><trkpt lat="44.8178517" lon="9.297928"><ele>1113.1666666666665</ele><time>2026-05-03T09:57:21.827Z</time></trkpt><trkpt lat="44.8178795" lon="9.2978219"><ele>1112.3333333333333</ele><time>2026-05-03T09:57:26.861Z</time></trkpt><trkpt lat="44.8179406" lon="9.2977124"><ele>1111.5</ele><time>2026-05-03T09:58:07.795Z</time></trkpt><trkpt lat="44.8180001" lon="9.2976348"><ele>1110.6666666666667</ele><time>2026-05-03T09:58:15.82Z</time></trkpt><trkpt lat="44.8180629" lon="9.2975959"><ele>1109.8333333333335</ele><time>2026-05-03T09:58:19.819Z</time></trkpt><trkpt lat="44.818118" lon="9.2975518"><ele>1109.0</ele><time>2026-05-03T09:58:25.82Z</time></trkpt><trkpt lat="44.8181518" lon="9.2974722"><ele>1108.9999999999998</ele><time>2026-05-03T09:58:31.819Z</time></trkpt><trkpt lat="44.8181753" lon="9.2973806"><ele>1109.0</ele><time>2026-05-03T09:58:36.842Z</time></trkpt><trkpt lat="44.8181982" lon="9.2972958"><ele>1109.0</ele><time>2026-05-03T09:58:40.82Z</time></trkpt><trkpt lat="44.8181727" lon="9.2972081"><ele>1109.0</ele><time>2026-05-03T09:58:47.834Z</time></trkpt><trkpt lat="44.8181328" lon="9.2971259"><ele>1109.0</ele><time>2026-05-03T09:58:54.819Z</time></trkpt><trkpt lat="44.8181111" lon="9.2970403"><ele>1108.9999999999998</ele><time>2026-05-03T09:59:02.819Z</time></trkpt><trkpt lat="44.8180794" lon="9.2969598"><ele>1109.0</ele><time>2026-05-03T09:59:10.819Z</time></trkpt><trkpt lat="44.8180414" lon="9.2968847"><ele>1110.142857142857</ele><time>2026-05-03T09:59:18.826Z</time></trkpt><trkpt lat="44.8179816" lon="9.2968531"><ele>1111.2857142857142</ele><time>2026-05-03T09:59:24.82Z</time></trkpt><trkpt lat="44.8179126" lon="9.2968589"><ele>1112.4285714285716</ele><time>2026-05-03T09:59:29.851Z</time></trkpt><trkpt lat="44.817841" lon="9.2968782"><ele>1113.5714285714284</ele><time>2026-05-03T09:59:35.819Z</time></trkpt><trkpt lat="44.8177794" lon="9.2969201"><ele>1114.7142857142858</ele><time>2026-05-03T09:59:41.82Z</time></trkpt><trkpt lat="44.8177255" lon="9.2969702"><ele>1115.857142857143</ele><time>2026-05-03T09:59:46.82Z</time></trkpt><trkpt lat="44.8176731" lon="9.2970225"><ele>1117.0</ele><time>2026-05-03T09:59:52.819Z</time></trkpt><trkpt lat="44.8176082" lon="9.2970834"><ele>1118.2857142857144</ele><time>2026-05-03T09:59:58.82Z</time></trkpt><trkpt lat="44.8175505" lon="9.2971487"><ele>1119.5714285714287</ele><time>2026-05-03T10:00:03.819Z</time></trkpt><trkpt lat="44.8174912" lon="9.2971941"><ele>1120.857142857143</ele><time>2026-05-03T10:00:08.82Z</time></trkpt><trkpt lat="44.8174247" lon="9.2972352"><ele>1122.1428571428573</ele><time>2026-05-03T10:00:15.82Z</time></trkpt><trkpt lat="44.8173528" lon="9.2972572"><ele>1123.4285714285716</ele><time>2026-05-03T10:00:21.819Z</time></trkpt><trkpt lat="44.817293" lon="9.2972896"><ele>1124.7142857142858</ele><time>2026-05-03T10:00:27.819Z</time></trkpt><trkpt lat="44.8172265" lon="9.2972977"><ele>1126.0</ele><time>2026-05-03T10:00:32.743Z</time></trkpt><trkpt lat="44.8171646" lon="9.2972551"><ele>1127.857142857143</ele><time>2026-05-03T10:00:50.82Z</time></trkpt><trkpt lat="44.8171639" lon="9.2971625"><ele>1129.7142857142858</ele><time>2026-05-03T10:01:00.819Z</time></trkpt><trkpt lat="44.8171109" lon="9.2971077"><ele>1131.5714285714287</ele><time>2026-05-03T10:01:10.82Z</time></trkpt><trkpt lat="44.817075" lon="9.297032"><ele>1133.4285714285716</ele><time>2026-05-03T10:01:20.819Z</time></trkpt><trkpt lat="44.8170156" lon="9.2969914"><ele>1135.2857142857144</ele><time>2026-05-03T10:01:27.82Z</time></trkpt><trkpt lat="44.8169616" lon="9.2969357"><ele>1137.142857142857</ele><time>2026-05-03T10:01:37.77Z</time></trkpt><trkpt lat="44.8169017" lon="9.2968833"><ele>1139.0</ele><time>2026-05-03T10:01:45.715Z</time></trkpt><trkpt lat="44.8168767" lon="9.2968017"><ele>1139.0</ele><time>2026-05-03T10:01:51.714Z</time></trkpt><trkpt lat="44.8168333" lon="9.296725"><ele>1139.0</ele><time>2026-05-03T10:01:57.714Z</time></trkpt><trkpt lat="44.8167683" lon="9.2966767"><ele>1139.0</ele><time>2026-05-03T10:02:04.714Z</time></trkpt><trkpt lat="44.8167083" lon="9.2966417"><ele>1139.0</ele><time>2026-05-03T10:02:10.714Z</time></trkpt><trkpt lat="44.8166479" lon="9.2966132"><ele>1139.0</ele><time>2026-05-03T10:02:17.82Z</time></trkpt><trkpt lat="44.8165737" lon="9.296616"><ele>1139.0</ele><time>2026-05-03T10:02:22.82Z</time></trkpt><trkpt lat="44.8165058" lon="9.2966112"><ele>1139.0</ele><time>2026-05-03T10:02:27.82Z</time></trkpt><trkpt lat="44.8164359" lon="9.2966081"><ele>1140.0</ele><time>2026-05-03T10:02:32.819Z</time></trkpt><trkpt lat="44.8163685" lon="9.2965999"><ele>1141.0</ele><time>2026-05-03T10:02:39.754Z</time></trkpt><trkpt lat="44.8162837" lon="9.2966029"><ele>1142.0</ele><time>2026-05-03T10:03:26.819Z</time></trkpt><trkpt lat="44.8162161" lon="9.2966557"><ele>1143.0</ele><time>2026-05-03T10:03:29.778Z</time></trkpt><trkpt lat="44.8161576" lon="9.2967186"><ele>1144.0</ele><time>2026-05-03T10:03:34.819Z</time></trkpt><trkpt lat="44.8160982" lon="9.296778"><ele>1145.0</ele><time>2026-05-03T10:03:39.785Z</time></trkpt><trkpt lat="44.8160354" lon="9.296833"><ele>1146.2857142857144</ele><time>2026-05-03T10:03:43.82Z</time></trkpt><trkpt lat="44.8159829" lon="9.2968936"><ele>1147.5714285714287</ele><time>2026-05-03T10:03:49.82Z</time></trkpt><trkpt lat="44.8159394" lon="9.2969579"><ele>1148.857142857143</ele><time>2026-05-03T10:03:53.763Z</time></trkpt><trkpt lat="44.8158876" lon="9.2970248"><ele>1150.1428571428573</ele><time>2026-05-03T10:03:59.835Z</time></trkpt><trkpt lat="44.815845" lon="9.2970953"><ele>1151.4285714285716</ele><time>2026-05-03T10:04:06.82Z</time></trkpt><trkpt lat="44.8157828" lon="9.297111"><ele>1152.7142857142858</ele><time>2026-05-03T10:04:14.722Z</time></trkpt><trkpt lat="44.8157191" lon="9.2970819"><ele>1154.0</ele><time>2026-05-03T10:04:19.82Z</time></trkpt><trkpt lat="44.8156647" lon="9.2970337"><ele>1154.0</ele><time>2026-05-03T10:04:27.742Z</time></trkpt><trkpt lat="44.8156353" lon="9.2969527"><ele>1154.0</ele><time>2026-05-03T10:04:35.819Z</time></trkpt><trkpt lat="44.8155897" lon="9.2968786"><ele>1154.0</ele><time>2026-05-03T10:04:42.787Z</time></trkpt><trkpt lat="44.8155422" lon="9.2968149"><ele>1154.0</ele><time>2026-05-03T10:04:49.82Z</time></trkpt><trkpt lat="44.8154867" lon="9.2967709"><ele>1154.0</ele><time>2026-05-03T10:04:54.82Z</time></trkpt><trkpt lat="44.8154312" lon="9.2967289"><ele>1154.0</ele><time>2026-05-03T10:05:00.82Z</time></trkpt><trkpt lat="44.8153681" lon="9.2966824"><ele>1154.0</ele><time>2026-05-03T10:05:06.741Z</time></trkpt><trkpt lat="44.8153087" lon="9.2966469"><ele>1154.0</ele><time>2026-05-03T10:05:12.721Z</time></trkpt><trkpt lat="44.8152436" lon="9.2966328"><ele>1154.0</ele><time>2026-05-03T10:05:17.73Z</time></trkpt><trkpt lat="44.8151744" lon="9.2966444"><ele>1154.0</ele><time>2026-05-03T10:05:23.82Z</time></trkpt><trkpt lat="44.8151076" lon="9.2966556"><ele>1154.0</ele><time>2026-05-03T10:05:29.782Z</time></trkpt><trkpt lat="44.8150378" lon="9.2966737"><ele>1154.0</ele><time>2026-05-03T10:05:36.82Z</time></trkpt><trkpt lat="44.8149672" lon="9.2966915"><ele>1154.0</ele><time>2026-05-03T10:05:42.819Z</time></trkpt><trkpt lat="44.8149116" lon="9.2967428"><ele>1154.0</ele><time>2026-05-03T10:05:50.819Z</time></trkpt><trkpt lat="44.8148451" lon="9.2967559"><ele>1156.0</ele><time>2026-05-03T10:05:56.564Z</time></trkpt><trkpt lat="44.8147796" lon="9.2967714"><ele>1158.0</ele><time>2026-05-03T10:06:02.763Z</time></trkpt><trkpt lat="44.8147103" lon="9.2967928"><ele>1160.0</ele><time>2026-05-03T10:06:07.822Z</time></trkpt><trkpt lat="44.8146476" lon="9.2968243"><ele>1162.0</ele><time>2026-05-03T10:06:12.819Z</time></trkpt><trkpt lat="44.814585" lon="9.2968565"><ele>1164.0</ele><time>2026-05-03T10:06:18.82Z</time></trkpt><trkpt lat="44.8145231" lon="9.2968856"><ele>1166.0</ele><time>2026-05-03T10:06:24.844Z</time></trkpt><trkpt lat="44.8144618" lon="9.2969293"><ele>1168.0</ele><time>2026-05-03T10:06:29.82Z</time></trkpt><trkpt lat="44.8144036" lon="9.2969844"><ele>1168.0</ele><time>2026-05-03T10:06:35.819Z</time></trkpt><trkpt lat="44.8143439" lon="9.2970167"><ele>1168.0</ele><time>2026-05-03T10:06:41.82Z</time></trkpt><trkpt lat="44.814289" lon="9.2970821"><ele>1168.0</ele><time>2026-05-03T10:06:47.795Z</time></trkpt><trkpt lat="44.8142483" lon="9.297172"><ele>1168.0</ele><time>2026-05-03T10:06:53.827Z</time></trkpt><trkpt lat="44.8142023" lon="9.2972515"><ele>1168.0</ele><time>2026-05-03T10:07:01.82Z</time></trkpt><trkpt lat="44.8141498" lon="9.2973331"><ele>1168.0</ele><time>2026-05-03T10:07:07.763Z</time></trkpt><trkpt lat="44.8140975" lon="9.2974008"><ele>1168.0</ele><time>2026-05-03T10:07:13.819Z</time></trkpt><trkpt lat="44.8140539" lon="9.2974676"><ele>1169.5714285714284</ele><time>2026-05-03T10:07:19.826Z</time></trkpt><trkpt lat="44.8140169" lon="9.2975423"><ele>1171.142857142857</ele><time>2026-05-03T10:07:24.82Z</time></trkpt><trkpt lat="44.8139638" lon="9.2976013"><ele>1172.7142857142858</ele><time>2026-05-03T10:07:30.851Z</time></trkpt><trkpt lat="44.8139029" lon="9.2976675"><ele>1174.2857142857142</ele><time>2026-05-03T10:07:38.819Z</time></trkpt><trkpt lat="44.8138544" lon="9.2977551"><ele>1175.857142857143</ele><time>2026-05-03T10:07:44.82Z</time></trkpt><trkpt lat="44.8138208" lon="9.2978447"><ele>1177.4285714285713</ele><time>2026-05-03T10:07:49.82Z</time></trkpt><trkpt lat="44.8138037" lon="9.2979482"><ele>1179.0</ele><time>2026-05-03T10:07:55.819Z</time></trkpt><trkpt lat="44.8138149" lon="9.298044"><ele>1179.5714285714284</ele><time>2026-05-03T10:08:00.725Z</time></trkpt><trkpt lat="44.8138218" lon="9.2981461"><ele>1180.142857142857</ele><time>2026-05-03T10:08:04.819Z</time></trkpt><trkpt lat="44.8138427" lon="9.2982351"><ele>1180.7142857142858</ele><time>2026-05-03T10:08:14.245Z</time></trkpt><trkpt lat="44.8138643" lon="9.2983451"><ele>1181.2857142857142</ele><time>2026-05-03T10:08:40.842Z</time></trkpt><trkpt lat="44.8138758" lon="9.2984452"><ele>1181.857142857143</ele><time>2026-05-03T10:08:45.835Z</time></trkpt><trkpt lat="44.8138644" lon="9.2985378"><ele>1182.4285714285713</ele><time>2026-05-03T10:08:49.819Z</time></trkpt><trkpt lat="44.8138565" lon="9.298642"><ele>1183.0</ele><time>2026-05-03T10:08:56.819Z</time></trkpt><trkpt lat="44.8138466" lon="9.2987301"><ele>1183.0</ele><time>2026-05-03T10:09:01.783Z</time></trkpt><trkpt lat="44.8138291" lon="9.2988204"><ele>1183.0</ele><time>2026-05-03T10:09:07.82Z</time></trkpt><trkpt lat="44.8138129" lon="9.2989165"><ele>1183.0</ele><time>2026-05-03T10:09:13.819Z</time></trkpt><trkpt lat="44.813791" lon="9.2990009"><ele>1183.0</ele><time>2026-05-03T10:09:19.843Z</time></trkpt><trkpt lat="44.8137728" lon="9.2990922"><ele>1183.0</ele><time>2026-05-03T10:09:25.82Z</time></trkpt><trkpt lat="44.813738" lon="9.2991785"><ele>1183.0</ele><time>2026-05-03T10:09:31.784Z</time></trkpt><trkpt lat="44.813695" lon="9.2992442"><ele>1183.0</ele><time>2026-05-03T10:09:36.795Z</time></trkpt><trkpt lat="44.8136416" lon="9.2993002"><ele>1183.2857142857142</ele><time>2026-05-03T10:09:42.722Z</time></trkpt><trkpt lat="44.8135833" lon="9.2993596"><ele>1183.5714285714284</ele><time>2026-05-03T10:09:49.795Z</time></trkpt><trkpt lat="44.8135331" lon="9.2994275"><ele>1183.857142857143</ele><time>2026-05-03T10:09:55.826Z</time></trkpt><trkpt lat="44.8134705" lon="9.2994709"><ele>1184.142857142857</ele><time>2026-05-03T10:10:01.819Z</time></trkpt><trkpt lat="44.8134144" lon="9.2995245"><ele>1184.4285714285713</ele><time>2026-05-03T10:10:07.82Z</time></trkpt><trkpt lat="44.8133547" lon="9.2995754"><ele>1184.7142857142858</ele><time>2026-05-03T10:10:12.744Z</time></trkpt><trkpt lat="44.8133077" lon="9.2996509"><ele>1185.0</ele><time>2026-05-03T10:10:19.783Z</time></trkpt><trkpt lat="44.813263" lon="9.2997194"><ele>1186.857142857143</ele><time>2026-05-03T10:10:25.819Z</time></trkpt><trkpt lat="44.8132139" lon="9.2997905"><ele>1188.7142857142856</ele><time>2026-05-03T10:10:30.742Z</time></trkpt><trkpt lat="44.8131695" lon="9.2998619"><ele>1190.5714285714284</ele><time>2026-05-03T10:10:36.819Z</time></trkpt><trkpt lat="44.8131256" lon="9.2999456"><ele>1192.4285714285713</ele><time>2026-05-03T10:10:43.82Z</time></trkpt><trkpt lat="44.8130916" lon="9.3000221"><ele>1194.2857142857142</ele><time>2026-05-03T10:10:49.82Z</time></trkpt><trkpt lat="44.8130646" lon="9.3001202"><ele>1196.142857142857</ele><time>2026-05-03T10:10:55.835Z</time></trkpt><trkpt lat="44.8130308" lon="9.3002136"><ele>1198.0</ele><time>2026-05-03T10:11:01.819Z</time></trkpt><trkpt lat="44.8129886" lon="9.3002935"><ele>1198.0</ele><time>2026-05-03T10:11:07.819Z</time></trkpt><trkpt lat="44.8129516" lon="9.30037"><ele>1198.0</ele><time>2026-05-03T10:11:12.82Z</time></trkpt><trkpt lat="44.8129148" lon="9.3004481"><ele>1198.0</ele><time>2026-05-03T10:11:18.819Z</time></trkpt><trkpt lat="44.8128767" lon="9.3005274"><ele>1198.0</ele><time>2026-05-03T10:11:23.811Z</time></trkpt><trkpt lat="44.8128419" lon="9.3006079"><ele>1198.0</ele><time>2026-05-03T10:11:29.843Z</time></trkpt><trkpt lat="44.8127901" lon="9.3006923"><ele>1198.0</ele><time>2026-05-03T10:11:36.82Z</time></trkpt><trkpt lat="44.8127394" lon="9.3007531"><ele>1198.0</ele><time>2026-05-03T10:11:41.842Z</time></trkpt><trkpt lat="44.8126843" lon="9.3008102"><ele>1199.142857142857</ele><time>2026-05-03T10:11:47.834Z</time></trkpt><trkpt lat="44.8126304" lon="9.3008695"><ele>1200.2857142857142</ele><time>2026-05-03T10:11:52.744Z</time></trkpt><trkpt lat="44.8125778" lon="9.3009345"><ele>1201.4285714285716</ele><time>2026-05-03T10:11:58.665Z</time></trkpt><trkpt lat="44.8125181" lon="9.3009756"><ele>1202.5714285714284</ele><time>2026-05-03T10:12:03.82Z</time></trkpt><trkpt lat="44.812459" lon="9.3010122"><ele>1203.7142857142856</ele><time>2026-05-03T10:12:09.819Z</time></trkpt><trkpt lat="44.8123929" lon="9.3010293"><ele>1204.857142857143</ele><time>2026-05-03T10:12:13.82Z</time></trkpt><trkpt lat="44.8123261" lon="9.3010746"><ele>1206.0</ele><time>2026-05-03T10:12:21.819Z</time></trkpt><trkpt lat="44.8122606" lon="9.3010885"><ele>1206.0</ele><time>2026-05-03T10:12:27.82Z</time></trkpt><trkpt lat="44.8121964" lon="9.3011046"><ele>1206.0</ele><time>2026-05-03T10:12:31.827Z</time></trkpt><trkpt lat="44.8121362" lon="9.3011454"><ele>1206.0</ele><time>2026-05-03T10:12:37.721Z</time></trkpt><trkpt lat="44.8120715" lon="9.3011808"><ele>1206.0</ele><time>2026-05-03T10:12:42.819Z</time></trkpt><trkpt lat="44.8120042" lon="9.3012063"><ele>1206.0</ele><time>2026-05-03T10:12:48.778Z</time></trkpt><trkpt lat="44.8119435" lon="9.3012432"><ele>1206.0</ele><time>2026-05-03T10:12:53.819Z</time></trkpt><trkpt lat="44.8118832" lon="9.3012827"><ele>1206.0</ele><time>2026-05-03T10:13:00.842Z</time></trkpt><trkpt lat="44.811833" lon="9.3013367"><ele>1205.5714285714287</ele><time>2026-05-03T10:13:05.834Z</time></trkpt><trkpt lat="44.811771" lon="9.3013881"><ele>1205.142857142857</ele><time>2026-05-03T10:13:13.785Z</time></trkpt><trkpt lat="44.8117475" lon="9.3014743"><ele>1204.7142857142858</ele><time>2026-05-03T10:16:04.82Z</time></trkpt><trkpt lat="44.8117474" lon="9.3015832"><ele>1204.2857142857142</ele><time>2026-05-03T10:16:09.82Z</time></trkpt><trkpt lat="44.8117569" lon="9.3016762"><ele>1203.857142857143</ele><time>2026-05-03T10:16:13.82Z</time></trkpt><trkpt lat="44.8117754" lon="9.3017728"><ele>1203.4285714285713</ele><time>2026-05-03T10:16:19.819Z</time></trkpt><trkpt lat="44.8117836" lon="9.3018791"><ele>1203.0</ele><time>2026-05-03T10:16:39.82Z</time></trkpt><trkpt lat="44.8117989" lon="9.3019726"><ele>1204.4285714285713</ele><time>2026-05-03T10:16:43.819Z</time></trkpt><trkpt lat="44.8118118" lon="9.3020755"><ele>1205.857142857143</ele><time>2026-05-03T10:16:49.819Z</time></trkpt><trkpt lat="44.8118284" lon="9.3021838"><ele>1207.2857142857142</ele><time>2026-05-03T10:16:54.823Z</time></trkpt><trkpt lat="44.8118396" lon="9.3022714"><ele>1208.7142857142858</ele><time>2026-05-03T10:17:00.819Z</time></trkpt><trkpt lat="44.8118471" lon="9.3023751"><ele>1210.142857142857</ele><time>2026-05-03T10:17:05.819Z</time></trkpt><trkpt lat="44.8118484" lon="9.3024659"><ele>1211.5714285714287</ele><time>2026-05-03T10:17:12.83Z</time></trkpt><trkpt lat="44.811827" lon="9.3025575"><ele>1213.0</ele><time>2026-05-03T10:17:18.745Z</time></trkpt><trkpt lat="44.8118078" lon="9.302652"><ele>1213.7142857142858</ele><time>2026-05-03T10:17:25.831Z</time></trkpt><trkpt lat="44.8117848" lon="9.3027368"><ele>1214.4285714285713</ele><time>2026-05-03T10:17:29.82Z</time></trkpt><trkpt lat="44.8117579" lon="9.3028244"><ele>1215.142857142857</ele><time>2026-05-03T10:17:35.819Z</time></trkpt><trkpt lat="44.8117341" lon="9.302915"><ele>1215.857142857143</ele><time>2026-05-03T10:17:40.782Z</time></trkpt><trkpt lat="44.8116985" lon="9.3029942"><ele>1216.5714285714284</ele><time>2026-05-03T10:17:46.838Z</time></trkpt><trkpt lat="44.8116667" lon="9.3030811"><ele>1217.2857142857142</ele><time>2026-05-03T10:17:52.856Z</time></trkpt><trkpt lat="44.8116434" lon="9.3031749"><ele>1218.0</ele><time>2026-05-03T10:17:58.819Z</time></trkpt><trkpt lat="44.8116059" lon="9.3032716"><ele>1219.857142857143</ele><time>2026-05-03T10:18:03.82Z</time></trkpt><trkpt lat="44.8115788" lon="9.3033658"><ele>1221.7142857142858</ele><time>2026-05-03T10:18:07.819Z</time></trkpt><trkpt lat="44.8115449" lon="9.3034546"><ele>1223.5714285714284</ele><time>2026-05-03T10:18:13.819Z</time></trkpt><trkpt lat="44.8115071" lon="9.3035433"><ele>1225.4285714285716</ele><time>2026-05-03T10:18:18.803Z</time></trkpt><trkpt lat="44.811457" lon="9.3036153"><ele>1227.2857142857142</ele><time>2026-05-03T10:18:23.82Z</time></trkpt><trkpt lat="44.8114194" lon="9.3036939"><ele>1229.142857142857</ele><time>2026-05-03T10:18:28.82Z</time></trkpt><trkpt lat="44.811378" lon="9.3037833"><ele>1231.0</ele><time>2026-05-03T10:18:35.823Z</time></trkpt><trkpt lat="44.8113621" lon="9.3038719"><ele>1232.5714285714284</ele><time>2026-05-03T10:18:41.819Z</time></trkpt><trkpt lat="44.8113337" lon="9.3039551"><ele>1234.142857142857</ele><time>2026-05-03T10:18:45.82Z</time></trkpt><trkpt lat="44.8112973" lon="9.3040316"><ele>1235.7142857142858</ele><time>2026-05-03T10:18:49.819Z</time></trkpt><trkpt lat="44.8112621" lon="9.3041268"><ele>1237.2857142857142</ele><time>2026-05-03T10:18:55.819Z</time></trkpt><trkpt lat="44.8112245" lon="9.3041984"><ele>1238.857142857143</ele><time>2026-05-03T10:18:59.858Z</time></trkpt><trkpt lat="44.8111787" lon="9.304278"><ele>1240.4285714285713</ele><time>2026-05-03T10:19:04.725Z</time></trkpt><trkpt lat="44.8111398" lon="9.3043515"><ele>1242.0</ele><time>2026-05-03T10:19:10.819Z</time></trkpt><trkpt lat="44.8110932" lon="9.3044122"><ele>1241.9999999999998</ele><time>2026-05-03T10:19:14.803Z</time></trkpt><trkpt lat="44.8110686" lon="9.3044958"><ele>1242.0</ele><time>2026-05-03T10:19:20.82Z</time></trkpt><trkpt lat="44.8110324" lon="9.3045811"><ele>1242.0</ele><time>2026-05-03T10:19:26.825Z</time></trkpt><trkpt lat="44.8110074" lon="9.3046668"><ele>1242.0</ele><time>2026-05-03T10:19:31.819Z</time></trkpt><trkpt lat="44.8109882" lon="9.3047602"><ele>1242.0</ele><time>2026-05-03T10:19:36.767Z</time></trkpt><trkpt lat="44.8109569" lon="9.3048515"><ele>1241.9999999999998</ele><time>2026-05-03T10:19:40.822Z</time></trkpt><trkpt lat="44.8109318" lon="9.3049525"><ele>1242.0</ele><time>2026-05-03T10:19:47.819Z</time></trkpt><trkpt lat="44.8109038" lon="9.3050389"><ele>1241.142857142857</ele><time>2026-05-03T10:19:52.782Z</time></trkpt><trkpt lat="44.810881" lon="9.3051323"><ele>1240.2857142857142</ele><time>2026-05-03T10:19:56.666Z</time></trkpt><trkpt lat="44.810858" lon="9.305227"><ele>1239.4285714285716</ele><time>2026-05-03T10:20:00.819Z</time></trkpt><trkpt lat="44.8108455" lon="9.3053146"><ele>1238.5714285714284</ele><time>2026-05-03T10:20:05.82Z</time></trkpt><trkpt lat="44.8108509" lon="9.3054042"><ele>1237.7142857142858</ele><time>2026-05-03T10:20:10.819Z</time></trkpt><trkpt lat="44.8108334" lon="9.3054963"><ele>1236.857142857143</ele><time>2026-05-03T10:20:17.82Z</time></trkpt><trkpt lat="44.8108301" lon="9.3055919"><ele>1236.0</ele><time>2026-05-03T10:20:21.82Z</time></trkpt><trkpt lat="44.8108459" lon="9.305682"><ele>1236.0000000000002</ele><time>2026-05-03T10:20:24.815Z</time></trkpt><trkpt lat="44.8108604" lon="9.3057888"><ele>1236.0</ele><time>2026-05-03T10:20:29.806Z</time></trkpt><trkpt lat="44.8108776" lon="9.3058886"><ele>1236.0</ele><time>2026-05-03T10:20:33.819Z</time></trkpt><trkpt lat="44.8108747" lon="9.3059979"><ele>1236.0</ele><time>2026-05-03T10:20:38.819Z</time></trkpt><trkpt lat="44.8108667" lon="9.3060971"><ele>1236.0</ele><time>2026-05-03T10:20:43.725Z</time></trkpt><trkpt lat="44.8108754" lon="9.3061968"><ele>1236.0000000000002</ele><time>2026-05-03T10:20:49.819Z</time></trkpt><trkpt lat="44.8108819" lon="9.3062889"><ele>1236.0</ele><time>2026-05-03T10:20:56.858Z</time></trkpt><trkpt lat="44.8108823" lon="9.3063967"><ele>1236.1428571428573</ele><time>2026-05-03T10:21:03.82Z</time></trkpt><trkpt lat="44.8108744" lon="9.306486"><ele>1236.2857142857142</ele><time>2026-05-03T10:21:07.82Z</time></trkpt><trkpt lat="44.8108504" lon="9.306575"><ele>1236.4285714285716</ele><time>2026-05-03T10:21:11.823Z</time></trkpt><trkpt lat="44.8108415" lon="9.3066729"><ele>1236.5714285714287</ele><time>2026-05-03T10:21:16.819Z</time></trkpt><trkpt lat="44.8108345" lon="9.3067769"><ele>1236.7142857142858</ele><time>2026-05-03T10:21:21.819Z</time></trkpt><trkpt lat="44.8108055" lon="9.3068606"><ele>1236.857142857143</ele><time>2026-05-03T10:21:27.819Z</time></trkpt><trkpt lat="44.8107861" lon="9.306969"><ele>1237.0</ele><time>2026-05-03T10:21:32.83Z</time></trkpt><trkpt lat="44.8107584" lon="9.3070493"><ele>1237.0</ele><time>2026-05-03T10:21:36.82Z</time></trkpt><trkpt lat="44.8107195" lon="9.3071252"><ele>1237.0</ele><time>2026-05-03T10:21:40.762Z</time></trkpt><trkpt lat="44.8106776" lon="9.3072174"><ele>1237.0</ele><time>2026-05-03T10:21:45.762Z</time></trkpt><trkpt lat="44.8106588" lon="9.3073073"><ele>1237.0</ele><time>2026-05-03T10:21:50.822Z</time></trkpt><trkpt lat="44.810682" lon="9.3073991"><ele>1237.0</ele><time>2026-05-03T10:22:01.82Z</time></trkpt><trkpt lat="44.8106433" lon="9.3075047"><ele>1237.0</ele><time>2026-05-03T10:22:06.838Z</time></trkpt><trkpt lat="44.8106195" lon="9.3075903"><ele>1237.0</ele><time>2026-05-03T10:22:10.819Z</time></trkpt><trkpt lat="44.8105783" lon="9.3076637"><ele>1237.0</ele><time>2026-05-03T10:22:15.563Z</time></trkpt><trkpt lat="44.810538" lon="9.3077373"><ele>1237.0</ele><time>2026-05-03T10:22:22.804Z</time></trkpt><trkpt lat="44.810493" lon="9.3078113"><ele>1237.0</ele><time>2026-05-03T10:22:28.82Z</time></trkpt><trkpt lat="44.8104427" lon="9.3078657"><ele>1237.0</ele><time>2026-05-03T10:22:32.838Z</time></trkpt><trkpt lat="44.8103824" lon="9.3079277"><ele>1237.0</ele><time>2026-05-03T10:22:36.824Z</time></trkpt><trkpt lat="44.810331" lon="9.3079971"><ele>1237.0</ele><time>2026-05-03T10:22:44.819Z</time></trkpt><trkpt lat="44.8102768" lon="9.3080597"><ele>1237.0</ele><time>2026-05-03T10:22:49.765Z</time></trkpt><trkpt lat="44.8102325" lon="9.3081235"><ele>1237.0</ele><time>2026-05-03T10:22:56.702Z</time></trkpt><trkpt lat="44.8101806" lon="9.3081995"><ele>1237.0</ele><time>2026-05-03T10:23:02.82Z</time></trkpt><trkpt lat="44.8101392" lon="9.3082721"><ele>1237.0</ele><time>2026-05-03T10:23:09.82Z</time></trkpt><trkpt lat="44.8101077" lon="9.3083528"><ele>1237.0</ele><time>2026-05-03T10:23:15.543Z</time></trkpt><trkpt lat="44.8100645" lon="9.3084352"><ele>1237.0</ele><time>2026-05-03T10:23:19.925Z</time></trkpt><trkpt lat="44.8100211" lon="9.3085252"><ele>1237.0</ele><time>2026-05-03T10:23:24.424Z</time></trkpt><trkpt lat="44.8099881" lon="9.3086185"><ele>1237.0</ele><time>2026-05-03T10:23:29.859Z</time></trkpt><trkpt lat="44.8099539" lon="9.3086993"><ele>1238.7142857142856</ele><time>2026-05-03T10:23:34.823Z</time></trkpt><trkpt lat="44.809931" lon="9.3087866"><ele>1240.4285714285716</ele><time>2026-05-03T10:23:39.883Z</time></trkpt><trkpt lat="44.8099031" lon="9.3088773"><ele>1242.142857142857</ele><time>2026-05-03T10:23:45.819Z</time></trkpt><trkpt lat="44.8098917" lon="9.3089682"><ele>1243.8571428571427</ele><time>2026-05-03T10:23:49.82Z</time></trkpt><trkpt lat="44.8098861" lon="9.3090756"><ele>1245.5714285714284</ele><time>2026-05-03T10:23:54.819Z</time></trkpt><trkpt lat="44.8099098" lon="9.3091769"><ele>1247.2857142857142</ele><time>2026-05-03T10:23:59.819Z</time></trkpt><trkpt lat="44.8099367" lon="9.3092598"><ele>1249.0</ele><time>2026-05-03T10:24:04.82Z</time></trkpt><trkpt lat="44.8099718" lon="9.3093567"><ele>1248.9999999999998</ele><time>2026-05-03T10:24:09.82Z</time></trkpt><trkpt lat="44.8100053" lon="9.3094483"><ele>1249.0</ele><time>2026-05-03T10:24:13.823Z</time></trkpt><trkpt lat="44.8100374" lon="9.3095277"><ele>1249.0</ele><time>2026-05-03T10:24:18.815Z</time></trkpt><trkpt lat="44.8100729" lon="9.3096071"><ele>1249.0</ele><time>2026-05-03T10:24:24.819Z</time></trkpt><trkpt lat="44.8100899" lon="9.3096957"><ele>1249.0</ele><time>2026-05-03T10:24:29.838Z</time></trkpt><trkpt lat="44.8100745" lon="9.3095988"><ele>1248.9999999999998</ele><time>2026-05-03T10:25:44.719Z</time></trkpt><trkpt lat="44.8100532" lon="9.3095133"><ele>1249.0</ele><time>2026-05-03T10:25:49.715Z</time></trkpt><trkpt lat="44.8100277" lon="9.3094213"><ele>1248.9999999999998</ele><time>2026-05-03T10:25:54.786Z</time></trkpt><trkpt lat="44.8099929" lon="9.3093452"><ele>1249.0</ele><time>2026-05-03T10:26:00.734Z</time></trkpt><trkpt lat="44.8099353" lon="9.3093857"><ele>1249.0</ele><time>2026-05-03T10:26:23.822Z</time></trkpt><trkpt lat="44.8099074" lon="9.3094734"><ele>1249.0</ele><time>2026-05-03T10:26:27.819Z</time></trkpt><trkpt lat="44.8098637" lon="9.3095588"><ele>1249.0</ele><time>2026-05-03T10:26:34.82Z</time></trkpt><trkpt lat="44.8098144" lon="9.3096439"><ele>1248.9999999999998</ele><time>2026-05-03T10:26:39.839Z</time></trkpt><trkpt lat="44.8097609" lon="9.3096959"><ele>1249.0</ele><time>2026-05-03T10:26:45.819Z</time></trkpt><trkpt lat="44.8097147" lon="9.3097649"><ele>1248.4285714285713</ele><time>2026-05-03T10:26:50.802Z</time></trkpt><trkpt lat="44.8096659" lon="9.309846"><ele>1247.857142857143</ele><time>2026-05-03T10:26:54.819Z</time></trkpt><trkpt lat="44.8096318" lon="9.3099401"><ele>1247.2857142857142</ele><time>2026-05-03T10:27:01.82Z</time></trkpt><trkpt lat="44.8095989" lon="9.3100178"><ele>1246.7142857142858</ele><time>2026-05-03T10:27:05.838Z</time></trkpt><trkpt lat="44.8095581" lon="9.3100972"><ele>1246.142857142857</ele><time>2026-05-03T10:27:12.819Z</time></trkpt><trkpt lat="44.8094933" lon="9.3101632"><ele>1245.5714285714284</ele><time>2026-05-03T10:27:18.838Z</time></trkpt><trkpt lat="44.8094282" lon="9.3102201"><ele>1245.0</ele><time>2026-05-03T10:27:23.83Z</time></trkpt><trkpt lat="44.809368" lon="9.3102526"><ele>1245.4285714285713</ele><time>2026-05-03T10:27:27.82Z</time></trkpt><trkpt lat="44.8093017" lon="9.3102513"><ele>1245.857142857143</ele><time>2026-05-03T10:27:32.744Z</time></trkpt><trkpt lat="44.8092337" lon="9.3102721"><ele>1246.2857142857142</ele><time>2026-05-03T10:27:47.725Z</time></trkpt><trkpt lat="44.8091711" lon="9.3102914"><ele>1246.7142857142858</ele><time>2026-05-03T10:27:53.854Z</time></trkpt><trkpt lat="44.8091224" lon="9.3103594"><ele>1247.142857142857</ele><time>2026-05-03T10:28:00.784Z</time></trkpt><trkpt lat="44.8090599" lon="9.3104172"><ele>1247.5714285714287</ele><time>2026-05-03T10:28:05.819Z</time></trkpt><trkpt lat="44.8089926" lon="9.3104548"><ele>1248.0</ele><time>2026-05-03T10:28:11.82Z</time></trkpt><trkpt lat="44.8089506" lon="9.3105316"><ele>1248.0</ele><time>2026-05-03T10:28:22.82Z</time></trkpt><trkpt lat="44.80889" lon="9.3105673"><ele>1248.0</ele><time>2026-05-03T10:28:30.82Z</time></trkpt><trkpt lat="44.8088244" lon="9.3105965"><ele>1248.0</ele><time>2026-05-03T10:28:37.824Z</time></trkpt><trkpt lat="44.8087508" lon="9.3105916"><ele>1248.0</ele><time>2026-05-03T10:28:44.82Z</time></trkpt><trkpt lat="44.8086888" lon="9.3106088"><ele>1248.0</ele><time>2026-05-03T10:28:53.819Z</time></trkpt><trkpt lat="44.808615" lon="9.3106015"><ele>1248.0</ele><time>2026-05-03T10:29:00.82Z</time></trkpt><trkpt lat="44.8085454" lon="9.3105838"><ele>1248.0</ele><time>2026-05-03T10:29:08.819Z</time></trkpt><trkpt lat="44.8084796" lon="9.3105837"><ele>1245.2857142857144</ele><time>2026-05-03T10:29:17.819Z</time></trkpt><trkpt lat="44.8084048" lon="9.3105746"><ele>1242.5714285714284</ele><time>2026-05-03T10:29:23.819Z</time></trkpt><trkpt lat="44.8083387" lon="9.3105546"><ele>1239.857142857143</ele><time>2026-05-03T10:29:29.819Z</time></trkpt><trkpt lat="44.8082751" lon="9.3105657"><ele>1237.1428571428573</ele><time>2026-05-03T10:29:34.762Z</time></trkpt><trkpt lat="44.8082111" lon="9.3105825"><ele>1234.4285714285716</ele><time>2026-05-03T10:29:44.819Z</time></trkpt><trkpt lat="44.8081477" lon="9.3105959"><ele>1231.7142857142858</ele><time>2026-05-03T10:29:54.849Z</time></trkpt><trkpt lat="44.8080814" lon="9.3105898"><ele>1229.0</ele><time>2026-05-03T10:30:03.819Z</time></trkpt><trkpt lat="44.8080176" lon="9.3105852"><ele>1229.0000000000002</ele><time>2026-05-03T10:30:11.82Z</time></trkpt><trkpt lat="44.8079738" lon="9.3106653"><ele>1229.0</ele><time>2026-05-03T10:30:29.783Z</time></trkpt><trkpt lat="44.8079016" lon="9.3106625"><ele>1229.0</ele><time>2026-05-03T10:30:33.734Z</time></trkpt><trkpt lat="44.807847" lon="9.3105877"><ele>1229.0</ele><time>2026-05-03T10:30:42.819Z</time></trkpt><trkpt lat="44.8078037" lon="9.3105133"><ele>1229.0</ele><time>2026-05-03T10:30:47.819Z</time></trkpt><trkpt lat="44.8077381" lon="9.3104911"><ele>1229.0000000000002</ele><time>2026-05-03T10:30:53.819Z</time></trkpt><trkpt lat="44.8076683" lon="9.3105071"><ele>1229.0</ele><time>2026-05-03T10:30:59.838Z</time></trkpt><trkpt lat="44.8076078" lon="9.3105365"><ele>1227.0000000000002</ele><time>2026-05-03T10:31:06.807Z</time></trkpt><trkpt lat="44.8075303" lon="9.3105428"><ele>1225.0</ele><time>2026-05-03T10:31:14.82Z</time></trkpt><trkpt lat="44.807452" lon="9.3105458"><ele>1223.0</ele><time>2026-05-03T10:31:20.819Z</time></trkpt><trkpt lat="44.8073844" lon="9.3105687"><ele>1221.0</ele><time>2026-05-03T10:31:27.766Z</time></trkpt><trkpt lat="44.8073136" lon="9.310562"><ele>1219.0</ele><time>2026-05-03T10:31:34.786Z</time></trkpt><trkpt lat="44.8072507" lon="9.3105729"><ele>1217.0000000000002</ele><time>2026-05-03T10:31:39.819Z</time></trkpt><trkpt lat="44.8071882" lon="9.3105882"><ele>1215.0</ele><time>2026-05-03T10:31:44.819Z</time></trkpt><trkpt lat="44.8071176" lon="9.3106021"><ele>1215.0000000000002</ele><time>2026-05-03T10:31:50.765Z</time></trkpt><trkpt lat="44.8070564" lon="9.3106254"><ele>1215.0</ele><time>2026-05-03T10:31:55.819Z</time></trkpt><trkpt lat="44.8069949" lon="9.3106491"><ele>1215.0</ele><time>2026-05-03T10:32:00.704Z</time></trkpt><trkpt lat="44.8069267" lon="9.3106952"><ele>1215.0</ele><time>2026-05-03T10:32:05.819Z</time></trkpt><trkpt lat="44.8068575" lon="9.3107029"><ele>1215.0</ele><time>2026-05-03T10:32:13.819Z</time></trkpt><trkpt lat="44.8067917" lon="9.3107073"><ele>1215.0000000000002</ele><time>2026-05-03T10:32:20.819Z</time></trkpt><trkpt lat="44.8067284" lon="9.3107388"><ele>1215.0</ele><time>2026-05-03T10:32:26.82Z</time></trkpt><trkpt lat="44.8066611" lon="9.3107543"><ele>1213.4285714285716</ele><time>2026-05-03T10:32:34.819Z</time></trkpt><trkpt lat="44.8065996" lon="9.3107914"><ele>1211.857142857143</ele><time>2026-05-03T10:32:41.758Z</time></trkpt><trkpt lat="44.8065391" lon="9.3108243"><ele>1210.2857142857142</ele><time>2026-05-03T10:32:49.82Z</time></trkpt><trkpt lat="44.8064765" lon="9.3108546"><ele>1208.7142857142858</ele><time>2026-05-03T10:32:58.82Z</time></trkpt><trkpt lat="44.8064151" lon="9.3108848"><ele>1207.142857142857</ele><time>2026-05-03T10:33:06.822Z</time></trkpt><trkpt lat="44.8063553" lon="9.3109177"><ele>1205.5714285714287</ele><time>2026-05-03T10:33:14.764Z</time></trkpt><trkpt lat="44.8062996" lon="9.3109637"><ele>1204.0</ele><time>2026-05-03T10:33:19.802Z</time></trkpt><trkpt lat="44.8062437" lon="9.311006"><ele>1204.0</ele><time>2026-05-03T10:33:25.185Z</time></trkpt><trkpt lat="44.8061904" lon="9.3110551"><ele>1204.0</ele><time>2026-05-03T10:33:32.823Z</time></trkpt><trkpt lat="44.8061385" lon="9.3111188"><ele>1204.0</ele><time>2026-05-03T10:33:39.82Z</time></trkpt><trkpt lat="44.8060904" lon="9.3111963"><ele>1204.0</ele><time>2026-05-03T10:33:47.819Z</time></trkpt><trkpt lat="44.8060436" lon="9.3112677"><ele>1204.0</ele><time>2026-05-03T10:33:55.724Z</time></trkpt><trkpt lat="44.8059922" lon="9.3113227"><ele>1204.0</ele><time>2026-05-03T10:34:03.82Z</time></trkpt><trkpt lat="44.805938" lon="9.311374"><ele>1204.0</ele><time>2026-05-03T10:34:09.82Z</time></trkpt><trkpt lat="44.8058728" lon="9.3113873"><ele>1201.0</ele><time>2026-05-03T10:34:18.819Z</time></trkpt><trkpt lat="44.805819" lon="9.3114366"><ele>1198.0</ele><time>2026-05-03T10:34:24.723Z</time></trkpt><trkpt lat="44.8057629" lon="9.3114865"><ele>1195.0</ele><time>2026-05-03T10:34:33.766Z</time></trkpt><trkpt lat="44.8057077" lon="9.3115326"><ele>1192.0</ele><time>2026-05-03T10:34:40.742Z</time></trkpt><trkpt lat="44.8056428" lon="9.3115478"><ele>1189.0</ele><time>2026-05-03T10:34:49.803Z</time></trkpt><trkpt lat="44.8055882" lon="9.3115943"><ele>1186.0</ele><time>2026-05-03T10:34:57.819Z</time></trkpt><trkpt lat="44.8055255" lon="9.3116407"><ele>1183.0</ele><time>2026-05-03T10:35:04.819Z</time></trkpt><trkpt lat="44.8054642" lon="9.3116759"><ele>1183.0</ele><time>2026-05-03T10:35:09.819Z</time></trkpt><trkpt lat="44.8054128" lon="9.3117496"><ele>1183.0</ele><time>2026-05-03T10:35:15.819Z</time></trkpt><trkpt lat="44.8053613" lon="9.3118091"><ele>1183.0</ele><time>2026-05-03T10:35:21.819Z</time></trkpt><trkpt lat="44.8053081" lon="9.3118769"><ele>1183.0</ele><time>2026-05-03T10:35:28.82Z</time></trkpt><trkpt lat="44.8052631" lon="9.3119504"><ele>1183.0</ele><time>2026-05-03T10:35:39.819Z</time></trkpt><trkpt lat="44.8052429" lon="9.3120459"><ele>1183.0</ele><time>2026-05-03T10:35:47.819Z</time></trkpt><trkpt lat="44.8052013" lon="9.3121172"><ele>1183.0</ele><time>2026-05-03T10:35:58.804Z</time></trkpt><trkpt lat="44.8051525" lon="9.3121744"><ele>1179.7142857142858</ele><time>2026-05-03T10:36:16.726Z</time></trkpt><trkpt lat="44.8051301" lon="9.3122833"><ele>1176.4285714285716</ele><time>2026-05-03T10:36:41.819Z</time></trkpt><trkpt lat="44.8050742" lon="9.312326"><ele>1173.142857142857</ele><time>2026-05-03T10:36:47.782Z</time></trkpt><trkpt lat="44.8050111" lon="9.3123148"><ele>1169.857142857143</ele><time>2026-05-03T10:36:59.819Z</time></trkpt><trkpt lat="44.8049446" lon="9.3123165"><ele>1166.5714285714287</ele><time>2026-05-03T10:37:09.803Z</time></trkpt><trkpt lat="44.8048825" lon="9.3122943"><ele>1163.2857142857142</ele><time>2026-05-03T10:37:16.82Z</time></trkpt><trkpt lat="44.8048343" lon="9.3122366"><ele>1160.0</ele><time>2026-05-03T10:37:25.722Z</time></trkpt><trkpt lat="44.8047686" lon="9.3121895"><ele>1160.0</ele><time>2026-05-03T10:37:36.82Z</time></trkpt><trkpt lat="44.8047121" lon="9.3121435"><ele>1160.0</ele><time>2026-05-03T10:37:44.82Z</time></trkpt><trkpt lat="44.80466" lon="9.3120917"><ele>1160.0</ele><time>2026-05-03T10:37:59.819Z</time></trkpt><trkpt lat="44.8045986" lon="9.3120438"><ele>1160.0</ele><time>2026-05-03T10:38:07.819Z</time></trkpt><trkpt lat="44.8045363" lon="9.3120041"><ele>1160.0</ele><time>2026-05-03T10:38:18.703Z</time></trkpt><trkpt lat="44.8044663" lon="9.3119713"><ele>1160.0</ele><time>2026-05-03T10:38:25.82Z</time></trkpt><trkpt lat="44.8043988" lon="9.311943"><ele>1160.0</ele><time>2026-05-03T10:38:32.722Z</time></trkpt><trkpt lat="44.8043377" lon="9.3119172"><ele>1155.2857142857142</ele><time>2026-05-03T10:38:42.722Z</time></trkpt><trkpt lat="44.8042602" lon="9.31188"><ele>1150.5714285714287</ele><time>2026-05-03T10:38:53.82Z</time></trkpt><trkpt lat="44.8041884" lon="9.311868"><ele>1145.857142857143</ele><time>2026-05-03T10:39:00.782Z</time></trkpt><trkpt lat="44.8041134" lon="9.311886"><ele>1141.142857142857</ele><time>2026-05-03T10:39:07.82Z</time></trkpt><trkpt lat="44.8040495" lon="9.3119045"><ele>1136.4285714285716</ele><time>2026-05-03T10:39:12.819Z</time></trkpt><trkpt lat="44.8039833" lon="9.3119207"><ele>1131.7142857142858</ele><time>2026-05-03T10:39:19.82Z</time></trkpt><trkpt lat="44.8039093" lon="9.3119081"><ele>1127.0</ele><time>2026-05-03T10:39:28.819Z</time></trkpt><trkpt lat="44.8038399" lon="9.3119162"><ele>1127.0</ele><time>2026-05-03T10:39:42.82Z</time></trkpt><trkpt lat="44.8037802" lon="9.3119459"><ele>1127.0</ele><time>2026-05-03T10:39:53.822Z</time></trkpt><trkpt lat="44.8037157" lon="9.3119421"><ele>1127.0</ele><time>2026-05-03T10:40:00.803Z</time></trkpt><trkpt lat="44.8036531" lon="9.3119774"><ele>1127.0</ele><time>2026-05-03T10:40:09.819Z</time></trkpt><trkpt lat="44.8035851" lon="9.312003"><ele>1127.0</ele><time>2026-05-03T10:40:17.023Z</time></trkpt><trkpt lat="44.8035167" lon="9.3120221"><ele>1127.0</ele><time>2026-05-03T10:40:24.022Z</time></trkpt><trkpt lat="44.803447" lon="9.3120539"><ele>1127.0</ele><time>2026-05-03T10:40:31.802Z</time></trkpt><trkpt lat="44.8033835" lon="9.3120874"><ele>1124.0</ele><time>2026-05-03T10:40:35.856Z</time></trkpt><trkpt lat="44.8033198" lon="9.3120937"><ele>1121.0</ele><time>2026-05-03T10:40:39.82Z</time></trkpt><trkpt lat="44.8032525" lon="9.3121006"><ele>1118.0</ele><time>2026-05-03T10:40:45.743Z</time></trkpt><trkpt lat="44.8031867" lon="9.312118"><ele>1115.0</ele><time>2026-05-03T10:40:51.819Z</time></trkpt><trkpt lat="44.8031101" lon="9.3121497"><ele>1112.0</ele><time>2026-05-03T10:40:55.819Z</time></trkpt><trkpt lat="44.8030463" lon="9.3121875"><ele>1109.0</ele><time>2026-05-03T10:40:59.82Z</time></trkpt><trkpt lat="44.8029932" lon="9.3122709"><ele>1106.0</ele><time>2026-05-03T10:41:04.803Z</time></trkpt><trkpt lat="44.802945" lon="9.3123298"><ele>1105.7142857142858</ele><time>2026-05-03T10:41:09.819Z</time></trkpt><trkpt lat="44.8029142" lon="9.3124176"><ele>1105.4285714285716</ele><time>2026-05-03T10:41:16.858Z</time></trkpt><trkpt lat="44.8028734" lon="9.3124987"><ele>1105.142857142857</ele><time>2026-05-03T10:41:22.82Z</time></trkpt><trkpt lat="44.8028331" lon="9.3125809"><ele>1104.857142857143</ele><time>2026-05-03T10:41:26.819Z</time></trkpt><trkpt lat="44.8027754" lon="9.3126555"><ele>1104.5714285714287</ele><time>2026-05-03T10:41:31.847Z</time></trkpt><trkpt lat="44.8027395" lon="9.3127324"><ele>1104.2857142857142</ele><time>2026-05-03T10:41:35.782Z</time></trkpt><trkpt lat="44.8027057" lon="9.3128119"><ele>1104.0</ele><time>2026-05-03T10:41:40.742Z</time></trkpt><trkpt lat="44.8026542" lon="9.3128794"><ele>1103.142857142857</ele><time>2026-05-03T10:41:47.82Z</time></trkpt><trkpt lat="44.8025944" lon="9.312935"><ele>1102.2857142857144</ele><time>2026-05-03T10:41:52.82Z</time></trkpt><trkpt lat="44.8025509" lon="9.3130011"><ele>1101.4285714285716</ele><time>2026-05-03T10:41:57.743Z</time></trkpt><trkpt lat="44.802515" lon="9.3130752"><ele>1100.5714285714287</ele><time>2026-05-03T10:42:03.819Z</time></trkpt><trkpt lat="44.8024648" lon="9.3131334"><ele>1099.7142857142858</ele><time>2026-05-03T10:42:09.82Z</time></trkpt><trkpt lat="44.8024101" lon="9.3131816"><ele>1098.857142857143</ele><time>2026-05-03T10:42:13.82Z</time></trkpt><trkpt lat="44.8023479" lon="9.3132208"><ele>1098.0</ele><time>2026-05-03T10:42:20.83Z</time></trkpt><trkpt lat="44.8022897" lon="9.3132599"><ele>1098.0</ele><time>2026-05-03T10:42:25.823Z</time></trkpt><trkpt lat="44.802227" lon="9.3132681"><ele>1098.0</ele><time>2026-05-03T10:42:29.821Z</time></trkpt><trkpt lat="44.8021707" lon="9.3132229"><ele>1098.0</ele><time>2026-05-03T10:42:38.86Z</time></trkpt><trkpt lat="44.8021562" lon="9.3131353"><ele>1098.0</ele><time>2026-05-03T10:42:50.763Z</time></trkpt><trkpt lat="44.8021967" lon="9.3130609"><ele>1098.0</ele><time>2026-05-03T10:42:56.682Z</time></trkpt><trkpt lat="44.8022087" lon="9.3129724"><ele>1098.0</ele><time>2026-05-03T10:43:03.819Z</time></trkpt><trkpt lat="44.8022375" lon="9.3128887"><ele>1098.0</ele><time>2026-05-03T10:43:12.826Z</time></trkpt><trkpt lat="44.8021837" lon="9.3129505"><ele>1098.0</ele><time>2026-05-03T10:43:21.843Z</time></trkpt><trkpt lat="44.8021394" lon="9.3130223"><ele>1098.0</ele><time>2026-05-03T10:43:29.82Z</time></trkpt><trkpt lat="44.8020909" lon="9.3130904"><ele>1098.0</ele><time>2026-05-03T10:43:36.851Z</time></trkpt><trkpt lat="44.8020461" lon="9.3131529"><ele>1098.0</ele><time>2026-05-03T10:43:42.82Z</time></trkpt><trkpt lat="44.8020037" lon="9.3132208"><ele>1098.0</ele><time>2026-05-03T10:43:47.819Z</time></trkpt><trkpt lat="44.8019606" lon="9.3132962"><ele>1098.0</ele><time>2026-05-03T10:43:53.82Z</time></trkpt><trkpt lat="44.8019137" lon="9.313357"><ele>1098.0</ele><time>2026-05-03T10:44:00.802Z</time></trkpt><trkpt lat="44.8018824" lon="9.3134409"><ele>1098.4285714285713</ele><time>2026-05-03T10:44:05.819Z</time></trkpt><trkpt lat="44.8018618" lon="9.3135283"><ele>1098.857142857143</ele><time>2026-05-03T10:44:09.818Z</time></trkpt><trkpt lat="44.8018024" lon="9.31357"><ele>1099.2857142857142</ele><time>2026-05-03T10:44:17.826Z</time></trkpt><trkpt lat="44.801768" lon="9.313647"><ele>1099.7142857142858</ele><time>2026-05-03T10:44:25.834Z</time></trkpt><trkpt lat="44.801718" lon="9.3137094"><ele>1100.142857142857</ele><time>2026-05-03T10:44:31.762Z</time></trkpt><trkpt lat="44.8016973" lon="9.3137993"><ele>1100.5714285714284</ele><time>2026-05-03T10:45:05.819Z</time></trkpt><trkpt lat="44.8016366" lon="9.3138746"><ele>1101.0</ele><time>2026-05-03T10:52:17.82Z</time></trkpt><trkpt lat="44.8015802" lon="9.3137682"><ele>1101.0</ele><time>2026-05-03T10:52:19.763Z</time></trkpt><trkpt lat="44.8015162" lon="9.3137505"><ele>1101.0</ele><time>2026-05-03T10:52:28.841Z</time></trkpt><trkpt lat="44.8016302" lon="9.3138304"><ele>1101.0</ele><time>2026-05-03T10:55:01.794Z</time></trkpt><trkpt lat="44.8017093" lon="9.3137678"><ele>1101.0</ele><time>2026-05-03T11:13:00.819Z</time></trkpt><trkpt lat="44.8016484" lon="9.3137241"><ele>1101.0</ele><time>2026-05-03T11:13:09.823Z</time></trkpt><trkpt lat="44.8015779" lon="9.3137247"><ele>1101.0</ele><time>2026-05-03T11:13:15.82Z</time></trkpt><trkpt lat="44.8015147" lon="9.3137046"><ele>1101.0</ele><time>2026-05-03T11:13:23.802Z</time></trkpt><trkpt lat="44.8015774" lon="9.313663"><ele>1101.0</ele><time>2026-05-03T11:13:30.747Z</time></trkpt><trkpt lat="44.8016422" lon="9.3136585"><ele>1101.0</ele><time>2026-05-03T11:13:36.779Z</time></trkpt><trkpt lat="44.8017047" lon="9.3136202"><ele>1101.0</ele><time>2026-05-03T11:13:42.82Z</time></trkpt><trkpt lat="44.8017617" lon="9.3135628"><ele>1101.0</ele><time>2026-05-03T11:13:47.843Z</time></trkpt><trkpt lat="44.8018178" lon="9.3135209"><ele>1101.0</ele><time>2026-05-03T11:13:53.835Z</time></trkpt><trkpt lat="44.8018768" lon="9.3134645"><ele>1101.0</ele><time>2026-05-03T11:14:01.842Z</time></trkpt><trkpt lat="44.8019292" lon="9.3134143"><ele>1100.0</ele><time>2026-05-03T11:14:08.82Z</time></trkpt><trkpt lat="44.8019185" lon="9.3135035"><ele>1099.0</ele><time>2026-05-03T11:14:35.746Z</time></trkpt><trkpt lat="44.8018923" lon="9.3135918"><ele>1098.0</ele><time>2026-05-03T11:14:40.739Z</time></trkpt><trkpt lat="44.8018753" lon="9.3136902"><ele>1097.0</ele><time>2026-05-03T11:14:46.72Z</time></trkpt><trkpt lat="44.8018671" lon="9.31379"><ele>1096.0</ele><time>2026-05-03T11:14:52.82Z</time></trkpt><trkpt lat="44.8018597" lon="9.3138853"><ele>1095.0</ele><time>2026-05-03T11:15:00.819Z</time></trkpt><trkpt lat="44.8019172" lon="9.3139241"><ele>1094.0</ele><time>2026-05-03T11:15:11.834Z</time></trkpt><trkpt lat="44.8019608" lon="9.3139931"><ele>1093.2857142857142</ele><time>2026-05-03T11:15:18.802Z</time></trkpt><trkpt lat="44.801971" lon="9.314085"><ele>1092.5714285714284</ele><time>2026-05-03T11:15:23.844Z</time></trkpt><trkpt lat="44.8019805" lon="9.3141801"><ele>1091.857142857143</ele><time>2026-05-03T11:15:31.819Z</time></trkpt><trkpt lat="44.8020184" lon="9.3142673"><ele>1091.142857142857</ele><time>2026-05-03T11:15:39.819Z</time></trkpt><trkpt lat="44.802068" lon="9.3143265"><ele>1090.4285714285716</ele><time>2026-05-03T11:15:47.82Z</time></trkpt><trkpt lat="44.8021166" lon="9.3143881"><ele>1089.7142857142858</ele><time>2026-05-03T11:15:55.826Z</time></trkpt><trkpt lat="44.8021701" lon="9.3144425"><ele>1089.0</ele><time>2026-05-03T11:16:04.821Z</time></trkpt><trkpt lat="44.8021849" lon="9.3145368"><ele>1089.0</ele><time>2026-05-03T11:16:14.783Z</time></trkpt><trkpt lat="44.8022208" lon="9.3146193"><ele>1089.0</ele><time>2026-05-03T11:16:21.827Z</time></trkpt><trkpt lat="44.8022675" lon="9.3147786"><ele>1089.0</ele><time>2026-05-03T11:16:48.82Z</time></trkpt><trkpt lat="44.802276" lon="9.3148692"><ele>1089.0</ele><time>2026-05-03T11:16:55.802Z</time></trkpt><trkpt lat="44.8023208" lon="9.3149559"><ele>1089.0</ele><time>2026-05-03T11:17:02.783Z</time></trkpt><trkpt lat="44.8023743" lon="9.3150138"><ele>1089.0</ele><time>2026-05-03T11:17:08.819Z</time></trkpt><trkpt lat="44.802429" lon="9.3150739"><ele>1087.5714285714287</ele><time>2026-05-03T11:17:22.771Z</time></trkpt><trkpt lat="44.8024935" lon="9.3150776"><ele>1086.142857142857</ele><time>2026-05-03T11:17:26.722Z</time></trkpt><trkpt lat="44.8025565" lon="9.3150624"><ele>1084.7142857142858</ele><time>2026-05-03T11:17:31.714Z</time></trkpt><trkpt lat="44.8026213" lon="9.3150275"><ele>1083.2857142857142</ele><time>2026-05-03T11:17:37.82Z</time></trkpt><trkpt lat="44.8026885" lon="9.315006"><ele>1081.857142857143</ele><time>2026-05-03T11:17:43.043Z</time></trkpt><trkpt lat="44.8027647" lon="9.3149669"><ele>1080.4285714285716</ele><time>2026-05-03T11:17:49.282Z</time></trkpt><trkpt lat="44.8028272" lon="9.3149253"><ele>1079.0</ele><time>2026-05-03T11:17:54.383Z</time></trkpt><trkpt lat="44.8028942" lon="9.3149095"><ele>1077.7142857142858</ele><time>2026-05-03T11:17:58.464Z</time></trkpt><trkpt lat="44.8029643" lon="9.3149036"><ele>1076.4285714285713</ele><time>2026-05-03T11:18:03.503Z</time></trkpt><trkpt lat="44.8030221" lon="9.3148676"><ele>1075.142857142857</ele><time>2026-05-03T11:18:09.582Z</time></trkpt><trkpt lat="44.8030901" lon="9.314881"><ele>1073.857142857143</ele><time>2026-05-03T11:18:20.763Z</time></trkpt><trkpt lat="44.8031616" lon="9.3149186"><ele>1072.5714285714287</ele><time>2026-05-03T11:18:26.802Z</time></trkpt><trkpt lat="44.8032439" lon="9.314925"><ele>1071.2857142857142</ele><time>2026-05-03T11:18:33.82Z</time></trkpt><trkpt lat="44.8033282" lon="9.3149072"><ele>1070.0</ele><time>2026-05-03T11:18:37.819Z</time></trkpt><trkpt lat="44.8034088" lon="9.3149092"><ele>1070.0</ele><time>2026-05-03T11:18:41.819Z</time></trkpt><trkpt lat="44.8034816" lon="9.3149241"><ele>1070.0</ele><time>2026-05-03T11:18:45.82Z</time></trkpt><trkpt lat="44.8035506" lon="9.3149265"><ele>1070.0</ele><time>2026-05-03T11:18:50.82Z</time></trkpt><trkpt lat="44.8036196" lon="9.3149159"><ele>1070.0</ele><time>2026-05-03T11:18:56.82Z</time></trkpt><trkpt lat="44.8036914" lon="9.3149083"><ele>1070.0</ele><time>2026-05-03T11:19:02.662Z</time></trkpt><trkpt lat="44.8037675" lon="9.314922"><ele>1070.0</ele><time>2026-05-03T11:19:07.743Z</time></trkpt><trkpt lat="44.8038322" lon="9.314943"><ele>1070.0</ele><time>2026-05-03T11:19:12.819Z</time></trkpt><trkpt lat="44.8038978" lon="9.314962"><ele>1069.5714285714284</ele><time>2026-05-03T11:19:20.82Z</time></trkpt><trkpt lat="44.8039616" lon="9.3149309"><ele>1069.142857142857</ele><time>2026-05-03T11:19:24.819Z</time></trkpt><trkpt lat="44.8040259" lon="9.314877"><ele>1068.7142857142858</ele><time>2026-05-03T11:19:30.794Z</time></trkpt><trkpt lat="44.8040952" lon="9.3149213"><ele>1068.2857142857142</ele><time>2026-05-03T11:19:40.778Z</time></trkpt><trkpt lat="44.8041607" lon="9.3149529"><ele>1067.857142857143</ele><time>2026-05-03T11:19:47.751Z</time></trkpt><trkpt lat="44.8042208" lon="9.3149909"><ele>1067.4285714285713</ele><time>2026-05-03T11:19:52.621Z</time></trkpt><trkpt lat="44.8042895" lon="9.3150228"><ele>1067.0</ele><time>2026-05-03T11:19:56.782Z</time></trkpt><trkpt lat="44.8043309" lon="9.3150997"><ele>1066.9999999999998</ele><time>2026-05-03T11:20:01.79Z</time></trkpt><trkpt lat="44.8043272" lon="9.3151947"><ele>1067.0</ele><time>2026-05-03T11:20:07.718Z</time></trkpt><trkpt lat="44.8043584" lon="9.315272"><ele>1067.0</ele><time>2026-05-03T11:20:13.751Z</time></trkpt><trkpt lat="44.8044069" lon="9.3153363"><ele>1067.0</ele><time>2026-05-03T11:20:17.807Z</time></trkpt><trkpt lat="44.8044666" lon="9.3153934"><ele>1067.0</ele><time>2026-05-03T11:20:22.716Z</time></trkpt><trkpt lat="44.804508" lon="9.3154628"><ele>1066.9999999999998</ele><time>2026-05-03T11:20:27.762Z</time></trkpt><trkpt lat="44.8045547" lon="9.3155424"><ele>1067.0</ele><time>2026-05-03T11:20:33.78Z</time></trkpt><trkpt lat="44.8045946" lon="9.3156334"><ele>1066.2857142857142</ele><time>2026-05-03T11:20:39.75Z</time></trkpt><trkpt lat="44.8046321" lon="9.315718"><ele>1065.5714285714284</ele><time>2026-05-03T11:20:44.807Z</time></trkpt><trkpt lat="44.8046883" lon="9.315776"><ele>1064.857142857143</ele><time>2026-05-03T11:20:50.819Z</time></trkpt><trkpt lat="44.8047393" lon="9.3158282"><ele>1064.142857142857</ele><time>2026-05-03T11:20:54.83Z</time></trkpt><trkpt lat="44.8048006" lon="9.3158578"><ele>1063.4285714285716</ele><time>2026-05-03T11:20:59.823Z</time></trkpt><trkpt lat="44.8048725" lon="9.3158493"><ele>1062.7142857142858</ele><time>2026-05-03T11:21:05.742Z</time></trkpt><trkpt lat="44.8049402" lon="9.3158328"><ele>1062.0</ele><time>2026-05-03T11:21:15.839Z</time></trkpt><trkpt lat="44.8050002" lon="9.3157991"><ele>1062.0</ele><time>2026-05-03T11:21:22.819Z</time></trkpt><trkpt lat="44.8050613" lon="9.3157517"><ele>1062.0</ele><time>2026-05-03T11:21:28.666Z</time></trkpt><trkpt lat="44.8051271" lon="9.3157156"><ele>1062.0</ele><time>2026-05-03T11:21:35.82Z</time></trkpt><trkpt lat="44.8051829" lon="9.3156598"><ele>1062.0</ele><time>2026-05-03T11:21:43.819Z</time></trkpt><trkpt lat="44.8052332" lon="9.3155785"><ele>1062.0</ele><time>2026-05-03T11:21:49.762Z</time></trkpt><trkpt lat="44.8052734" lon="9.3154979"><ele>1062.0</ele><time>2026-05-03T11:21:55.82Z</time></trkpt><trkpt lat="44.8053153" lon="9.3154274"><ele>1062.0</ele><time>2026-05-03T11:22:00.819Z</time></trkpt><trkpt lat="44.805365" lon="9.3153551"><ele>1064.4285714285716</ele><time>2026-05-03T11:22:05.82Z</time></trkpt><trkpt lat="44.8054126" lon="9.3152923"><ele>1066.857142857143</ele><time>2026-05-03T11:22:09.82Z</time></trkpt><trkpt lat="44.8054561" lon="9.315218"><ele>1069.2857142857142</ele><time>2026-05-03T11:22:16.782Z</time></trkpt><trkpt lat="44.8054924" lon="9.3151425"><ele>1071.7142857142858</ele><time>2026-05-03T11:22:22.857Z</time></trkpt><trkpt lat="44.8055412" lon="9.3150664"><ele>1074.142857142857</ele><time>2026-05-03T11:22:30.823Z</time></trkpt><trkpt lat="44.8055799" lon="9.3149924"><ele>1076.5714285714287</ele><time>2026-05-03T11:22:35.819Z</time></trkpt><trkpt lat="44.8056315" lon="9.314937"><ele>1079.0</ele><time>2026-05-03T11:22:41.819Z</time></trkpt><trkpt lat="44.8056959" lon="9.3148844"><ele>1079.0</ele><time>2026-05-03T11:22:46.802Z</time></trkpt><trkpt lat="44.805762" lon="9.3148606"><ele>1079.0</ele><time>2026-05-03T11:22:51.683Z</time></trkpt><trkpt lat="44.8058351" lon="9.3148728"><ele>1079.0</ele><time>2026-05-03T11:22:58.819Z</time></trkpt><trkpt lat="44.8059004" lon="9.3148959"><ele>1079.0</ele><time>2026-05-03T11:23:04.83Z</time></trkpt><trkpt lat="44.8059729" lon="9.3148989"><ele>1079.0</ele><time>2026-05-03T11:23:09.822Z</time></trkpt><trkpt lat="44.806038" lon="9.3149077"><ele>1079.0</ele><time>2026-05-03T11:23:14.819Z</time></trkpt><trkpt lat="44.8060934" lon="9.31495"><ele>1079.0</ele><time>2026-05-03T11:23:20.82Z</time></trkpt><trkpt lat="44.8061405" lon="9.3150135"><ele>1079.857142857143</ele><time>2026-05-03T11:23:28.819Z</time></trkpt><trkpt lat="44.806175" lon="9.3150973"><ele>1080.7142857142858</ele><time>2026-05-03T11:23:37.819Z</time></trkpt><trkpt lat="44.8062351" lon="9.3151483"><ele>1081.5714285714284</ele><time>2026-05-03T11:23:44.82Z</time></trkpt><trkpt lat="44.8063059" lon="9.3151849"><ele>1082.4285714285716</ele><time>2026-05-03T11:23:49.742Z</time></trkpt><trkpt lat="44.806383" lon="9.3151817"><ele>1083.2857142857142</ele><time>2026-05-03T11:23:55.819Z</time></trkpt><trkpt lat="44.8064521" lon="9.3151996"><ele>1084.142857142857</ele><time>2026-05-03T11:24:01.823Z</time></trkpt><trkpt lat="44.8065183" lon="9.3152407"><ele>1085.0</ele><time>2026-05-03T11:24:08.82Z</time></trkpt><trkpt lat="44.8065782" lon="9.3152813"><ele>1085.0</ele><time>2026-05-03T11:24:14.823Z</time></trkpt><trkpt lat="44.8066489" lon="9.3153171"><ele>1085.0</ele><time>2026-05-03T11:24:20.819Z</time></trkpt><trkpt lat="44.8067079" lon="9.3153551"><ele>1085.0</ele><time>2026-05-03T11:24:24.819Z</time></trkpt><trkpt lat="44.806774" lon="9.3153945"><ele>1085.0</ele><time>2026-05-03T11:24:28.819Z</time></trkpt><trkpt lat="44.8068432" lon="9.315415"><ele>1085.0</ele><time>2026-05-03T11:24:33.82Z</time></trkpt><trkpt lat="44.8069055" lon="9.3154438"><ele>1085.0</ele><time>2026-05-03T11:24:41.82Z</time></trkpt><trkpt lat="44.806975" lon="9.3154808"><ele>1085.0</ele><time>2026-05-03T11:24:45.82Z</time></trkpt><trkpt lat="44.8070364" lon="9.3155158"><ele>1085.2857142857142</ele><time>2026-05-03T11:24:49.82Z</time></trkpt><trkpt lat="44.8070978" lon="9.3155387"><ele>1085.5714285714284</ele><time>2026-05-03T11:24:54.82Z</time></trkpt><trkpt lat="44.8071618" lon="9.3155788"><ele>1085.857142857143</ele><time>2026-05-03T11:25:03.363Z</time></trkpt><trkpt lat="44.807225" lon="9.3155986"><ele>1086.142857142857</ele><time>2026-05-03T11:25:07.784Z</time></trkpt><trkpt lat="44.8072824" lon="9.3156459"><ele>1086.4285714285713</ele><time>2026-05-03T11:25:13.782Z</time></trkpt><trkpt lat="44.8073451" lon="9.3156691"><ele>1086.7142857142858</ele><time>2026-05-03T11:25:18.82Z</time></trkpt><trkpt lat="44.8074136" lon="9.3156915"><ele>1087.0</ele><time>2026-05-03T11:25:24.819Z</time></trkpt><trkpt lat="44.8074755" lon="9.3157354"><ele>1087.0</ele><time>2026-05-03T11:25:29.863Z</time></trkpt><trkpt lat="44.8075134" lon="9.3158183"><ele>1087.0</ele><time>2026-05-03T11:25:35.762Z</time></trkpt><trkpt lat="44.8075553" lon="9.315891"><ele>1087.0</ele><time>2026-05-03T11:25:43.846Z</time></trkpt><trkpt lat="44.8075739" lon="9.3159808"><ele>1087.0</ele><time>2026-05-03T11:25:49.819Z</time></trkpt><trkpt lat="44.8076263" lon="9.3160444"><ele>1087.0</ele><time>2026-05-03T11:25:55.82Z</time></trkpt><trkpt lat="44.8076934" lon="9.316088"><ele>1087.0</ele><time>2026-05-03T11:26:00.763Z</time></trkpt><trkpt lat="44.807757" lon="9.3161273"><ele>1087.0</ele><time>2026-05-03T11:26:06.831Z</time></trkpt><trkpt lat="44.8078097" lon="9.3160721"><ele>1089.1666666666665</ele><time>2026-05-03T11:26:16.82Z</time></trkpt><trkpt lat="44.8079075" lon="9.3160241"><ele>1091.3333333333333</ele><time>2026-05-03T11:26:46.82Z</time></trkpt><trkpt lat="44.8079914" lon="9.3160241"><ele>1093.5</ele><time>2026-05-03T11:27:13.819Z</time></trkpt><trkpt lat="44.8080592" lon="9.3160536"><ele>1095.6666666666667</ele><time>2026-05-03T11:27:19.839Z</time></trkpt><trkpt lat="44.808122" lon="9.3160808"><ele>1097.8333333333335</ele><time>2026-05-03T11:27:29.822Z</time></trkpt><trkpt lat="44.8081835" lon="9.3161034"><ele>1100.0</ele><time>2026-05-03T11:27:37.83Z</time></trkpt><trkpt lat="44.8082561" lon="9.316114"><ele>1100.0</ele><time>2026-05-03T11:27:43.663Z</time></trkpt><trkpt lat="44.8083259" lon="9.316108"><ele>1100.0</ele><time>2026-05-03T11:27:48.819Z</time></trkpt><trkpt lat="44.8083986" lon="9.3161206"><ele>1100.0</ele><time>2026-05-03T11:27:54.82Z</time></trkpt><trkpt lat="44.8084641" lon="9.3161376"><ele>1100.0</ele><time>2026-05-03T11:27:59.762Z</time></trkpt><trkpt lat="44.8085363" lon="9.3161648"><ele>1100.0</ele><time>2026-05-03T11:28:05.782Z</time></trkpt><trkpt lat="44.8085962" lon="9.3161971"><ele>1100.0</ele><time>2026-05-03T11:28:11.865Z</time></trkpt><trkpt lat="44.80866" lon="9.3162479"><ele>1100.0</ele><time>2026-05-03T11:28:16.83Z</time></trkpt><trkpt lat="44.808717" lon="9.3163129"><ele>1099.0</ele><time>2026-05-03T11:28:21.822Z</time></trkpt><trkpt lat="44.8087751" lon="9.3163674"><ele>1098.0</ele><time>2026-05-03T11:28:26.82Z</time></trkpt><trkpt lat="44.8088145" lon="9.316442"><ele>1097.0</ele><time>2026-05-03T11:28:32.82Z</time></trkpt><trkpt lat="44.8088673" lon="9.3165026"><ele>1096.0</ele><time>2026-05-03T11:28:38.82Z</time></trkpt><trkpt lat="44.8089341" lon="9.3165467"><ele>1095.0</ele><time>2026-05-03T11:28:42.83Z</time></trkpt><trkpt lat="44.8089945" lon="9.3166049"><ele>1094.0</ele><time>2026-05-03T11:28:46.819Z</time></trkpt><trkpt lat="44.8090573" lon="9.3166372"><ele>1093.0</ele><time>2026-05-03T11:28:52.82Z</time></trkpt><trkpt lat="44.8091174" lon="9.3166753"><ele>1093.0</ele><time>2026-05-03T11:29:00.863Z</time></trkpt><trkpt lat="44.8091794" lon="9.3167006"><ele>1093.0</ele><time>2026-05-03T11:29:05.819Z</time></trkpt><trkpt lat="44.8092497" lon="9.3167102"><ele>1093.0</ele><time>2026-05-03T11:29:10.82Z</time></trkpt><trkpt lat="44.8093198" lon="9.316682"><ele>1093.0</ele><time>2026-05-03T11:29:15.819Z</time></trkpt><trkpt lat="44.8093821" lon="9.3166483"><ele>1093.0</ele><time>2026-05-03T11:29:19.702Z</time></trkpt><trkpt lat="44.8094554" lon="9.3166226"><ele>1093.0</ele><time>2026-05-03T11:29:23.867Z</time></trkpt><trkpt lat="44.8095253" lon="9.31663"><ele>1093.0</ele><time>2026-05-03T11:29:29.802Z</time></trkpt><trkpt lat="44.8095884" lon="9.3166538"><ele>1093.0</ele><time>2026-05-03T11:29:35.82Z</time></trkpt><trkpt lat="44.809652" lon="9.3166609"><ele>1093.0</ele><time>2026-05-03T11:29:39.822Z</time></trkpt><trkpt lat="44.8097191" lon="9.3166683"><ele>1093.0</ele><time>2026-05-03T11:29:44.744Z</time></trkpt><trkpt lat="44.80979" lon="9.3166692"><ele>1093.0</ele><time>2026-05-03T11:29:50.82Z</time></trkpt><trkpt lat="44.8098566" lon="9.3166371"><ele>1093.0</ele><time>2026-05-03T11:29:57.802Z</time></trkpt><trkpt lat="44.8099105" lon="9.3165725"><ele>1093.0</ele><time>2026-05-03T11:30:03.741Z</time></trkpt><trkpt lat="44.8099607" lon="9.3164997"><ele>1093.0</ele><time>2026-05-03T11:30:10.819Z</time></trkpt><trkpt lat="44.8100063" lon="9.3164365"><ele>1095.7142857142858</ele><time>2026-05-03T11:30:14.819Z</time></trkpt><trkpt lat="44.8100616" lon="9.3163764"><ele>1098.4285714285713</ele><time>2026-05-03T11:30:18.823Z</time></trkpt><trkpt lat="44.8101017" lon="9.3163067"><ele>1101.142857142857</ele><time>2026-05-03T11:30:22.82Z</time></trkpt><trkpt lat="44.8101568" lon="9.3162457"><ele>1103.857142857143</ele><time>2026-05-03T11:30:27.622Z</time></trkpt><trkpt lat="44.8102295" lon="9.3162086"><ele>1106.5714285714287</ele><time>2026-05-03T11:30:32.819Z</time></trkpt><trkpt lat="44.8102957" lon="9.3162061"><ele>1109.2857142857142</ele><time>2026-05-03T11:30:37.822Z</time></trkpt><trkpt lat="44.8103548" lon="9.316249"><ele>1112.0</ele><time>2026-05-03T11:30:44.823Z</time></trkpt><trkpt lat="44.8104152" lon="9.3162874"><ele>1113.0</ele><time>2026-05-03T11:30:49.819Z</time></trkpt><trkpt lat="44.8104804" lon="9.3163445"><ele>1114.0</ele><time>2026-05-03T11:30:54.82Z</time></trkpt><trkpt lat="44.8105426" lon="9.3164015"><ele>1115.0</ele><time>2026-05-03T11:30:59.82Z</time></trkpt><trkpt lat="44.8106085" lon="9.316446"><ele>1116.0</ele><time>2026-05-03T11:31:05.721Z</time></trkpt><trkpt lat="44.8106585" lon="9.316511"><ele>1117.0</ele><time>2026-05-03T11:31:11.822Z</time></trkpt><trkpt lat="44.8107179" lon="9.3165691"><ele>1118.0</ele><time>2026-05-03T11:31:17.82Z</time></trkpt><trkpt lat="44.8107763" lon="9.3166072"><ele>1119.0</ele><time>2026-05-03T11:31:23.822Z</time></trkpt><trkpt lat="44.8108403" lon="9.3166733"><ele>1117.4285714285713</ele><time>2026-05-03T11:31:28.821Z</time></trkpt><trkpt lat="44.810894" lon="9.3167368"><ele>1115.857142857143</ele><time>2026-05-03T11:31:33.763Z</time></trkpt><trkpt lat="44.8109518" lon="9.3167755"><ele>1114.2857142857142</ele><time>2026-05-03T11:31:39.838Z</time></trkpt><trkpt lat="44.8110153" lon="9.3168029"><ele>1112.7142857142858</ele><time>2026-05-03T11:31:43.819Z</time></trkpt><trkpt lat="44.8110797" lon="9.3168276"><ele>1111.142857142857</ele><time>2026-05-03T11:31:49.743Z</time></trkpt><trkpt lat="44.8111483" lon="9.3168129"><ele>1109.5714285714284</ele><time>2026-05-03T11:31:56.819Z</time></trkpt><trkpt lat="44.8112122" lon="9.3167795"><ele>1108.0</ele><time>2026-05-03T11:32:01.819Z</time></trkpt><trkpt lat="44.8112779" lon="9.3167559"><ele>1108.0</ele><time>2026-05-03T11:32:09.819Z</time></trkpt><trkpt lat="44.8113439" lon="9.3167399"><ele>1108.0</ele><time>2026-05-03T11:32:14.82Z</time></trkpt><trkpt lat="44.8114132" lon="9.3167437"><ele>1108.0</ele><time>2026-05-03T11:32:20.819Z</time></trkpt><trkpt lat="44.8114781" lon="9.3167532"><ele>1108.0</ele><time>2026-05-03T11:32:25.82Z</time></trkpt><trkpt lat="44.8115499" lon="9.3167775"><ele>1108.0</ele><time>2026-05-03T11:32:30.82Z</time></trkpt><trkpt lat="44.8116185" lon="9.3168073"><ele>1108.0</ele><time>2026-05-03T11:32:35.743Z</time></trkpt><trkpt lat="44.8116953" lon="9.3168308"><ele>1108.0</ele><time>2026-05-03T11:32:41.865Z</time></trkpt><trkpt lat="44.811765" lon="9.3168432"><ele>1110.857142857143</ele><time>2026-05-03T11:32:47.819Z</time></trkpt><trkpt lat="44.8118323" lon="9.3168701"><ele>1113.7142857142856</ele><time>2026-05-03T11:32:52.846Z</time></trkpt><trkpt lat="44.8118927" lon="9.3169119"><ele>1116.5714285714284</ele><time>2026-05-03T11:32:58.819Z</time></trkpt><trkpt lat="44.8119515" lon="9.316948"><ele>1119.4285714285713</ele><time>2026-05-03T11:33:05.846Z</time></trkpt><trkpt lat="44.8120191" lon="9.3169822"><ele>1122.2857142857142</ele><time>2026-05-03T11:33:11.819Z</time></trkpt><trkpt lat="44.8120579" lon="9.3170552"><ele>1125.142857142857</ele><time>2026-05-03T11:33:18.82Z</time></trkpt><trkpt lat="44.8120853" lon="9.3171351"><ele>1128.0</ele><time>2026-05-03T11:33:25.803Z</time></trkpt><trkpt lat="44.8121855" lon="9.3171907"><ele>1125.4285714285716</ele><time>2026-05-03T11:33:50.82Z</time></trkpt><trkpt lat="44.81224" lon="9.3172426"><ele>1122.857142857143</ele><time>2026-05-03T11:33:54.822Z</time></trkpt><trkpt lat="44.8122888" lon="9.317317"><ele>1120.2857142857142</ele><time>2026-05-03T11:34:00.82Z</time></trkpt><trkpt lat="44.8123404" lon="9.3173784"><ele>1117.7142857142858</ele><time>2026-05-03T11:34:05.802Z</time></trkpt><trkpt lat="44.8123945" lon="9.3174428"><ele>1115.142857142857</ele><time>2026-05-03T11:34:11.82Z</time></trkpt><trkpt lat="44.8124423" lon="9.3175008"><ele>1112.5714285714287</ele><time>2026-05-03T11:34:19.819Z</time></trkpt><trkpt lat="44.8125055" lon="9.3175569"><ele>1110.0</ele><time>2026-05-03T11:34:25.783Z</time></trkpt><trkpt lat="44.8125696" lon="9.3175939"><ele>1110.0000000000002</ele><time>2026-05-03T11:34:30.762Z</time></trkpt><trkpt lat="44.812643" lon="9.3176039"><ele>1110.0</ele><time>2026-05-03T11:34:36.819Z</time></trkpt><trkpt lat="44.8127037" lon="9.3176338"><ele>1110.0</ele><time>2026-05-03T11:34:42.82Z</time></trkpt><trkpt lat="44.812751" lon="9.3177092"><ele>1110.0</ele><time>2026-05-03T11:34:49.819Z</time></trkpt><trkpt lat="44.812783" lon="9.3177924"><ele>1110.0</ele><time>2026-05-03T11:34:56.82Z</time></trkpt><trkpt lat="44.8128306" lon="9.3178581"><ele>1110.0000000000002</ele><time>2026-05-03T11:35:01.82Z</time></trkpt><trkpt lat="44.8128679" lon="9.3179348"><ele>1110.0</ele><time>2026-05-03T11:35:06.823Z</time></trkpt><trkpt lat="44.8128894" lon="9.3180239"><ele>1110.857142857143</ele><time>2026-05-03T11:35:11.723Z</time></trkpt><trkpt lat="44.8129512" lon="9.3180858"><ele>1111.7142857142858</ele><time>2026-05-03T11:35:17.823Z</time></trkpt><trkpt lat="44.8130079" lon="9.3181308"><ele>1112.5714285714284</ele><time>2026-05-03T11:35:21.82Z</time></trkpt><trkpt lat="44.8130594" lon="9.3182095"><ele>1113.4285714285716</ele><time>2026-05-03T11:35:25.831Z</time></trkpt><trkpt lat="44.8131155" lon="9.318277"><ele>1114.2857142857142</ele><time>2026-05-03T11:35:30.722Z</time></trkpt><trkpt lat="44.813148" lon="9.3183679"><ele>1115.142857142857</ele><time>2026-05-03T11:35:36.803Z</time></trkpt><trkpt lat="44.8132058" lon="9.3184313"><ele>1116.0</ele><time>2026-05-03T11:35:42.82Z</time></trkpt><trkpt lat="44.8132708" lon="9.3184756"><ele>1115.9999999999998</ele><time>2026-05-03T11:35:47.819Z</time></trkpt><trkpt lat="44.8133368" lon="9.3184979"><ele>1116.0</ele><time>2026-05-03T11:35:53.819Z</time></trkpt><trkpt lat="44.8134004" lon="9.3185566"><ele>1116.0</ele><time>2026-05-03T11:35:58.798Z</time></trkpt><trkpt lat="44.8134584" lon="9.3186336"><ele>1116.0</ele><time>2026-05-03T11:36:03.82Z</time></trkpt><trkpt lat="44.8135259" lon="9.3186788"><ele>1116.0</ele><time>2026-05-03T11:36:08.82Z</time></trkpt><trkpt lat="44.8135904" lon="9.3186958"><ele>1115.9999999999998</ele><time>2026-05-03T11:36:14.819Z</time></trkpt><trkpt lat="44.8136594" lon="9.3187272"><ele>1116.0</ele><time>2026-05-03T11:36:22.822Z</time></trkpt><trkpt lat="44.8137211" lon="9.318773"><ele>1115.8571428571427</ele><time>2026-05-03T11:36:27.819Z</time></trkpt><trkpt lat="44.8137975" lon="9.3187978"><ele>1115.7142857142858</ele><time>2026-05-03T11:36:31.819Z</time></trkpt><trkpt lat="44.8138582" lon="9.3188267"><ele>1115.5714285714284</ele><time>2026-05-03T11:36:34.803Z</time></trkpt><trkpt lat="44.8139277" lon="9.3188469"><ele>1115.4285714285713</ele><time>2026-05-03T11:36:39.822Z</time></trkpt><trkpt lat="44.8139892" lon="9.3189061"><ele>1115.2857142857142</ele><time>2026-05-03T11:36:46.819Z</time></trkpt><trkpt lat="44.814055" lon="9.3189446"><ele>1115.142857142857</ele><time>2026-05-03T11:36:51.838Z</time></trkpt><trkpt lat="44.8141182" lon="9.318946"><ele>1115.0</ele><time>2026-05-03T11:36:57.819Z</time></trkpt><trkpt lat="44.8141919" lon="9.3189346"><ele>1115.0</ele><time>2026-05-03T11:37:04.838Z</time></trkpt><trkpt lat="44.8142554" lon="9.3189478"><ele>1115.0</ele><time>2026-05-03T11:37:10.82Z</time></trkpt><trkpt lat="44.8143282" lon="9.3189546"><ele>1115.0</ele><time>2026-05-03T11:37:16.82Z</time></trkpt><trkpt lat="44.8143954" lon="9.3189527"><ele>1115.0</ele><time>2026-05-03T11:37:21.819Z</time></trkpt><trkpt lat="44.8144673" lon="9.3189426"><ele>1115.0</ele><time>2026-05-03T11:37:29.799Z</time></trkpt><trkpt lat="44.8145239" lon="9.3188894"><ele>1115.0</ele><time>2026-05-03T11:37:35.726Z</time></trkpt><trkpt lat="44.8145816" lon="9.3188383"><ele>1115.0</ele><time>2026-05-03T11:37:40.718Z</time></trkpt><trkpt lat="44.8146356" lon="9.318776"><ele>1114.5714285714284</ele><time>2026-05-03T11:37:46.751Z</time></trkpt><trkpt lat="44.8146698" lon="9.3186975"><ele>1114.142857142857</ele><time>2026-05-03T11:37:51.819Z</time></trkpt><trkpt lat="44.8146977" lon="9.3186117"><ele>1113.7142857142858</ele><time>2026-05-03T11:37:58.82Z</time></trkpt><trkpt lat="44.8147498" lon="9.3185592"><ele>1113.2857142857142</ele><time>2026-05-03T11:38:05.819Z</time></trkpt><trkpt lat="44.8147875" lon="9.3184807"><ele>1112.857142857143</ele><time>2026-05-03T11:38:09.839Z</time></trkpt><trkpt lat="44.8148393" lon="9.3183918"><ele>1112.4285714285713</ele><time>2026-05-03T11:38:13.82Z</time></trkpt><trkpt lat="44.8148677" lon="9.3182998"><ele>1112.0</ele><time>2026-05-03T11:38:18.82Z</time></trkpt><trkpt lat="44.8148898" lon="9.3181997"><ele>1112.0</ele><time>2026-05-03T11:38:23.774Z</time></trkpt><trkpt lat="44.8148992" lon="9.3181096"><ele>1112.0</ele><time>2026-05-03T11:38:28.82Z</time></trkpt><trkpt lat="44.814909" lon="9.318018"><ele>1112.0</ele><time>2026-05-03T11:38:34.82Z</time></trkpt><trkpt lat="44.8149187" lon="9.3179263"><ele>1112.0</ele><time>2026-05-03T11:38:39.819Z</time></trkpt><trkpt lat="44.8149413" lon="9.3178333"><ele>1112.0</ele><time>2026-05-03T11:38:44.563Z</time></trkpt><trkpt lat="44.8149732" lon="9.3177491"><ele>1112.0</ele><time>2026-05-03T11:38:49.423Z</time></trkpt><trkpt lat="44.8149992" lon="9.3176501"><ele>1112.0</ele><time>2026-05-03T11:38:54.322Z</time></trkpt><trkpt lat="44.8149796" lon="9.3175468"><ele>1111.2857142857142</ele><time>2026-05-03T11:38:59.362Z</time></trkpt><trkpt lat="44.8149764" lon="9.3174495"><ele>1110.5714285714287</ele><time>2026-05-03T11:39:03.503Z</time></trkpt><trkpt lat="44.8149428" lon="9.3173744"><ele>1109.857142857143</ele><time>2026-05-03T11:39:08.622Z</time></trkpt><trkpt lat="44.814908" lon="9.3172876"><ele>1109.142857142857</ele><time>2026-05-03T11:39:13.802Z</time></trkpt><trkpt lat="44.8148763" lon="9.3172015"><ele>1108.4285714285713</ele><time>2026-05-03T11:39:18.819Z</time></trkpt><trkpt lat="44.8148711" lon="9.3171025"><ele>1107.7142857142858</ele><time>2026-05-03T11:39:23.82Z</time></trkpt><trkpt lat="44.8148321" lon="9.3170278"><ele>1107.0</ele><time>2026-05-03T11:39:29.819Z</time></trkpt><trkpt lat="44.8147931" lon="9.3169391"><ele>1106.142857142857</ele><time>2026-05-03T11:39:35.819Z</time></trkpt><trkpt lat="44.8147743" lon="9.3168343"><ele>1105.2857142857142</ele><time>2026-05-03T11:39:40.822Z</time></trkpt><trkpt lat="44.8147449" lon="9.3167416"><ele>1104.4285714285713</ele><time>2026-05-03T11:39:46.701Z</time></trkpt><trkpt lat="44.8147293" lon="9.3166442"><ele>1103.5714285714284</ele><time>2026-05-03T11:39:52.82Z</time></trkpt><trkpt lat="44.8147248" lon="9.3165526"><ele>1102.7142857142856</ele><time>2026-05-03T11:39:58.831Z</time></trkpt><trkpt lat="44.8147382" lon="9.3164584"><ele>1101.857142857143</ele><time>2026-05-03T11:40:05.82Z</time></trkpt><trkpt lat="44.8147454" lon="9.3163554"><ele>1101.0</ele><time>2026-05-03T11:40:11.822Z</time></trkpt><trkpt lat="44.8147377" lon="9.3162667"><ele>1100.857142857143</ele><time>2026-05-03T11:40:16.822Z</time></trkpt><trkpt lat="44.814728" lon="9.3161718"><ele>1100.7142857142856</ele><time>2026-05-03T11:40:22.819Z</time></trkpt><trkpt lat="44.8147193" lon="9.3160828"><ele>1100.5714285714284</ele><time>2026-05-03T11:40:28.82Z</time></trkpt><trkpt lat="44.8147209" lon="9.3159782"><ele>1100.4285714285713</ele><time>2026-05-03T11:40:33.82Z</time></trkpt><trkpt lat="44.8147435" lon="9.3158845"><ele>1100.2857142857142</ele><time>2026-05-03T11:40:39.82Z</time></trkpt><trkpt lat="44.8147554" lon="9.3157901"><ele>1100.142857142857</ele><time>2026-05-03T11:40:45.838Z</time></trkpt><trkpt lat="44.8147813" lon="9.3156992"><ele>1100.0</ele><time>2026-05-03T11:40:51.766Z</time></trkpt><trkpt lat="44.8147796" lon="9.31561"><ele>1099.142857142857</ele><time>2026-05-03T11:40:56.819Z</time></trkpt><trkpt lat="44.8147723" lon="9.3155128"><ele>1098.2857142857142</ele><time>2026-05-03T11:41:01.685Z</time></trkpt><trkpt lat="44.8147793" lon="9.3154223"><ele>1097.4285714285713</ele><time>2026-05-03T11:41:05.82Z</time></trkpt><trkpt lat="44.8147703" lon="9.3153298"><ele>1096.5714285714284</ele><time>2026-05-03T11:41:10.82Z</time></trkpt><trkpt lat="44.8147643" lon="9.3152313"><ele>1095.7142857142856</ele><time>2026-05-03T11:41:15.82Z</time></trkpt><trkpt lat="44.8147376" lon="9.315148"><ele>1094.857142857143</ele><time>2026-05-03T11:41:19.805Z</time></trkpt><trkpt lat="44.8146924" lon="9.3150668"><ele>1094.0</ele><time>2026-05-03T11:41:24.839Z</time></trkpt><trkpt lat="44.8146552" lon="9.3149745"><ele>1094.0</ele><time>2026-05-03T11:41:30.82Z</time></trkpt><trkpt lat="44.8146412" lon="9.3148822"><ele>1094.0</ele><time>2026-05-03T11:41:35.82Z</time></trkpt><trkpt lat="44.8146351" lon="9.3147698"><ele>1094.0</ele><time>2026-05-03T11:41:40.819Z</time></trkpt><trkpt lat="44.8146256" lon="9.3146659"><ele>1094.0</ele><time>2026-05-03T11:41:45.819Z</time></trkpt><trkpt lat="44.8145924" lon="9.3145761"><ele>1094.0</ele><time>2026-05-03T11:41:50.839Z</time></trkpt><trkpt lat="44.8145527" lon="9.3144899"><ele>1094.0</ele><time>2026-05-03T11:41:56.763Z</time></trkpt><trkpt lat="44.8145473" lon="9.3143934"><ele>1094.0</ele><time>2026-05-03T11:42:01.819Z</time></trkpt><trkpt lat="44.8145155" lon="9.3143155"><ele>1092.4285714285713</ele><time>2026-05-03T11:42:09.82Z</time></trkpt><trkpt lat="44.8145315" lon="9.3142111"><ele>1090.8571428571427</ele><time>2026-05-03T11:42:15.853Z</time></trkpt><trkpt lat="44.8144945" lon="9.3141167"><ele>1089.2857142857142</ele><time>2026-05-03T11:42:20.82Z</time></trkpt><trkpt lat="44.8144945" lon="9.314014"><ele>1087.7142857142858</ele><time>2026-05-03T11:42:26.803Z</time></trkpt><trkpt lat="44.8144819" lon="9.3139226"><ele>1086.1428571428573</ele><time>2026-05-03T11:42:31.819Z</time></trkpt><trkpt lat="44.8144561" lon="9.3138298"><ele>1084.5714285714287</ele><time>2026-05-03T11:42:36.781Z</time></trkpt><trkpt lat="44.814409" lon="9.313761"><ele>1083.0</ele><time>2026-05-03T11:42:41.823Z</time></trkpt><trkpt lat="44.8143705" lon="9.3136886"><ele>1083.0</ele><time>2026-05-03T11:42:46.722Z</time></trkpt><trkpt lat="44.8143249" lon="9.3136131"><ele>1083.0</ele><time>2026-05-03T11:42:52.822Z</time></trkpt><trkpt lat="44.8142965" lon="9.3135313"><ele>1083.0</ele><time>2026-05-03T11:43:06.82Z</time></trkpt><trkpt lat="44.8143272" lon="9.3134527"><ele>1083.0</ele><time>2026-05-03T11:43:18.822Z</time></trkpt><trkpt lat="44.8143492" lon="9.3133547"><ele>1083.0</ele><time>2026-05-03T11:43:23.802Z</time></trkpt><trkpt lat="44.8143806" lon="9.3132775"><ele>1083.0</ele><time>2026-05-03T11:43:26.861Z</time></trkpt><trkpt lat="44.8144178" lon="9.313196"><ele>1083.0</ele><time>2026-05-03T11:43:32.803Z</time></trkpt><trkpt lat="44.8144615" lon="9.3131201"><ele>1084.0</ele><time>2026-05-03T11:43:42.723Z</time></trkpt><trkpt lat="44.8144818" lon="9.3130328"><ele>1085.0</ele><time>2026-05-03T11:43:47.839Z</time></trkpt><trkpt lat="44.8144802" lon="9.312933"><ele>1086.0</ele><time>2026-05-03T11:43:51.82Z</time></trkpt><trkpt lat="44.8144807" lon="9.312824"><ele>1087.0</ele><time>2026-05-03T11:43:55.819Z</time></trkpt><trkpt lat="44.8144741" lon="9.3127163"><ele>1088.0</ele><time>2026-05-03T11:44:00.819Z</time></trkpt><trkpt lat="44.814475" lon="9.3126204"><ele>1089.0</ele><time>2026-05-03T11:44:04.819Z</time></trkpt><trkpt lat="44.8144926" lon="9.3125176"><ele>1090.0</ele><time>2026-05-03T11:44:10.762Z</time></trkpt><trkpt lat="44.8145084" lon="9.3124265"><ele>1090.0</ele><time>2026-05-03T11:44:16.601Z</time></trkpt><trkpt lat="44.8145141" lon="9.3123224"><ele>1090.0</ele><time>2026-05-03T11:44:21.522Z</time></trkpt><trkpt lat="44.8144959" lon="9.3122315"><ele>1090.0</ele><time>2026-05-03T11:44:26.563Z</time></trkpt><trkpt lat="44.8144835" lon="9.3121269"><ele>1090.0</ele><time>2026-05-03T11:44:32.683Z</time></trkpt><trkpt lat="44.8144777" lon="9.3120258"><ele>1090.0</ele><time>2026-05-03T11:44:37.82Z</time></trkpt><trkpt lat="44.8144831" lon="9.3119157"><ele>1090.0</ele><time>2026-05-03T11:44:42.783Z</time></trkpt><trkpt lat="44.8145091" lon="9.3118314"><ele>1090.0</ele><time>2026-05-03T11:44:46.762Z</time></trkpt><trkpt lat="44.8144888" lon="9.311731"><ele>1090.4285714285716</ele><time>2026-05-03T11:44:52.838Z</time></trkpt><trkpt lat="44.8144608" lon="9.3116353"><ele>1090.857142857143</ele><time>2026-05-03T11:44:58.82Z</time></trkpt><trkpt lat="44.8144334" lon="9.311547"><ele>1091.2857142857142</ele><time>2026-05-03T11:45:03.863Z</time></trkpt><trkpt lat="44.8143954" lon="9.3114638"><ele>1091.7142857142858</ele><time>2026-05-03T11:45:09.82Z</time></trkpt><trkpt lat="44.8143573" lon="9.3113926"><ele>1092.142857142857</ele><time>2026-05-03T11:45:15.822Z</time></trkpt><trkpt lat="44.8143075" lon="9.311336"><ele>1092.5714285714287</ele><time>2026-05-03T11:45:20.82Z</time></trkpt><trkpt lat="44.8142607" lon="9.3112588"><ele>1093.0</ele><time>2026-05-03T11:45:26.847Z</time></trkpt><trkpt lat="44.8142345" lon="9.3111755"><ele>1098.142857142857</ele><time>2026-05-03T11:45:33.819Z</time></trkpt><trkpt lat="44.8142126" lon="9.3110852"><ele>1103.2857142857142</ele><time>2026-05-03T11:45:41.822Z</time></trkpt><trkpt lat="44.814174" lon="9.311014"><ele>1108.4285714285713</ele><time>2026-05-03T11:45:49.83Z</time></trkpt><trkpt lat="44.8141525" lon="9.3109246"><ele>1113.5714285714284</ele><time>2026-05-03T11:45:57.838Z</time></trkpt><trkpt lat="44.8140887" lon="9.3108756"><ele>1118.7142857142856</ele><time>2026-05-03T11:46:04.82Z</time></trkpt><trkpt lat="44.8140259" lon="9.3108413"><ele>1123.857142857143</ele><time>2026-05-03T11:46:11.82Z</time></trkpt><trkpt lat="44.8139829" lon="9.3107278"><ele>1129.0</ele><time>2026-05-03T11:46:29.821Z</time></trkpt><trkpt lat="44.8140493" lon="9.3107499"><ele>1129.0</ele><time>2026-05-03T11:46:40.82Z</time></trkpt><trkpt lat="44.8141139" lon="9.3107201"><ele>1129.0</ele><time>2026-05-03T11:46:48.82Z</time></trkpt><trkpt lat="44.8141679" lon="9.3106731"><ele>1129.0</ele><time>2026-05-03T11:46:57.82Z</time></trkpt><trkpt lat="44.8142304" lon="9.310618"><ele>1129.0</ele><time>2026-05-03T11:47:04.82Z</time></trkpt><trkpt lat="44.8142912" lon="9.3105669"><ele>1129.0</ele><time>2026-05-03T11:47:09.803Z</time></trkpt><trkpt lat="44.8143387" lon="9.3104973"><ele>1129.0</ele><time>2026-05-03T11:47:15.839Z</time></trkpt><trkpt lat="44.8143877" lon="9.3104263"><ele>1129.0</ele><time>2026-05-03T11:47:20.782Z</time></trkpt><trkpt lat="44.8144465" lon="9.3103615"><ele>1128.0</ele><time>2026-05-03T11:47:25.822Z</time></trkpt><trkpt lat="44.8144962" lon="9.3103033"><ele>1127.0</ele><time>2026-05-03T11:47:30.819Z</time></trkpt><trkpt lat="44.8145586" lon="9.3102743"><ele>1126.0</ele><time>2026-05-03T11:47:37.82Z</time></trkpt><trkpt lat="44.8146249" lon="9.3102542"><ele>1125.0</ele><time>2026-05-03T11:47:44.442Z</time></trkpt><trkpt lat="44.8146847" lon="9.3102097"><ele>1124.0</ele><time>2026-05-03T11:47:49.82Z</time></trkpt><trkpt lat="44.8147277" lon="9.3101363"><ele>1123.0</ele><time>2026-05-03T11:47:57.751Z</time></trkpt><trkpt lat="44.8147536" lon="9.3100514"><ele>1122.0</ele><time>2026-05-03T11:48:01.712Z</time></trkpt><trkpt lat="44.8147795" lon="9.3099704"><ele>1122.0</ele><time>2026-05-03T11:48:06.799Z</time></trkpt><trkpt lat="44.8148263" lon="9.3099075"><ele>1122.0</ele><time>2026-05-03T11:48:13.767Z</time></trkpt><trkpt lat="44.8148832" lon="9.3098657"><ele>1122.0</ele><time>2026-05-03T11:48:19.799Z</time></trkpt><trkpt lat="44.8149548" lon="9.3099573"><ele>1122.0</ele><time>2026-05-03T11:48:46.839Z</time></trkpt><trkpt lat="44.8149827" lon="9.3100389"><ele>1122.0</ele><time>2026-05-03T11:48:54.745Z</time></trkpt><trkpt lat="44.8150432" lon="9.3100839"><ele>1122.0</ele><time>2026-05-03T11:49:04.83Z</time></trkpt><trkpt lat="44.8150998" lon="9.3101265"><ele>1122.0</ele><time>2026-05-03T11:49:12.839Z</time></trkpt><trkpt lat="44.8151631" lon="9.3101337"><ele>1119.7142857142858</ele><time>2026-05-03T11:49:19.82Z</time></trkpt><trkpt lat="44.8152362" lon="9.3101543"><ele>1117.4285714285713</ele><time>2026-05-03T11:49:29.82Z</time></trkpt><trkpt lat="44.815292" lon="9.3102007"><ele>1115.142857142857</ele><time>2026-05-03T11:49:36.825Z</time></trkpt><trkpt lat="44.8153519" lon="9.3102288"><ele>1112.857142857143</ele><time>2026-05-03T11:49:45.819Z</time></trkpt><trkpt lat="44.8154172" lon="9.3102377"><ele>1110.5714285714284</ele><time>2026-05-03T11:49:53.304Z</time></trkpt><trkpt lat="44.8154857" lon="9.3102743"><ele>1108.2857142857142</ele><time>2026-05-03T11:49:59.765Z</time></trkpt><trkpt lat="44.8155488" lon="9.3103004"><ele>1106.0</ele><time>2026-05-03T11:50:09.83Z</time></trkpt><trkpt lat="44.8156102" lon="9.3103231"><ele>1106.0</ele><time>2026-05-03T11:50:15.745Z</time></trkpt><trkpt lat="44.8156778" lon="9.3103353"><ele>1106.0</ele><time>2026-05-03T11:50:21.819Z</time></trkpt><trkpt lat="44.8157448" lon="9.3103593"><ele>1106.0</ele><time>2026-05-03T11:50:28.819Z</time></trkpt><trkpt lat="44.8158184" lon="9.3103565"><ele>1106.0</ele><time>2026-05-03T11:50:34.825Z</time></trkpt><trkpt lat="44.8158872" lon="9.3103358"><ele>1106.0</ele><time>2026-05-03T11:50:41.82Z</time></trkpt><trkpt lat="44.8159567" lon="9.3103122"><ele>1106.0</ele><time>2026-05-03T11:50:48.625Z</time></trkpt><trkpt lat="44.8160309" lon="9.3103041"><ele>1106.0</ele><time>2026-05-03T11:50:54.568Z</time></trkpt><trkpt lat="44.8160935" lon="9.3103432"><ele>1103.142857142857</ele><time>2026-05-03T11:51:01.826Z</time></trkpt><trkpt lat="44.8161592" lon="9.3103688"><ele>1100.2857142857142</ele><time>2026-05-03T11:51:10.709Z</time></trkpt><trkpt lat="44.816222" lon="9.3104162"><ele>1097.4285714285716</ele><time>2026-05-03T11:51:18.819Z</time></trkpt><trkpt lat="44.8162883" lon="9.3104515"><ele>1094.5714285714284</ele><time>2026-05-03T11:51:23.77Z</time></trkpt><trkpt lat="44.8163527" lon="9.3104756"><ele>1091.7142857142858</ele><time>2026-05-03T11:51:27.831Z</time></trkpt><trkpt lat="44.8164265" lon="9.3104802"><ele>1088.857142857143</ele><time>2026-05-03T11:51:33.819Z</time></trkpt><trkpt lat="44.8164862" lon="9.310441"><ele>1086.0</ele><time>2026-05-03T11:51:41.858Z</time></trkpt><trkpt lat="44.816564" lon="9.3104403"><ele>1086.0</ele><time>2026-05-03T11:51:47.819Z</time></trkpt><trkpt lat="44.816632" lon="9.3104377"><ele>1086.0</ele><time>2026-05-03T11:51:52.819Z</time></trkpt><trkpt lat="44.8166965" lon="9.3104575"><ele>1086.0</ele><time>2026-05-03T11:52:06.83Z</time></trkpt><trkpt lat="44.8167641" lon="9.3104633"><ele>1086.0</ele><time>2026-05-03T11:52:18.82Z</time></trkpt><trkpt lat="44.8168329" lon="9.3104961"><ele>1086.0</ele><time>2026-05-03T11:52:26.819Z</time></trkpt><trkpt lat="44.8169001" lon="9.3105268"><ele>1086.0</ele><time>2026-05-03T11:52:33.73Z</time></trkpt><trkpt lat="44.8169623" lon="9.3105507"><ele>1086.0</ele><time>2026-05-03T11:52:40.839Z</time></trkpt><trkpt lat="44.8170175" lon="9.3106006"><ele>1081.7142857142858</ele><time>2026-05-03T11:52:51.759Z</time></trkpt><trkpt lat="44.817112" lon="9.3106544"><ele>1077.4285714285713</ele><time>2026-05-03T11:53:22.82Z</time></trkpt><trkpt lat="44.8171654" lon="9.310708"><ele>1073.142857142857</ele><time>2026-05-03T11:53:27.825Z</time></trkpt><trkpt lat="44.8172243" lon="9.3107426"><ele>1068.857142857143</ele><time>2026-05-03T11:53:32.839Z</time></trkpt><trkpt lat="44.8172976" lon="9.3107548"><ele>1064.5714285714287</ele><time>2026-05-03T11:53:40.819Z</time></trkpt><trkpt lat="44.8173637" lon="9.310758"><ele>1060.2857142857142</ele><time>2026-05-03T11:53:49.808Z</time></trkpt><trkpt lat="44.8174321" lon="9.3107847"><ele>1056.0</ele><time>2026-05-03T11:53:55.768Z</time></trkpt><trkpt lat="44.8174883" lon="9.3108249"><ele>1056.0</ele><time>2026-05-03T11:54:01.819Z</time></trkpt><trkpt lat="44.8175135" lon="9.3109072"><ele>1056.0</ele><time>2026-05-03T11:54:08.668Z</time></trkpt><trkpt lat="44.8175578" lon="9.3109788"><ele>1056.0</ele><time>2026-05-03T11:54:15.725Z</time></trkpt><trkpt lat="44.8176271" lon="9.3110023"><ele>1056.0</ele><time>2026-05-03T11:54:20.819Z</time></trkpt><trkpt lat="44.8176878" lon="9.3110277"><ele>1056.0</ele><time>2026-05-03T11:54:24.82Z</time></trkpt><trkpt lat="44.8177522" lon="9.3110517"><ele>1056.0</ele><time>2026-05-03T11:54:29.83Z</time></trkpt><trkpt lat="44.8178187" lon="9.311074"><ele>1056.0</ele><time>2026-05-03T11:54:34.822Z</time></trkpt><trkpt lat="44.8178793" lon="9.3111099"><ele>1053.0</ele><time>2026-05-03T11:54:39.82Z</time></trkpt><trkpt lat="44.8179366" lon="9.3111707"><ele>1050.0</ele><time>2026-05-03T11:54:48.71Z</time></trkpt><trkpt lat="44.8179975" lon="9.3112183"><ele>1047.0</ele><time>2026-05-03T11:54:53.689Z</time></trkpt><trkpt lat="44.8180568" lon="9.3112503"><ele>1044.0</ele><time>2026-05-03T11:54:57.528Z</time></trkpt><trkpt lat="44.8181053" lon="9.3113082"><ele>1041.0</ele><time>2026-05-03T11:55:03.726Z</time></trkpt><trkpt lat="44.818153" lon="9.3113675"><ele>1038.0</ele><time>2026-05-03T11:55:11.766Z</time></trkpt><trkpt lat="44.8181947" lon="9.3114363"><ele>1035.0</ele><time>2026-05-03T11:55:17.82Z</time></trkpt><trkpt lat="44.8182304" lon="9.3115118"><ele>1033.4285714285713</ele><time>2026-05-03T11:55:26.724Z</time></trkpt><trkpt lat="44.8182363" lon="9.3116051"><ele>1031.857142857143</ele><time>2026-05-03T11:55:33.712Z</time></trkpt><trkpt lat="44.8183044" lon="9.3116387"><ele>1030.2857142857142</ele><time>2026-05-03T11:55:40.624Z</time></trkpt><trkpt lat="44.8183678" lon="9.3116356"><ele>1028.7142857142858</ele><time>2026-05-03T11:55:49.819Z</time></trkpt><trkpt lat="44.8184403" lon="9.3116507"><ele>1027.142857142857</ele><time>2026-05-03T11:55:56.819Z</time></trkpt><trkpt lat="44.8185131" lon="9.311661"><ele>1025.5714285714284</ele><time>2026-05-03T11:56:01.82Z</time></trkpt><trkpt lat="44.8185794" lon="9.3116676"><ele>1024.0</ele><time>2026-05-03T11:56:05.823Z</time></trkpt><trkpt lat="44.818646" lon="9.3116931"><ele>1021.5714285714286</ele><time>2026-05-03T11:56:12.819Z</time></trkpt><trkpt lat="44.8187155" lon="9.3116859"><ele>1019.1428571428571</ele><time>2026-05-03T11:56:22.82Z</time></trkpt><trkpt lat="44.8187819" lon="9.3117188"><ele>1016.7142857142857</ele><time>2026-05-03T11:56:28.82Z</time></trkpt><trkpt lat="44.8188353" lon="9.3117717"><ele>1014.2857142857142</ele><time>2026-05-03T11:56:39.831Z</time></trkpt><trkpt lat="44.8188895" lon="9.3118209"><ele>1011.8571428571429</ele><time>2026-05-03T11:56:49.819Z</time></trkpt><trkpt lat="44.8189547" lon="9.3118416"><ele>1009.4285714285713</ele><time>2026-05-03T11:56:58.82Z</time></trkpt><trkpt lat="44.8190119" lon="9.3118828"><ele>1007.0</ele><time>2026-05-03T11:57:04.82Z</time></trkpt><trkpt lat="44.8190722" lon="9.3119171"><ele>1007.0</ele><time>2026-05-03T11:57:10.822Z</time></trkpt><trkpt lat="44.8191427" lon="9.3119394"><ele>1007.0</ele><time>2026-05-03T11:57:16.819Z</time></trkpt><trkpt lat="44.8192044" lon="9.3119667"><ele>1007.0</ele><time>2026-05-03T11:57:21.82Z</time></trkpt><trkpt lat="44.8192543" lon="9.3120232"><ele>1007.0</ele><time>2026-05-03T11:57:26.564Z</time></trkpt><trkpt lat="44.8193007" lon="9.3120851"><ele>1007.0</ele><time>2026-05-03T11:57:34.305Z</time></trkpt><trkpt lat="44.8193223" lon="9.3121751"><ele>1007.0</ele><time>2026-05-03T11:57:39.345Z</time></trkpt><trkpt lat="44.8193387" lon="9.3122643"><ele>1007.0</ele><time>2026-05-03T11:57:45.344Z</time></trkpt><trkpt lat="44.8193752" lon="9.3123515"><ele>1004.8571428571429</ele><time>2026-05-03T11:57:51.563Z</time></trkpt><trkpt lat="44.8194153" lon="9.3124434"><ele>1002.7142857142858</ele><time>2026-05-03T11:57:56.688Z</time></trkpt><trkpt lat="44.8194639" lon="9.3125068"><ele>1000.5714285714287</ele><time>2026-05-03T11:58:01.71Z</time></trkpt><trkpt lat="44.8195278" lon="9.3125344"><ele>998.4285714285714</ele><time>2026-05-03T11:58:05.839Z</time></trkpt><trkpt lat="44.8195895" lon="9.3125589"><ele>996.2857142857144</ele><time>2026-05-03T11:58:10.831Z</time></trkpt><trkpt lat="44.8196574" lon="9.3125876"><ele>994.1428571428572</ele><time>2026-05-03T11:58:18.819Z</time></trkpt><trkpt lat="44.8197153" lon="9.312639"><ele>992.0</ele><time>2026-05-03T11:58:25.82Z</time></trkpt><trkpt lat="44.8197887" lon="9.3127196"><ele>992.0</ele><time>2026-05-03T11:58:52.82Z</time></trkpt><trkpt lat="44.8198481" lon="9.3127823"><ele>992.0000000000001</ele><time>2026-05-03T11:58:57.838Z</time></trkpt><trkpt lat="44.8199023" lon="9.3128356"><ele>992.0</ele><time>2026-05-03T11:59:04.826Z</time></trkpt><trkpt lat="44.81996" lon="9.3128839"><ele>992.0</ele><time>2026-05-03T11:59:11.819Z</time></trkpt><trkpt lat="44.8200168" lon="9.312942"><ele>992.0000000000001</ele><time>2026-05-03T11:59:19.82Z</time></trkpt><trkpt lat="44.8200747" lon="9.3129806"><ele>992.0</ele><time>2026-05-03T11:59:27.82Z</time></trkpt><trkpt lat="44.8201332" lon="9.3130271"><ele>992.0</ele><time>2026-05-03T11:59:32.765Z</time></trkpt><trkpt lat="44.8201989" lon="9.3130581"><ele>989.2857142857143</ele><time>2026-05-03T11:59:37.784Z</time></trkpt><trkpt lat="44.8202677" lon="9.3130794"><ele>986.5714285714287</ele><time>2026-05-03T11:59:45.82Z</time></trkpt><trkpt lat="44.8203404" lon="9.3130576"><ele>983.8571428571429</ele><time>2026-05-03T11:59:51.819Z</time></trkpt><trkpt lat="44.8204124" lon="9.3130294"><ele>981.1428571428571</ele><time>2026-05-03T11:59:57.82Z</time></trkpt><trkpt lat="44.8204746" lon="9.3130087"><ele>978.4285714285714</ele><time>2026-05-03T12:00:04.725Z</time></trkpt><trkpt lat="44.8205422" lon="9.3129586"><ele>975.7142857142858</ele><time>2026-05-03T12:00:11.859Z</time></trkpt><trkpt lat="44.8206038" lon="9.3129266"><ele>973.0</ele><time>2026-05-03T12:00:16.82Z</time></trkpt><trkpt lat="44.8206712" lon="9.3129089"><ele>973.0</ele><time>2026-05-03T12:00:22.764Z</time></trkpt><trkpt lat="44.8207336" lon="9.3128872"><ele>973.0</ele><time>2026-05-03T12:00:27.784Z</time></trkpt><trkpt lat="44.8208076" lon="9.3128912"><ele>973.0</ele><time>2026-05-03T12:00:32.611Z</time></trkpt><trkpt lat="44.8208709" lon="9.3128895"><ele>973.0</ele><time>2026-05-03T12:00:38.45Z</time></trkpt><trkpt lat="44.82094" lon="9.3128916"><ele>973.0</ele><time>2026-05-03T12:00:45.789Z</time></trkpt><trkpt lat="44.8209971" lon="9.3129376"><ele>973.0</ele><time>2026-05-03T12:00:51.823Z</time></trkpt><trkpt lat="44.8210329" lon="9.313019"><ele>973.0</ele><time>2026-05-03T12:00:59.725Z</time></trkpt><trkpt lat="44.8210744" lon="9.3131058"><ele>968.5714285714286</ele><time>2026-05-03T12:01:06.82Z</time></trkpt><trkpt lat="44.8211103" lon="9.3131988"><ele>964.1428571428571</ele><time>2026-05-03T12:01:12.831Z</time></trkpt><trkpt lat="44.8211437" lon="9.3132799"><ele>959.7142857142858</ele><time>2026-05-03T12:01:20.839Z</time></trkpt><trkpt lat="44.8211496" lon="9.3133716"><ele>955.2857142857143</ele><time>2026-05-03T12:01:32.819Z</time></trkpt><trkpt lat="44.8211571" lon="9.3134681"><ele>950.8571428571429</ele><time>2026-05-03T12:01:44.819Z</time></trkpt><trkpt lat="44.8211871" lon="9.3135519"><ele>946.4285714285716</ele><time>2026-05-03T12:01:51.819Z</time></trkpt><trkpt lat="44.8212108" lon="9.3136465"><ele>942.0000000000001</ele><time>2026-05-03T12:01:59.838Z</time></trkpt><trkpt lat="44.8212441" lon="9.3137282"><ele>942.0000000000001</ele><time>2026-05-03T12:02:07.82Z</time></trkpt><trkpt lat="44.8212612" lon="9.3138161"><ele>942.0</ele><time>2026-05-03T12:02:12.804Z</time></trkpt><trkpt lat="44.8213072" lon="9.3138861"><ele>942.0000000000001</ele><time>2026-05-03T12:02:17.67Z</time></trkpt><trkpt lat="44.8213653" lon="9.3139418"><ele>942.0000000000001</ele><time>2026-05-03T12:02:23.724Z</time></trkpt><trkpt lat="44.8214059" lon="9.3140173"><ele>942.0</ele><time>2026-05-03T12:02:29.82Z</time></trkpt><trkpt lat="44.8214626" lon="9.314067"><ele>942.0000000000001</ele><time>2026-05-03T12:02:34.819Z</time></trkpt><trkpt lat="44.8215304" lon="9.3140997"><ele>942.0000000000001</ele><time>2026-05-03T12:02:38.839Z</time></trkpt><trkpt lat="44.8215831" lon="9.3141537"><ele>941.1428571428573</ele><time>2026-05-03T12:02:41.83Z</time></trkpt><trkpt lat="44.821631" lon="9.3142228"><ele>940.2857142857143</ele><time>2026-05-03T12:02:47.689Z</time></trkpt><trkpt lat="44.8216637" lon="9.3143127"><ele>939.4285714285716</ele><time>2026-05-03T12:02:54.61Z</time></trkpt><trkpt lat="44.8217224" lon="9.3143802"><ele>938.5714285714287</ele><time>2026-05-03T12:02:59.689Z</time></trkpt><trkpt lat="44.8217725" lon="9.3144381"><ele>937.7142857142858</ele><time>2026-05-03T12:03:03.77Z</time></trkpt><trkpt lat="44.8218369" lon="9.3144954"><ele>936.8571428571429</ele><time>2026-05-03T12:03:08.79Z</time></trkpt><trkpt lat="44.8218831" lon="9.3145697"><ele>936.0</ele><time>2026-05-03T12:03:12.743Z</time></trkpt><trkpt lat="44.8219255" lon="9.3146516"><ele>933.2857142857143</ele><time>2026-05-03T12:03:18.775Z</time></trkpt><trkpt lat="44.8219365" lon="9.3147498"><ele>930.5714285714287</ele><time>2026-05-03T12:03:24.769Z</time></trkpt><trkpt lat="44.8219903" lon="9.3148176"><ele>927.8571428571429</ele><time>2026-05-03T12:03:30.82Z</time></trkpt><trkpt lat="44.8220562" lon="9.3148492"><ele>925.1428571428571</ele><time>2026-05-03T12:03:36.82Z</time></trkpt><trkpt lat="44.8221176" lon="9.3148947"><ele>922.4285714285714</ele><time>2026-05-03T12:03:41.819Z</time></trkpt><trkpt lat="44.8221598" lon="9.3149616"><ele>919.7142857142858</ele><time>2026-05-03T12:03:48.831Z</time></trkpt><trkpt lat="44.8222062" lon="9.3150345"><ele>917.0</ele><time>2026-05-03T12:03:55.108Z</time></trkpt><trkpt lat="44.8222587" lon="9.3150948"><ele>917.0</ele><time>2026-05-03T12:04:01.987Z</time></trkpt><trkpt lat="44.8223071" lon="9.3151667"><ele>917.0</ele><time>2026-05-03T12:04:08.99Z</time></trkpt><trkpt lat="44.8223666" lon="9.3152004"><ele>917.0</ele><time>2026-05-03T12:04:17.149Z</time></trkpt><trkpt lat="44.8224388" lon="9.315224"><ele>917.0</ele><time>2026-05-03T12:04:23.429Z</time></trkpt><trkpt lat="44.8225144" lon="9.3152474"><ele>917.0</ele><time>2026-05-03T12:04:28.75Z</time></trkpt><trkpt lat="44.8225848" lon="9.3152494"><ele>917.0</ele><time>2026-05-03T12:04:34.82Z</time></trkpt><trkpt lat="44.8226488" lon="9.31525"><ele>917.0</ele><time>2026-05-03T12:04:42.748Z</time></trkpt><trkpt lat="44.822704" lon="9.315309"><ele>913.1428571428571</ele><time>2026-05-03T12:04:52.82Z</time></trkpt><trkpt lat="44.8227358" lon="9.3153908"><ele>909.2857142857142</ele><time>2026-05-03T12:05:00.798Z</time></trkpt><trkpt lat="44.822782" lon="9.3154534"><ele>905.4285714285714</ele><time>2026-05-03T12:05:07.82Z</time></trkpt><trkpt lat="44.8228418" lon="9.3154818"><ele>901.5714285714286</ele><time>2026-05-03T12:05:14.838Z</time></trkpt><trkpt lat="44.8229041" lon="9.3155106"><ele>897.7142857142857</ele><time>2026-05-03T12:05:24.863Z</time></trkpt><trkpt lat="44.822978" lon="9.3155196"><ele>893.8571428571429</ele><time>2026-05-03T12:05:31.748Z</time></trkpt><trkpt lat="44.8230518" lon="9.3155144"><ele>890.0</ele><time>2026-05-03T12:05:38.819Z</time></trkpt><trkpt lat="44.8231192" lon="9.31549"><ele>890.0</ele><time>2026-05-03T12:05:46.765Z</time></trkpt><trkpt lat="44.8231853" lon="9.3154805"><ele>890.0</ele><time>2026-05-03T12:05:54.746Z</time></trkpt><trkpt lat="44.8232532" lon="9.3155055"><ele>890.0</ele><time>2026-05-03T12:05:59.804Z</time></trkpt><trkpt lat="44.823301" lon="9.315566"><ele>890.0</ele><time>2026-05-03T12:06:07.819Z</time></trkpt><trkpt lat="44.8233003" lon="9.3156565"><ele>890.0</ele><time>2026-05-03T12:06:17.82Z</time></trkpt><trkpt lat="44.8232668" lon="9.3157411"><ele>890.0</ele><time>2026-05-03T12:06:24.831Z</time></trkpt><trkpt lat="44.8232596" lon="9.3158395"><ele>890.0</ele><time>2026-05-03T12:06:32.839Z</time></trkpt><trkpt lat="44.8232657" lon="9.3159314"><ele>889.2857142857143</ele><time>2026-05-03T12:06:38.819Z</time></trkpt><trkpt lat="44.8232631" lon="9.3160286"><ele>888.5714285714286</ele><time>2026-05-03T12:06:43.82Z</time></trkpt><trkpt lat="44.8233176" lon="9.3160996"><ele>887.8571428571429</ele><time>2026-05-03T12:06:49.791Z</time></trkpt><trkpt lat="44.8233873" lon="9.3161469"><ele>887.1428571428571</ele><time>2026-05-03T12:06:54.819Z</time></trkpt><trkpt lat="44.8234307" lon="9.3162116"><ele>886.4285714285713</ele><time>2026-05-03T12:06:58.806Z</time></trkpt><trkpt lat="44.8234867" lon="9.3162639"><ele>885.7142857142857</ele><time>2026-05-03T12:07:03.831Z</time></trkpt><trkpt lat="44.8235445" lon="9.3163218"><ele>885.0</ele><time>2026-05-03T12:07:11.838Z</time></trkpt><trkpt lat="44.8236108" lon="9.3163723"><ele>882.1428571428571</ele><time>2026-05-03T12:07:16.831Z</time></trkpt><trkpt lat="44.8236614" lon="9.3164335"><ele>879.2857142857142</ele><time>2026-05-03T12:07:21.822Z</time></trkpt><trkpt lat="44.8237055" lon="9.3164987"><ele>876.4285714285714</ele><time>2026-05-03T12:07:26.819Z</time></trkpt><trkpt lat="44.8237594" lon="9.3165461"><ele>873.5714285714286</ele><time>2026-05-03T12:07:32.745Z</time></trkpt><trkpt lat="44.8237914" lon="9.316626"><ele>870.7142857142858</ele><time>2026-05-03T12:07:37.625Z</time></trkpt><trkpt lat="44.823822" lon="9.3167134"><ele>867.8571428571429</ele><time>2026-05-03T12:07:42.265Z</time></trkpt><trkpt lat="44.8238678" lon="9.3167883"><ele>865.0</ele><time>2026-05-03T12:07:47.804Z</time></trkpt><trkpt lat="44.8239128" lon="9.316856"><ele>865.0</ele><time>2026-05-03T12:07:53.825Z</time></trkpt><trkpt lat="44.8239636" lon="9.3169166"><ele>865.0</ele><time>2026-05-03T12:07:59.82Z</time></trkpt><trkpt lat="44.824011" lon="9.316985"><ele>865.0</ele><time>2026-05-03T12:08:06.805Z</time></trkpt><trkpt lat="44.8240545" lon="9.3170594"><ele>865.0</ele><time>2026-05-03T12:08:12.783Z</time></trkpt><trkpt lat="44.8241083" lon="9.3171447"><ele>865.0</ele><time>2026-05-03T12:08:17.819Z</time></trkpt><trkpt lat="44.824157" lon="9.3172335"><ele>865.0</ele><time>2026-05-03T12:08:21.769Z</time></trkpt><trkpt lat="44.8241903" lon="9.317309"><ele>865.0</ele><time>2026-05-03T12:08:27.82Z</time></trkpt><trkpt lat="44.8242284" lon="9.3173902"><ele>864.5714285714286</ele><time>2026-05-03T12:08:34.831Z</time></trkpt><trkpt lat="44.8242544" lon="9.3174839"><ele>864.1428571428571</ele><time>2026-05-03T12:08:40.964Z</time></trkpt><trkpt lat="44.8242694" lon="9.317595"><ele>863.7142857142858</ele><time>2026-05-03T12:08:46.046Z</time></trkpt><trkpt lat="44.8242965" lon="9.3176883"><ele>863.2857142857142</ele><time>2026-05-03T12:08:51.164Z</time></trkpt><trkpt lat="44.8243367" lon="9.3177626"><ele>862.8571428571428</ele><time>2026-05-03T12:08:56.284Z</time></trkpt><trkpt lat="44.8243697" lon="9.3178516"><ele>862.4285714285714</ele><time>2026-05-03T12:09:00.284Z</time></trkpt><trkpt lat="44.8244267" lon="9.3179219"><ele>862.0</ele><time>2026-05-03T12:09:05.429Z</time></trkpt><trkpt lat="44.8244874" lon="9.3179474"><ele>860.4285714285714</ele><time>2026-05-03T12:09:09.55Z</time></trkpt><trkpt lat="44.8245524" lon="9.3179759"><ele>858.8571428571428</ele><time>2026-05-03T12:09:15.809Z</time></trkpt><trkpt lat="44.8246041" lon="9.3180512"><ele>857.2857142857142</ele><time>2026-05-03T12:09:21.819Z</time></trkpt><trkpt lat="44.8246472" lon="9.318118"><ele>855.7142857142858</ele><time>2026-05-03T12:09:25.82Z</time></trkpt><trkpt lat="44.8246921" lon="9.3181995"><ele>854.1428571428571</ele><time>2026-05-03T12:09:31.79Z</time></trkpt><trkpt lat="44.8247472" lon="9.3182657"><ele>852.5714285714286</ele><time>2026-05-03T12:09:37.751Z</time></trkpt><trkpt lat="44.8248083" lon="9.3183228"><ele>851.0</ele><time>2026-05-03T12:09:43.829Z</time></trkpt><trkpt lat="44.8248542" lon="9.3183913"><ele>850.8571428571429</ele><time>2026-05-03T12:09:48.819Z</time></trkpt><trkpt lat="44.8249147" lon="9.318452"><ele>850.7142857142858</ele><time>2026-05-03T12:09:53.82Z</time></trkpt><trkpt lat="44.8249779" lon="9.3184897"><ele>850.5714285714286</ele><time>2026-05-03T12:09:58.819Z</time></trkpt><trkpt lat="44.8250369" lon="9.3185273"><ele>850.4285714285714</ele><time>2026-05-03T12:10:06.728Z</time></trkpt><trkpt lat="44.8251042" lon="9.3185641"><ele>850.2857142857142</ele><time>2026-05-03T12:10:14.775Z</time></trkpt><trkpt lat="44.8251508" lon="9.3186279"><ele>850.1428571428571</ele><time>2026-05-03T12:10:19.748Z</time></trkpt><trkpt lat="44.8251896" lon="9.3187055"><ele>850.0</ele><time>2026-05-03T12:10:26.839Z</time></trkpt><trkpt lat="44.8252558" lon="9.3187785"><ele>847.4285714285714</ele><time>2026-05-03T12:10:41.57Z</time></trkpt><trkpt lat="44.8253236" lon="9.3188258"><ele>844.8571428571429</ele><time>2026-05-03T12:10:46.55Z</time></trkpt><trkpt lat="44.8253804" lon="9.3188889"><ele>842.2857142857142</ele><time>2026-05-03T12:10:50.81Z</time></trkpt><trkpt lat="44.8254265" lon="9.3189527"><ele>839.7142857142858</ele><time>2026-05-03T12:10:54.819Z</time></trkpt><trkpt lat="44.8254453" lon="9.3190406"><ele>837.1428571428572</ele><time>2026-05-03T12:11:05.82Z</time></trkpt><trkpt lat="44.8254377" lon="9.3191315"><ele>834.5714285714286</ele><time>2026-05-03T12:11:13.819Z</time></trkpt><trkpt lat="44.8254643" lon="9.3192213"><ele>832.0</ele><time>2026-05-03T12:11:19.819Z</time></trkpt><trkpt lat="44.8255111" lon="9.3192872"><ele>832.0</ele><time>2026-05-03T12:11:25.819Z</time></trkpt><trkpt lat="44.8255694" lon="9.3193384"><ele>832.0</ele><time>2026-05-03T12:11:29.728Z</time></trkpt><trkpt lat="44.8256266" lon="9.3193995"><ele>832.0</ele><time>2026-05-03T12:11:34.82Z</time></trkpt><trkpt lat="44.8256917" lon="9.3194334"><ele>832.0</ele><time>2026-05-03T12:11:39.82Z</time></trkpt><trkpt lat="44.8257065" lon="9.3195206"><ele>832.0</ele><time>2026-05-03T12:11:44.838Z</time></trkpt><trkpt lat="44.8257152" lon="9.3196141"><ele>832.0</ele><time>2026-05-03T12:11:52.743Z</time></trkpt><trkpt lat="44.8257708" lon="9.3196747"><ele>832.0</ele><time>2026-05-03T12:11:58.82Z</time></trkpt><trkpt lat="44.8258331" lon="9.3197195"><ele>830.4285714285714</ele><time>2026-05-03T12:12:03.71Z</time></trkpt><trkpt lat="44.8258852" lon="9.3197765"><ele>828.8571428571429</ele><time>2026-05-03T12:12:14.408Z</time></trkpt><trkpt lat="44.8259502" lon="9.3197584"><ele>827.2857142857143</ele><time>2026-05-03T12:12:19.328Z</time></trkpt><trkpt lat="44.8260155" lon="9.3197444"><ele>825.7142857142858</ele><time>2026-05-03T12:12:23.488Z</time></trkpt><trkpt lat="44.8260846" lon="9.3197709"><ele>824.1428571428571</ele><time>2026-05-03T12:12:28.489Z</time></trkpt><trkpt lat="44.8261476" lon="9.3197993"><ele>822.5714285714287</ele><time>2026-05-03T12:12:33.391Z</time></trkpt><trkpt lat="44.8262107" lon="9.3198313"><ele>821.0</ele><time>2026-05-03T12:12:38.47Z</time></trkpt><trkpt lat="44.8262769" lon="9.3198624"><ele>819.5714285714287</ele><time>2026-05-03T12:12:43.568Z</time></trkpt><trkpt lat="44.8263307" lon="9.3199179"><ele>818.1428571428571</ele><time>2026-05-03T12:12:49.549Z</time></trkpt><trkpt lat="44.8263626" lon="9.3200073"><ele>816.7142857142858</ele><time>2026-05-03T12:12:55.53Z</time></trkpt><trkpt lat="44.8264032" lon="9.3200809"><ele>815.2857142857143</ele><time>2026-05-03T12:13:03.858Z</time></trkpt><trkpt lat="44.8264736" lon="9.3200944"><ele>813.8571428571429</ele><time>2026-05-03T12:13:08.82Z</time></trkpt><trkpt lat="44.826545" lon="9.3200977"><ele>812.4285714285714</ele><time>2026-05-03T12:13:14.82Z</time></trkpt><trkpt lat="44.8266162" lon="9.3201132"><ele>811.0</ele><time>2026-05-03T12:13:21.82Z</time></trkpt><trkpt lat="44.8266856" lon="9.3201012"><ele>811.0</ele><time>2026-05-03T12:13:27.82Z</time></trkpt><trkpt lat="44.8267488" lon="9.3200714"><ele>811.0</ele><time>2026-05-03T12:13:33.819Z</time></trkpt><trkpt lat="44.8267993" lon="9.3200177"><ele>811.0</ele><time>2026-05-03T12:13:40.819Z</time></trkpt><trkpt lat="44.8268604" lon="9.3199514"><ele>811.0</ele><time>2026-05-03T12:13:46.831Z</time></trkpt><trkpt lat="44.8269271" lon="9.3199302"><ele>811.0</ele><time>2026-05-03T12:13:53.769Z</time></trkpt><trkpt lat="44.8269927" lon="9.3199248"><ele>811.0</ele><time>2026-05-03T12:14:00.82Z</time></trkpt><trkpt lat="44.8270639" lon="9.3199091"><ele>811.0</ele><time>2026-05-03T12:14:09.819Z</time></trkpt><trkpt lat="44.8271229" lon="9.3198777"><ele>808.8571428571428</ele><time>2026-05-03T12:14:15.819Z</time></trkpt><trkpt lat="44.8271915" lon="9.3198536"><ele>806.7142857142858</ele><time>2026-05-03T12:14:21.729Z</time></trkpt><trkpt lat="44.8272614" lon="9.3198606"><ele>804.5714285714286</ele><time>2026-05-03T12:14:27.858Z</time></trkpt><trkpt lat="44.827332" lon="9.3198626"><ele>802.4285714285713</ele><time>2026-05-03T12:14:33.049Z</time></trkpt><trkpt lat="44.8274046" lon="9.3198205"><ele>800.2857142857142</ele><time>2026-05-03T12:14:39.31Z</time></trkpt><trkpt lat="44.8274664" lon="9.3197867"><ele>798.1428571428571</ele><time>2026-05-03T12:14:43.33Z</time></trkpt><trkpt lat="44.8275325" lon="9.3197403"><ele>796.0</ele><time>2026-05-03T12:14:48.469Z</time></trkpt><trkpt lat="44.8275887" lon="9.3196969"><ele>792.7142857142857</ele><time>2026-05-03T12:14:54.508Z</time></trkpt><trkpt lat="44.8276509" lon="9.3196456"><ele>789.4285714285714</ele><time>2026-05-03T12:15:04.83Z</time></trkpt><trkpt lat="44.8277157" lon="9.319604"><ele>786.1428571428571</ele><time>2026-05-03T12:15:58.788Z</time></trkpt><trkpt lat="44.8277699" lon="9.3195417"><ele>782.8571428571429</ele><time>2026-05-03T12:16:03.819Z</time></trkpt><trkpt lat="44.8278185" lon="9.3194773"><ele>779.5714285714286</ele><time>2026-05-03T12:16:08.82Z</time></trkpt><trkpt lat="44.8278635" lon="9.3194087"><ele>776.2857142857142</ele><time>2026-05-03T12:16:16.819Z</time></trkpt><trkpt lat="44.8279076" lon="9.319332"><ele>773.0</ele><time>2026-05-03T12:16:23.819Z</time></trkpt><trkpt lat="44.8279556" lon="9.3192535"><ele>773.0</ele><time>2026-05-03T12:16:31.82Z</time></trkpt><trkpt lat="44.828013" lon="9.3191946"><ele>773.0</ele><time>2026-05-03T12:16:37.82Z</time></trkpt><trkpt lat="44.8280665" lon="9.3191341"><ele>773.0</ele><time>2026-05-03T12:16:45.819Z</time></trkpt><trkpt lat="44.8281108" lon="9.3190614"><ele>773.0</ele><time>2026-05-03T12:16:53.823Z</time></trkpt><trkpt lat="44.8281542" lon="9.3189942"><ele>773.0</ele><time>2026-05-03T12:16:58.829Z</time></trkpt><trkpt lat="44.8282008" lon="9.3189314"><ele>773.0</ele><time>2026-05-03T12:17:06.823Z</time></trkpt><trkpt lat="44.8282335" lon="9.3188429"><ele>773.0</ele><time>2026-05-03T12:17:12.819Z</time></trkpt><trkpt lat="44.8282767" lon="9.3187685"><ele>771.7142857142857</ele><time>2026-05-03T12:17:18.819Z</time></trkpt><trkpt lat="44.8283191" lon="9.3186934"><ele>770.4285714285713</ele><time>2026-05-03T12:17:23.819Z</time></trkpt><trkpt lat="44.8283655" lon="9.3186252"><ele>769.1428571428571</ele><time>2026-05-03T12:17:28.82Z</time></trkpt><trkpt lat="44.8284214" lon="9.3185761"><ele>767.8571428571429</ele><time>2026-05-03T12:17:33.82Z</time></trkpt><trkpt lat="44.8284775" lon="9.3185251"><ele>766.5714285714286</ele><time>2026-05-03T12:17:43.712Z</time></trkpt><trkpt lat="44.8285201" lon="9.3184571"><ele>765.2857142857143</ele><time>2026-05-03T12:17:51.819Z</time></trkpt><trkpt lat="44.8285706" lon="9.3183874"><ele>764.0</ele><time>2026-05-03T12:17:57.819Z</time></trkpt><trkpt lat="44.828643" lon="9.3183869"><ele>762.1428571428572</ele><time>2026-05-03T12:18:03.819Z</time></trkpt><trkpt lat="44.8287017" lon="9.3183385"><ele>760.2857142857142</ele><time>2026-05-03T12:18:10.819Z</time></trkpt><trkpt lat="44.8287472" lon="9.3182759"><ele>758.4285714285714</ele><time>2026-05-03T12:18:18.82Z</time></trkpt><trkpt lat="44.8287927" lon="9.3182137"><ele>756.5714285714287</ele><time>2026-05-03T12:18:25.82Z</time></trkpt><trkpt lat="44.8288246" lon="9.3181273"><ele>754.7142857142858</ele><time>2026-05-03T12:18:35.864Z</time></trkpt><trkpt lat="44.8288573" lon="9.3180467"><ele>752.8571428571429</ele><time>2026-05-03T12:18:46.819Z</time></trkpt><trkpt lat="44.8289102" lon="9.3179772"><ele>751.0</ele><time>2026-05-03T12:18:53.839Z</time></trkpt><trkpt lat="44.8289738" lon="9.317949"><ele>749.5714285714287</ele><time>2026-05-03T12:18:59.819Z</time></trkpt><trkpt lat="44.8290374" lon="9.317973"><ele>748.1428571428571</ele><time>2026-05-03T12:19:04.819Z</time></trkpt><trkpt lat="44.829101" lon="9.3179862"><ele>746.7142857142858</ele><time>2026-05-03T12:19:10.82Z</time></trkpt><trkpt lat="44.8291786" lon="9.3179818"><ele>745.2857142857143</ele><time>2026-05-03T12:19:16.717Z</time></trkpt><trkpt lat="44.8292503" lon="9.3179745"><ele>743.8571428571429</ele><time>2026-05-03T12:19:21.819Z</time></trkpt><trkpt lat="44.8293301" lon="9.3179782"><ele>742.4285714285714</ele><time>2026-05-03T12:19:26.736Z</time></trkpt><trkpt lat="44.8294064" lon="9.3179635"><ele>741.0</ele><time>2026-05-03T12:19:30.819Z</time></trkpt><trkpt lat="44.8294674" lon="9.3179321"><ele>739.8571428571428</ele><time>2026-05-03T12:19:37.83Z</time></trkpt><trkpt lat="44.8295367" lon="9.3179175"><ele>738.7142857142858</ele><time>2026-05-03T12:19:43.819Z</time></trkpt><trkpt lat="44.829599" lon="9.3178835"><ele>737.5714285714286</ele><time>2026-05-03T12:19:51.859Z</time></trkpt><trkpt lat="44.8296613" lon="9.317848"><ele>736.4285714285713</ele><time>2026-05-03T12:19:57.819Z</time></trkpt><trkpt lat="44.8297336" lon="9.3178298"><ele>735.2857142857142</ele><time>2026-05-03T12:20:03.819Z</time></trkpt><trkpt lat="44.8298064" lon="9.3178077"><ele>734.1428571428571</ele><time>2026-05-03T12:20:09.819Z</time></trkpt><trkpt lat="44.8298656" lon="9.3177696"><ele>733.0</ele><time>2026-05-03T12:20:15.819Z</time></trkpt><trkpt lat="44.8299296" lon="9.3177134"><ele>732.9999999999999</ele><time>2026-05-03T12:20:22.819Z</time></trkpt><trkpt lat="44.8299879" lon="9.317674"><ele>733.0</ele><time>2026-05-03T12:20:29.83Z</time></trkpt><trkpt lat="44.830042" lon="9.3176178"><ele>733.0</ele><time>2026-05-03T12:20:38.819Z</time></trkpt><trkpt lat="44.8300934" lon="9.3175635"><ele>733.0</ele><time>2026-05-03T12:20:45.819Z</time></trkpt><trkpt lat="44.8301458" lon="9.31749"><ele>733.0</ele><time>2026-05-03T12:20:50.839Z</time></trkpt><trkpt lat="44.8302027" lon="9.3174336"><ele>732.9999999999999</ele><time>2026-05-03T12:20:57.82Z</time></trkpt><trkpt lat="44.8302605" lon="9.3173886"><ele>733.0</ele><time>2026-05-03T12:21:03.819Z</time></trkpt><trkpt lat="44.8302937" lon="9.3173099"><ele>730.4285714285713</ele><time>2026-05-03T12:21:10.82Z</time></trkpt><trkpt lat="44.8303619" lon="9.3173223"><ele>727.8571428571429</ele><time>2026-05-03T12:21:19.82Z</time></trkpt><trkpt lat="44.8303977" lon="9.3173961"><ele>725.2857142857142</ele><time>2026-05-03T12:21:25.819Z</time></trkpt><trkpt lat="44.8303911" lon="9.3174947"><ele>722.7142857142857</ele><time>2026-05-03T12:21:32.772Z</time></trkpt><trkpt lat="44.8304117" lon="9.3175929"><ele>720.1428571428571</ele><time>2026-05-03T12:21:39.861Z</time></trkpt><trkpt lat="44.8304835" lon="9.3176288"><ele>717.5714285714286</ele><time>2026-05-03T12:21:44.819Z</time></trkpt><trkpt lat="44.8305551" lon="9.317673"><ele>715.0</ele><time>2026-05-03T12:21:50.819Z</time></trkpt><trkpt lat="44.8306059" lon="9.3177331"><ele>715.0</ele><time>2026-05-03T12:21:55.838Z</time></trkpt><trkpt lat="44.8306111" lon="9.3178358"><ele>715.0</ele><time>2026-05-03T12:22:45.82Z</time></trkpt><trkpt lat="44.8306785" lon="9.3178256"><ele>715.0</ele><time>2026-05-03T12:24:14.819Z</time></trkpt><trkpt lat="44.830715" lon="9.3178997"><ele>715.0</ele><time>2026-05-03T12:24:23.831Z</time></trkpt><trkpt lat="44.8307428" lon="9.3179973"><ele>715.0</ele><time>2026-05-03T12:24:37.819Z</time></trkpt><trkpt lat="44.8307973" lon="9.3180614"><ele>715.0</ele><time>2026-05-03T12:24:44.839Z</time></trkpt><trkpt lat="44.8308668" lon="9.3180671"><ele>715.0</ele><time>2026-05-03T12:24:49.83Z</time></trkpt><trkpt lat="44.830925" lon="9.318019"><ele>715.0</ele><time>2026-05-03T12:24:54.823Z</time></trkpt><trkpt lat="44.8309738" lon="9.317951"><ele>715.0</ele><time>2026-05-03T12:25:00.816Z</time></trkpt><trkpt lat="44.8309947" lon="9.3178667"><ele>715.0</ele><time>2026-05-03T12:25:04.757Z</time></trkpt><trkpt lat="44.831006" lon="9.3177793"><ele>715.0</ele><time>2026-05-03T12:25:08.819Z</time></trkpt><trkpt lat="44.83099" lon="9.3176932"><ele>715.0</ele><time>2026-05-03T12:25:13.819Z</time></trkpt><trkpt lat="44.8309619" lon="9.3176107"><ele>715.0</ele><time>2026-05-03T12:25:18.846Z</time></trkpt><trkpt lat="44.8309342" lon="9.3175171"><ele>715.0</ele><time>2026-05-03T12:25:24.819Z</time></trkpt><trkpt lat="44.8308975" lon="9.3174406"><ele>715.0</ele><time>2026-05-03T12:25:33.822Z</time></trkpt><trkpt lat="44.8308562" lon="9.3173667"><ele>715.0</ele><time>2026-05-03T12:25:39.778Z</time></trkpt><trkpt lat="44.8308244" lon="9.3172822"><ele>715.0</ele><time>2026-05-03T12:25:45.819Z</time></trkpt><trkpt lat="44.8308234" lon="9.317174"><ele>715.0</ele><time>2026-05-03T12:25:52.818Z</time></trkpt><trkpt lat="44.83079" lon="9.3170937"><ele>715.0</ele><time>2026-05-03T12:26:00.819Z</time></trkpt><trkpt lat="44.8307906" lon="9.3169991"><ele>715.0</ele><time>2026-05-03T12:26:08.82Z</time></trkpt><trkpt lat="44.830777" lon="9.3169064"><ele>715.0</ele><time>2026-05-03T12:26:18.82Z</time></trkpt><trkpt lat="44.8307681" lon="9.316808"><ele>713.4285714285714</ele><time>2026-05-03T12:26:24.819Z</time></trkpt><trkpt lat="44.8307511" lon="9.3167175"><ele>711.8571428571428</ele><time>2026-05-03T12:26:31.816Z</time></trkpt><trkpt lat="44.8307484" lon="9.3166288"><ele>710.2857142857142</ele><time>2026-05-03T12:26:38.822Z</time></trkpt><trkpt lat="44.830739" lon="9.3165087"><ele>708.7142857142858</ele><time>2026-05-03T12:26:53.819Z</time></trkpt><trkpt lat="44.8307982" lon="9.3164784"><ele>707.1428571428571</ele><time>2026-05-03T12:27:27.757Z</time></trkpt><trkpt lat="44.8308587" lon="9.3165231"><ele>705.5714285714286</ele><time>2026-05-03T12:27:36.819Z</time></trkpt><trkpt lat="44.8309203" lon="9.3165507"><ele>704.0</ele><time>2026-05-03T12:27:44.82Z</time></trkpt><trkpt lat="44.8309943" lon="9.3165686"><ele>703.1666666666666</ele><time>2026-05-03T12:27:51.83Z</time></trkpt><trkpt lat="44.8310678" lon="9.3165579"><ele>702.3333333333333</ele><time>2026-05-03T12:27:57.819Z</time></trkpt><trkpt lat="44.8311354" lon="9.316541"><ele>701.5</ele><time>2026-05-03T12:28:03.82Z</time></trkpt><trkpt lat="44.831206" lon="9.3165388"><ele>700.6666666666666</ele><time>2026-05-03T12:28:09.796Z</time></trkpt><trkpt lat="44.8313203" lon="9.3164848"><ele>699.8333333333334</ele><time>2026-05-03T12:28:38.839Z</time></trkpt><trkpt lat="44.8313769" lon="9.3165741"><ele>699.0</ele><time>2026-05-03T12:29:03.857Z</time></trkpt><trkpt lat="44.831445" lon="9.3166213"><ele>699.0</ele><time>2026-05-03T12:29:08.819Z</time></trkpt><trkpt lat="44.8314978" lon="9.3166896"><ele>699.0</ele><time>2026-05-03T12:29:14.823Z</time></trkpt><trkpt lat="44.8315607" lon="9.316721"><ele>699.0</ele><time>2026-05-03T12:29:19.819Z</time></trkpt><trkpt lat="44.8316201" lon="9.3167652"><ele>699.0</ele><time>2026-05-03T12:29:24.737Z</time></trkpt><trkpt lat="44.8316763" lon="9.3168132"><ele>699.0</ele><time>2026-05-03T12:29:31.819Z</time></trkpt><trkpt lat="44.8317489" lon="9.3168542"><ele>699.0</ele><time>2026-05-03T12:29:37.82Z</time></trkpt><trkpt lat="44.8318195" lon="9.3168745"><ele>699.0</ele><time>2026-05-03T12:29:42.818Z</time></trkpt><trkpt lat="44.8318832" lon="9.3168893"><ele>700.7142857142857</ele><time>2026-05-03T12:29:48.83Z</time></trkpt><trkpt lat="44.8319558" lon="9.3168979"><ele>702.4285714285714</ele><time>2026-05-03T12:29:54.819Z</time></trkpt><trkpt lat="44.8320282" lon="9.3169148"><ele>704.1428571428571</ele><time>2026-05-03T12:29:59.733Z</time></trkpt><trkpt lat="44.8320894" lon="9.3169446"><ele>705.8571428571429</ele><time>2026-05-03T12:30:03.756Z</time></trkpt><trkpt lat="44.8321599" lon="9.3169565"><ele>707.5714285714286</ele><time>2026-05-03T12:30:07.836Z</time></trkpt><trkpt lat="44.8322237" lon="9.316957"><ele>709.2857142857143</ele><time>2026-05-03T12:30:13.657Z</time></trkpt><trkpt lat="44.832287" lon="9.3169979"><ele>711.0</ele><time>2026-05-03T12:30:20.819Z</time></trkpt><trkpt lat="44.8323451" lon="9.3170358"><ele>711.0</ele><time>2026-05-03T12:30:24.82Z</time></trkpt><trkpt lat="44.8323963" lon="9.3170965"><ele>711.0</ele><time>2026-05-03T12:30:28.737Z</time></trkpt><trkpt lat="44.832447" lon="9.3171579"><ele>711.0</ele><time>2026-05-03T12:30:31.713Z</time></trkpt><trkpt lat="44.832511" lon="9.3172074"><ele>711.0</ele><time>2026-05-03T12:30:35.798Z</time></trkpt><trkpt lat="44.8325803" lon="9.3172409"><ele>711.0</ele><time>2026-05-03T12:30:40.831Z</time></trkpt><trkpt lat="44.8326062" lon="9.3173309"><ele>711.0</ele><time>2026-05-03T12:30:49.819Z</time></trkpt><trkpt lat="44.8326078" lon="9.3174295"><ele>711.0</ele><time>2026-05-03T12:30:55.82Z</time></trkpt><trkpt lat="44.8326499" lon="9.3175013"><ele>709.8571428571429</ele><time>2026-05-03T12:32:08.82Z</time></trkpt><trkpt lat="44.8327048" lon="9.3175715"><ele>708.7142857142857</ele><time>2026-05-03T12:32:14.82Z</time></trkpt><trkpt lat="44.8327441" lon="9.3176472"><ele>707.5714285714286</ele><time>2026-05-03T12:32:19.838Z</time></trkpt><trkpt lat="44.8328061" lon="9.3177104"><ele>706.4285714285714</ele><time>2026-05-03T12:32:24.726Z</time></trkpt><trkpt lat="44.8328573" lon="9.3177828"><ele>705.2857142857143</ele><time>2026-05-03T12:32:31.819Z</time></trkpt><trkpt lat="44.8328714" lon="9.317875"><ele>704.1428571428571</ele><time>2026-05-03T12:32:36.82Z</time></trkpt><trkpt lat="44.8328974" lon="9.3179616"><ele>703.0</ele><time>2026-05-03T12:32:41.82Z</time></trkpt><trkpt lat="44.8329106" lon="9.3180529"><ele>701.2857142857142</ele><time>2026-05-03T12:32:48.82Z</time></trkpt><trkpt lat="44.832949" lon="9.3181281"><ele>699.5714285714286</ele><time>2026-05-03T12:32:58.577Z</time></trkpt><trkpt lat="44.8329689" lon="9.318229"><ele>697.8571428571429</ele><time>2026-05-03T12:33:08.838Z</time></trkpt><trkpt lat="44.8329698" lon="9.3183274"><ele>696.1428571428571</ele><time>2026-05-03T12:33:14.819Z</time></trkpt><trkpt lat="44.832991" lon="9.3184131"><ele>694.4285714285714</ele><time>2026-05-03T12:33:19.82Z</time></trkpt><trkpt lat="44.8330181" lon="9.3185015"><ele>692.7142857142857</ele><time>2026-05-03T12:33:24.558Z</time></trkpt><trkpt lat="44.8330468" lon="9.3185997"><ele>691.0</ele><time>2026-05-03T12:33:31.82Z</time></trkpt><trkpt lat="44.8330802" lon="9.3186969"><ele>690.9999999999999</ele><time>2026-05-03T12:33:36.82Z</time></trkpt><trkpt lat="44.833105" lon="9.3187871"><ele>691.0</ele><time>2026-05-03T12:33:41.82Z</time></trkpt><trkpt lat="44.8331" lon="9.3188757"><ele>691.0</ele><time>2026-05-03T12:33:46.817Z</time></trkpt><trkpt lat="44.833073" lon="9.3189581"><ele>691.0</ele><time>2026-05-03T12:33:56.738Z</time></trkpt><trkpt lat="44.8331044" lon="9.3190393"><ele>691.0</ele><time>2026-05-03T12:34:03.839Z</time></trkpt><trkpt lat="44.8331593" lon="9.3190875"><ele>690.9999999999999</ele><time>2026-05-03T12:34:09.82Z</time></trkpt><trkpt lat="44.8332283" lon="9.3191175"><ele>691.0</ele><time>2026-05-03T12:34:17.819Z</time></trkpt><trkpt lat="44.8332903" lon="9.3191736"><ele>689.7142857142857</ele><time>2026-05-03T12:34:23.857Z</time></trkpt><trkpt lat="44.8333481" lon="9.3192104"><ele>688.4285714285714</ele><time>2026-05-03T12:34:29.838Z</time></trkpt><trkpt lat="44.8334056" lon="9.3192527"><ele>687.1428571428571</ele><time>2026-05-03T12:34:35.819Z</time></trkpt><trkpt lat="44.8334646" lon="9.319295"><ele>685.8571428571429</ele><time>2026-05-03T12:34:41.819Z</time></trkpt><trkpt lat="44.8335192" lon="9.3193398"><ele>684.5714285714286</ele><time>2026-05-03T12:34:47.831Z</time></trkpt><trkpt lat="44.8335827" lon="9.3193758"><ele>683.2857142857142</ele><time>2026-05-03T12:34:54.819Z</time></trkpt><trkpt lat="44.8336275" lon="9.3194585"><ele>682.0</ele><time>2026-05-03T12:35:01.819Z</time></trkpt><trkpt lat="44.8336732" lon="9.3195259"><ele>682.5714285714286</ele><time>2026-05-03T12:35:06.819Z</time></trkpt><trkpt lat="44.8337149" lon="9.3195946"><ele>683.1428571428571</ele><time>2026-05-03T12:35:15.758Z</time></trkpt><trkpt lat="44.8337423" lon="9.3196763"><ele>683.7142857142858</ele><time>2026-05-03T12:35:20.819Z</time></trkpt><trkpt lat="44.8337938" lon="9.3197581"><ele>684.2857142857142</ele><time>2026-05-03T12:35:26.797Z</time></trkpt><trkpt lat="44.8338424" lon="9.3198291"><ele>684.8571428571429</ele><time>2026-05-03T12:35:32.819Z</time></trkpt><trkpt lat="44.8338999" lon="9.3198883"><ele>685.4285714285714</ele><time>2026-05-03T12:35:38.86Z</time></trkpt><trkpt lat="44.8339573" lon="9.3199491"><ele>686.0</ele><time>2026-05-03T12:35:46.82Z</time></trkpt><trkpt lat="44.8340161" lon="9.3199977"><ele>686.0</ele><time>2026-05-03T12:35:53.82Z</time></trkpt><trkpt lat="44.8340802" lon="9.3200092"><ele>686.0</ele><time>2026-05-03T12:35:59.82Z</time></trkpt><trkpt lat="44.8341465" lon="9.3199728"><ele>686.0</ele><time>2026-05-03T12:36:05.831Z</time></trkpt><trkpt lat="44.8342102" lon="9.3200082"><ele>686.0</ele><time>2026-05-03T12:36:13.839Z</time></trkpt><trkpt lat="44.8342815" lon="9.3200212"><ele>686.0</ele><time>2026-05-03T12:36:19.819Z</time></trkpt><trkpt lat="44.8343451" lon="9.3200412"><ele>686.0</ele><time>2026-05-03T12:36:25.819Z</time></trkpt><trkpt lat="44.8343095" lon="9.319952"><ele>686.0</ele><time>2026-05-03T12:36:37.819Z</time></trkpt><trkpt lat="44.8342523" lon="9.3198896"><ele>686.0</ele><time>2026-05-03T12:36:43.82Z</time></trkpt><trkpt lat="44.8342109" lon="9.3198212"><ele>686.0</ele><time>2026-05-03T12:36:49.822Z</time></trkpt><trkpt lat="44.8341557" lon="9.3197615"><ele>686.0</ele><time>2026-05-03T12:36:55.819Z</time></trkpt><trkpt lat="44.8341044" lon="9.3197003"><ele>686.0</ele><time>2026-05-03T12:37:02.822Z</time></trkpt><trkpt lat="44.834061" lon="9.3196345"><ele>686.0</ele><time>2026-05-03T12:37:07.819Z</time></trkpt><trkpt lat="44.8340374" lon="9.3195479"><ele>686.0</ele><time>2026-05-03T12:37:13.819Z</time></trkpt><trkpt lat="44.8340279" lon="9.3194501"><ele>686.0</ele><time>2026-05-03T12:37:19.82Z</time></trkpt><trkpt lat="44.8340126" lon="9.3193562"><ele>688.1428571428571</ele><time>2026-05-03T12:37:24.737Z</time></trkpt><trkpt lat="44.833986" lon="9.319263"><ele>690.2857142857142</ele><time>2026-05-03T12:37:30.819Z</time></trkpt><trkpt lat="44.8339752" lon="9.319174"><ele>692.4285714285714</ele><time>2026-05-03T12:37:36.837Z</time></trkpt><trkpt lat="44.8339488" lon="9.3190901"><ele>694.5714285714286</ele><time>2026-05-03T12:37:41.823Z</time></trkpt><trkpt lat="44.8339225" lon="9.3189952"><ele>696.7142857142857</ele><time>2026-05-03T12:37:46.817Z</time></trkpt><trkpt lat="44.8339188" lon="9.3189006"><ele>698.8571428571429</ele><time>2026-05-03T12:37:52.847Z</time></trkpt><trkpt lat="44.8339104" lon="9.3187949"><ele>701.0</ele><time>2026-05-03T12:37:59.815Z</time></trkpt><trkpt lat="44.8339189" lon="9.3186967"><ele>702.2857142857143</ele><time>2026-05-03T12:38:04.819Z</time></trkpt><trkpt lat="44.8339391" lon="9.3186124"><ele>703.5714285714286</ele><time>2026-05-03T12:38:10.839Z</time></trkpt><trkpt lat="44.833944" lon="9.3185174"><ele>704.8571428571429</ele><time>2026-05-03T12:38:14.82Z</time></trkpt><trkpt lat="44.8339427" lon="9.3184185"><ele>706.1428571428571</ele><time>2026-05-03T12:38:21.82Z</time></trkpt><trkpt lat="44.8339442" lon="9.3183081"><ele>707.4285714285714</ele><time>2026-05-03T12:38:26.819Z</time></trkpt><trkpt lat="44.8339397" lon="9.3182026"><ele>708.7142857142857</ele><time>2026-05-03T12:38:33.823Z</time></trkpt><trkpt lat="44.8339342" lon="9.3181076"><ele>710.0</ele><time>2026-05-03T12:38:37.82Z</time></trkpt><trkpt lat="44.8339264" lon="9.3180161"><ele>711.4285714285714</ele><time>2026-05-03T12:38:43.819Z</time></trkpt><trkpt lat="44.8339102" lon="9.3179156"><ele>712.8571428571429</ele><time>2026-05-03T12:38:48.82Z</time></trkpt><trkpt lat="44.8339022" lon="9.3178231"><ele>714.2857142857142</ele><time>2026-05-03T12:38:54.862Z</time></trkpt><trkpt lat="44.8338879" lon="9.3177237"><ele>715.7142857142858</ele><time>2026-05-03T12:38:59.836Z</time></trkpt><trkpt lat="44.8338945" lon="9.3176341"><ele>717.1428571428572</ele><time>2026-05-03T12:39:03.819Z</time></trkpt><trkpt lat="44.8338679" lon="9.3175492"><ele>718.5714285714286</ele><time>2026-05-03T12:39:09.819Z</time></trkpt><trkpt lat="44.8338622" lon="9.3174486"><ele>720.0</ele><time>2026-05-03T12:39:14.82Z</time></trkpt><trkpt lat="44.8338479" lon="9.3173584"><ele>720.0</ele><time>2026-05-03T12:39:20.831Z</time></trkpt><trkpt lat="44.8338559" lon="9.3172582"><ele>720.0</ele><time>2026-05-03T12:39:26.82Z</time></trkpt><trkpt lat="44.8338714" lon="9.3171611"><ele>720.0</ele><time>2026-05-03T12:39:32.756Z</time></trkpt><trkpt lat="44.8339075" lon="9.3170845"><ele>720.0</ele><time>2026-05-03T12:39:40.797Z</time></trkpt><trkpt lat="44.8339719" lon="9.3170787"><ele>720.0</ele><time>2026-05-03T12:39:45.819Z</time></trkpt><trkpt lat="44.8340411" lon="9.3170768"><ele>720.0</ele><time>2026-05-03T12:39:51.822Z</time></trkpt><trkpt lat="44.8340991" lon="9.3171138"><ele>720.0</ele><time>2026-05-03T12:39:56.819Z</time></trkpt><trkpt lat="44.8341472" lon="9.3171837"><ele>720.0</ele><time>2026-05-03T12:40:02.819Z</time></trkpt><trkpt lat="44.8341848" lon="9.3172666"><ele>720.0</ele><time>2026-05-03T12:40:08.776Z</time></trkpt><trkpt lat="44.8342143" lon="9.3173496"><ele>720.0</ele><time>2026-05-03T12:40:14.819Z</time></trkpt><trkpt lat="44.8342556" lon="9.3174368"><ele>720.0</ele><time>2026-05-03T12:40:19.82Z</time></trkpt><trkpt lat="44.8342918" lon="9.3175176"><ele>720.0</ele><time>2026-05-03T12:40:25.83Z</time></trkpt><trkpt lat="44.8343437" lon="9.3175946"><ele>720.0</ele><time>2026-05-03T12:40:30.822Z</time></trkpt><trkpt lat="44.834374" lon="9.3176726"><ele>720.0</ele><time>2026-05-03T12:40:35.862Z</time></trkpt><trkpt lat="44.8344171" lon="9.3177624"><ele>720.0</ele><time>2026-05-03T12:40:41.776Z</time></trkpt><trkpt lat="44.8344571" lon="9.3178378"><ele>720.0</ele><time>2026-05-03T12:40:45.82Z</time></trkpt><trkpt lat="44.8344921" lon="9.3179151"><ele>720.0</ele><time>2026-05-03T12:40:51.83Z</time></trkpt><trkpt lat="44.8345174" lon="9.3180041"><ele>720.0</ele><time>2026-05-03T12:40:56.822Z</time></trkpt><trkpt lat="44.8345406" lon="9.3180916"><ele>720.0</ele><time>2026-05-03T12:41:00.776Z</time></trkpt><trkpt lat="44.834549" lon="9.3181968"><ele>720.0</ele><time>2026-05-03T12:41:04.831Z</time></trkpt><trkpt lat="44.8345538" lon="9.3182984"><ele>720.0</ele><time>2026-05-03T12:41:08.819Z</time></trkpt><trkpt lat="44.8345474" lon="9.3183876"><ele>720.0</ele><time>2026-05-03T12:41:13.819Z</time></trkpt><trkpt lat="44.834549" lon="9.3184907"><ele>720.0</ele><time>2026-05-03T12:41:22.822Z</time></trkpt><trkpt lat="44.8345653" lon="9.3185859"><ele>720.0</ele><time>2026-05-03T12:41:26.819Z</time></trkpt><trkpt lat="44.8346057" lon="9.3186729"><ele>720.0</ele><time>2026-05-03T12:41:30.836Z</time></trkpt><trkpt lat="44.8346667" lon="9.3187164"><ele>720.0</ele><time>2026-05-03T12:41:35.822Z</time></trkpt><trkpt lat="44.834737" lon="9.3186898"><ele>720.0</ele><time>2026-05-03T12:41:42.819Z</time></trkpt><trkpt lat="44.8347987" lon="9.3186668"><ele>720.0</ele><time>2026-05-03T12:41:46.819Z</time></trkpt><trkpt lat="44.8348586" lon="9.3186203"><ele>720.0</ele><time>2026-05-03T12:41:50.819Z</time></trkpt><trkpt lat="44.834899" lon="9.3185337"><ele>720.0</ele><time>2026-05-03T12:41:57.819Z</time></trkpt><trkpt lat="44.8349177" lon="9.3184351"><ele>720.0</ele><time>2026-05-03T12:42:02.819Z</time></trkpt><trkpt lat="44.8349354" lon="9.3183402"><ele>720.0</ele><time>2026-05-03T12:42:06.819Z</time></trkpt><trkpt lat="44.8349313" lon="9.3182403"><ele>720.0</ele><time>2026-05-03T12:42:12.82Z</time></trkpt><trkpt lat="44.8349179" lon="9.3181409"><ele>720.0</ele><time>2026-05-03T12:42:19.819Z</time></trkpt><trkpt lat="44.8349209" lon="9.318035"><ele>720.0</ele><time>2026-05-03T12:42:23.82Z</time></trkpt><trkpt lat="44.8349199" lon="9.3179447"><ele>721.0</ele><time>2026-05-03T12:42:27.822Z</time></trkpt><trkpt lat="44.8349361" lon="9.3178532"><ele>722.0</ele><time>2026-05-03T12:42:34.819Z</time></trkpt><trkpt lat="44.8349643" lon="9.3177656"><ele>723.0</ele><time>2026-05-03T12:42:38.82Z</time></trkpt><trkpt lat="44.8349868" lon="9.3176822"><ele>724.0</ele><time>2026-05-03T12:42:43.839Z</time></trkpt><trkpt lat="44.8349933" lon="9.3175898"><ele>725.0</ele><time>2026-05-03T12:42:49.817Z</time></trkpt><trkpt lat="44.8349965" lon="9.3174936"><ele>726.0</ele><time>2026-05-03T12:42:55.819Z</time></trkpt><trkpt lat="44.8350151" lon="9.3174012"><ele>727.0</ele><time>2026-05-03T12:42:59.773Z</time></trkpt><trkpt lat="44.8350489" lon="9.3173104"><ele>728.5714285714286</ele><time>2026-05-03T12:43:04.819Z</time></trkpt><trkpt lat="44.8350545" lon="9.3172207"><ele>730.1428571428572</ele><time>2026-05-03T12:43:12.82Z</time></trkpt><trkpt lat="44.8350615" lon="9.3171247"><ele>731.7142857142858</ele><time>2026-05-03T12:43:17.819Z</time></trkpt><trkpt lat="44.8350735" lon="9.3170056"><ele>733.2857142857142</ele><time>2026-05-03T12:43:21.82Z</time></trkpt><trkpt lat="44.8350805" lon="9.3169113"><ele>734.8571428571429</ele><time>2026-05-03T12:43:25.819Z</time></trkpt><trkpt lat="44.8350808" lon="9.3167985"><ele>736.4285714285714</ele><time>2026-05-03T12:43:30.82Z</time></trkpt><trkpt lat="44.8350684" lon="9.3167048"><ele>738.0</ele><time>2026-05-03T12:43:34.817Z</time></trkpt><trkpt lat="44.8350627" lon="9.3166147"><ele>738.0</ele><time>2026-05-03T12:43:43.82Z</time></trkpt><trkpt lat="44.8350925" lon="9.3165193"><ele>738.0</ele><time>2026-05-03T12:43:48.839Z</time></trkpt><trkpt lat="44.835113" lon="9.3164095"><ele>738.0</ele><time>2026-05-03T12:43:53.838Z</time></trkpt><trkpt lat="44.8351194" lon="9.3163148"><ele>738.0</ele><time>2026-05-03T12:43:59.819Z</time></trkpt><trkpt lat="44.8351322" lon="9.3162127"><ele>738.0</ele><time>2026-05-03T12:44:04.819Z</time></trkpt><trkpt lat="44.835153" lon="9.3161169"><ele>738.0</ele><time>2026-05-03T12:44:09.846Z</time></trkpt><trkpt lat="44.8351799" lon="9.3160317"><ele>738.0</ele><time>2026-05-03T12:44:16.819Z</time></trkpt><trkpt lat="44.8352156" lon="9.3159436"><ele>738.4285714285714</ele><time>2026-05-03T12:44:21.819Z</time></trkpt><trkpt lat="44.8352467" lon="9.3158626"><ele>738.8571428571429</ele><time>2026-05-03T12:44:27.838Z</time></trkpt><trkpt lat="44.8352683" lon="9.3157776"><ele>739.2857142857142</ele><time>2026-05-03T12:44:32.83Z</time></trkpt><trkpt lat="44.8352948" lon="9.3156873"><ele>739.7142857142858</ele><time>2026-05-03T12:44:36.819Z</time></trkpt><trkpt lat="44.8353292" lon="9.3156104"><ele>740.1428571428572</ele><time>2026-05-03T12:44:40.819Z</time></trkpt><trkpt lat="44.835359" lon="9.3155203"><ele>740.5714285714286</ele><time>2026-05-03T12:44:44.816Z</time></trkpt><trkpt lat="44.83538" lon="9.3154307"><ele>741.0</ele><time>2026-05-03T12:44:51.777Z</time></trkpt><trkpt lat="44.835392" lon="9.3153267"><ele>741.0</ele><time>2026-05-03T12:44:59.819Z</time></trkpt><trkpt lat="44.835413" lon="9.3152243"><ele>741.0</ele><time>2026-05-03T12:45:03.823Z</time></trkpt><trkpt lat="44.835447" lon="9.3151294"><ele>741.0</ele><time>2026-05-03T12:45:07.757Z</time></trkpt><trkpt lat="44.8354699" lon="9.3150336"><ele>741.0</ele><time>2026-05-03T12:45:12.819Z</time></trkpt><trkpt lat="44.8354957" lon="9.314946"><ele>741.0</ele><time>2026-05-03T12:45:20.819Z</time></trkpt><trkpt lat="44.8355092" lon="9.3148348"><ele>741.0</ele><time>2026-05-03T12:45:24.83Z</time></trkpt><trkpt lat="44.8355263" lon="9.3147342"><ele>741.0</ele><time>2026-05-03T12:45:28.82Z</time></trkpt><trkpt lat="44.835546" lon="9.3146422"><ele>742.4285714285714</ele><time>2026-05-03T12:45:33.819Z</time></trkpt><trkpt lat="44.8355559" lon="9.3145474"><ele>743.8571428571429</ele><time>2026-05-03T12:45:40.819Z</time></trkpt><trkpt lat="44.8355741" lon="9.3144601"><ele>745.2857142857143</ele><time>2026-05-03T12:45:44.82Z</time></trkpt><trkpt lat="44.835593" lon="9.314372"><ele>746.7142857142858</ele><time>2026-05-03T12:45:50.757Z</time></trkpt><trkpt lat="44.835602" lon="9.3142777"><ele>748.1428571428571</ele><time>2026-05-03T12:45:55.823Z</time></trkpt><trkpt lat="44.8356074" lon="9.3141806"><ele>749.5714285714287</ele><time>2026-05-03T12:45:59.778Z</time></trkpt><trkpt lat="44.8356218" lon="9.3140912"><ele>751.0</ele><time>2026-05-03T12:46:03.831Z</time></trkpt><trkpt lat="44.835601" lon="9.3140018"><ele>750.8571428571429</ele><time>2026-05-03T12:46:10.819Z</time></trkpt><trkpt lat="44.8355649" lon="9.3139028"><ele>750.7142857142858</ele><time>2026-05-03T12:46:17.819Z</time></trkpt><trkpt lat="44.835508" lon="9.3138537"><ele>750.5714285714287</ele><time>2026-05-03T12:46:22.82Z</time></trkpt><trkpt lat="44.8354476" lon="9.3138182"><ele>750.4285714285714</ele><time>2026-05-03T12:46:27.75Z</time></trkpt><trkpt lat="44.8353759" lon="9.3137781"><ele>750.2857142857142</ele><time>2026-05-03T12:46:31.436Z</time></trkpt><trkpt lat="44.835307" lon="9.3137622"><ele>750.1428571428572</ele><time>2026-05-03T12:46:35.819Z</time></trkpt><trkpt lat="44.8352346" lon="9.3137798"><ele>750.0</ele><time>2026-05-03T12:46:42.83Z</time></trkpt><trkpt lat="44.8351644" lon="9.3137663"><ele>753.0</ele><time>2026-05-03T12:46:46.819Z</time></trkpt><trkpt lat="44.8350985" lon="9.3137762"><ele>756.0</ele><time>2026-05-03T12:46:52.778Z</time></trkpt><trkpt lat="44.8350255" lon="9.3137803"><ele>759.0</ele><time>2026-05-03T12:46:59.819Z</time></trkpt><trkpt lat="44.8349584" lon="9.3137727"><ele>762.0</ele><time>2026-05-03T12:47:03.817Z</time></trkpt><trkpt lat="44.8348861" lon="9.3137743"><ele>765.0</ele><time>2026-05-03T12:47:07.819Z</time></trkpt><trkpt lat="44.8348154" lon="9.3137483"><ele>768.0</ele><time>2026-05-03T12:47:15.82Z</time></trkpt><trkpt lat="44.8347475" lon="9.3137078"><ele>771.0</ele><time>2026-05-03T12:47:20.819Z</time></trkpt><trkpt lat="44.8346813" lon="9.3136824"><ele>771.0</ele><time>2026-05-03T12:47:27.82Z</time></trkpt><trkpt lat="44.8346239" lon="9.3136356"><ele>771.0</ele><time>2026-05-03T12:47:33.797Z</time></trkpt><trkpt lat="44.8345711" lon="9.3135825"><ele>771.0</ele><time>2026-05-03T12:47:38.819Z</time></trkpt><trkpt lat="44.8345091" lon="9.3135207"><ele>771.0</ele><time>2026-05-03T12:47:43.697Z</time></trkpt><trkpt lat="44.8344445" lon="9.3135081"><ele>771.0</ele><time>2026-05-03T12:47:48.858Z</time></trkpt><trkpt lat="44.8343796" lon="9.3134923"><ele>771.0</ele><time>2026-05-03T12:47:54.819Z</time></trkpt><trkpt lat="44.8343242" lon="9.3134462"><ele>771.0</ele><time>2026-05-03T12:48:01.82Z</time></trkpt></trkseg></trk></gpx>